LiveATC.Net - Listen to live air traffic control over the Internet!
Airport/ARTCC Code
Frequency Search
(e.g., 124.400, 128.75)
Site-wide search
 


Browse Feeds
Top 50 Feeds
Coverage Map
Bad Weather Areas

LiveATC FAQ
Offer LiveATC feed
Contact LiveATC.net
Press Inquiries

LiveATC on iPhone
LiveATC on Android

Windows Phone
Windows 8/10

LiveATC Mobile
(Mobile browser)

ATC Audio Archives
Interesting Recordings

LiveATC Forums

Home Page
About LiveATC.net
Make a Donation
Terms of Use
Privacy Policy

Canadian Air Freqs

AIRMETs/SIGMETs

FAA Airport Status
Nat'l Airspace Status
Arrival Demand Charts


Server Software By:
Icecast.org
Liquidsoap

Select an area of interest:
U.S. Feeds: Class B Airports | Class C Airports | Class D/Other Airports | ARTCC (Centers)
International Feeds: Canada | Europe | Oceania | Asia | South America | North/Central America | Africa
Misc Feeds: HF Feeds
Search by ICAO/IATA airport code:   (e.g., kbos, kjfk, lax, eham, etc.)


Currently Available Live Feeds: 2666
Status Updated: Tue Oct 27 2020 08:56:38 UTC


NOTICE

Unauthorized use prohibited. See LiveATC.net Terms of Service

U.S. Class D Airport and ARTCCC Feeds

 

KUES Del/Gnd/Twr/02C (Archives)
Brookfield, Wisconsin, United States

Feed Status: UP
Listen in your browser - HTML5 player(in browser, HTML5)
Click here to listen with your own player(launches your MP3 player)

KUES 270815Z AUTO 00000KT 10SM OVC100 M01/M07 A3033 RMK AO2

KUES Airport Info (Airnav.com)

KUES Flight Activity (Flightaware)

Listeners: 0 out of 820 total

Capitol CTAF: 122.700
Waukesha Clearance Delivery: 128.700
Waukesha Ground: 121.600
Waukesha Tower: 123.700

14A CTAF (Archives)
Mooresville, North Carolina, United States

Feed Status: UP
Listen in your browser - HTML5 player(in browser, HTML5)
Click here to listen with your own player(launches your MP3 player)


Listeners: 0 out of 820 total

Lake Norman CTAF: 122.800

17FL CTAF (Archives)
Ocala, Florida, United States

Feed Status: UP
Listen in your browser - HTML5 player(in browser, HTML5)
Click here to listen with your own player(launches your MP3 player)

17FL Airport Info (Airnav.com)

17FL Flight Activity (Flightaware)

Listeners: 0 out of 820 total

Jumbolair-Greystone 17FL CTAF/UNICOM: 122.700

SNJ Area CTAF 122.8 (Archives)
Cross Keys, New Jersey, United States

Feed Status: UP
Listen in your browser - HTML5 player(in browser, HTML5)
Click here to listen with your own player(launches your MP3 player)

KPNE 270826Z AUTO 29004KT 9SM OVC009 15/14 A3013 RMK AO2 T01500139

KPNE Airport Info (Airnav.com)

KPNE Flight Activity (Flightaware)

Listeners: 0 out of 820 total

CTAF: 122.800

MA/NH/RI/CT Area CTAF (Archives)
Hopedale, Massachusetts, United States

Feed Status: UP
Listen in your browser - HTML5 player(in browser, HTML5)
Click here to listen with your own player(launches your MP3 player)

KBOS 270754Z 29007KT 6SM BR SCT005 BKN019 OVC025 11/09 A3007 RMK AO2 CIG 005 E SLP180 T01060094

KBOS Airport Info (Airnav.com)

KBOS Flight Activity (Flightaware)

Listeners: 0 out of 820 total

Air-to-Air: 122.750
Bridgeport Flight Service: 122.200
CTAF: 122.700
CTAF: 122.800
CTAF: 122.900
CTAF: 123.000
Emergency/Guard: 121.500

MA/NH/RI/CT Area CTAF (Archives)
Hopedale, Massachusetts, United States

Feed Status: UP
Listen in your browser - HTML5 player(in browser, HTML5)
Click here to listen with your own player(launches your MP3 player)

KBOS 270754Z 29007KT 6SM BR SCT005 BKN019 OVC025 11/09 A3007 RMK AO2 CIG 005 E SLP180 T01060094

KBOS Airport Info (Airnav.com)

KBOS Flight Activity (Flightaware)

Listeners: 0 out of 820 total

Air-to-Air: 122.750
Bridgeport Flight Service: 122.200
CTAF: 122.700
CTAF: 122.800
CTAF: 122.900
CTAF: 123.000
Emergency/Guard: 121.500

MA/NH/RI/CT Area CTAF (Archives)
Hopedale, Massachusetts, United States

Feed Status: UP
Listen in your browser - HTML5 player(in browser, HTML5)
Click here to listen with your own player(launches your MP3 player)

KBOS 270754Z 29007KT 6SM BR SCT005 BKN019 OVC025 11/09 A3007 RMK AO2 CIG 005 E SLP180 T01060094

KBOS Airport Info (Airnav.com)

KBOS Flight Activity (Flightaware)

Listeners: 0 out of 820 total

Air-to-Air: 122.750
Bridgeport Flight Service: 122.200
CTAF: 122.700
CTAF: 122.800
CTAF: 122.900
CTAF: 123.000
Emergency/Guard: 121.500

1B9 Area Guard (Archives)
Mansfield, Massachusetts, United States

Feed Status: UP
Listen in your browser - HTML5 player(in browser, HTML5)
Click here to listen with your own player(launches your MP3 player)


Listeners: 0 out of 820 total

Emergency/Guard: 121.500

1B9 CTAF #1 (Archives)
Mansfield, Massachusetts, United States

Feed Status: UP
Listen in your browser - HTML5 player(in browser, HTML5)
Click here to listen with your own player(launches your MP3 player)


Listeners: 0 out of 820 total

Mansfield CTAF/UNICOM: 123.000

1B9 CTAF #2 (Archives)
Mansfield, Massachusetts, United States

Feed Status: UP
Listen in your browser - HTML5 player(in browser, HTML5)
Click here to listen with your own player(launches your MP3 player)


Listeners: 0 out of 820 total

Mansfield CTAF/UNICOM: 123.000

1B9 CTAF/RCO (Archives)
Mansfield, Massachusetts, United States

Feed Status: UP
Listen in your browser - HTML5 player(in browser, HTML5)
Click here to listen with your own player(launches your MP3 player)


Listeners: 0 out of 820 total

Bridgeport FSS (RCO): 122.500
Mansfield CTAF/UNICOM: 123.000

1B9 Del/RCO #1 (Archives)
Mansfield, Massachusetts, United States

Feed Status: UP
Listen in your browser - HTML5 player(in browser, HTML5)
Click here to listen with your own player(launches your MP3 player)


Listeners: 0 out of 820 total

Mansfield Clearance Delivery (RCO): 122.500

1B9 Del/RCO #2 (Archives)
Mansfield, Massachusetts, United States

Feed Status: UP
Listen in your browser - HTML5 player(in browser, HTML5)
Click here to listen with your own player(launches your MP3 player)


Listeners: 0 out of 820 total

Mansfield Clearance Delivery (RCO): 122.500

1C9 CTAF (Archives)
Hollister, California, United States

Feed Status: UP
Listen in your browser - HTML5 player(in browser, HTML5)
Click here to listen with your own player(launches your MP3 player)

K1C9 Airport Info (Airnav.com)

K1C9 Flight Activity (Flightaware)

Listeners: 0 out of 820 total

Frazier CTAF: 123.050

1G3 CTAF
Kent, Ohio, United States

Feed Status: DOWN
Offline since: 2020-08-06 18:53:05 UTC

K1G3 Airport Info (Airnav.com)

Kent CTAF: 122.725

KGBR/20N CTAF
Kingston, New York, United States

Feed Status: DOWN
Offline since: 2019-07-21 23:53:05 UTC

KGBR Airport Info (Airnav.com)

Great Barrington CTAF: 122.800

26MA CTAF (Archives)
Pepperell, Massachusetts, United States

Feed Status: UP
Listen in your browser - HTML5 player(in browser, HTML5)
Click here to listen with your own player(launches your MP3 player)

KMHT 270753Z 00000KT 10SM SCT032 BKN042 OVC075 08/07 A3005 RMK AO2 SLP190 T00830067

KMHT Airport Info (Airnav.com)

KMHT Flight Activity (Flightaware)

Listeners: 0 out of 820 total

CTAF: 123.050

2B1 CTAF (Archives)
Marstons Mills, Massachusetts, United States

Feed Status: UP
Listen in your browser - HTML5 player(in browser, HTML5)
Click here to listen with your own player(launches your MP3 player)

KHYA 270756Z AUTO 25005KT 1/2SM FG VV002 15/15 A3003 RMK AO2 SLP169 T01500150

KHYA Airport Info (Airnav.com)

KHYA Flight Activity (Flightaware)

Listeners: 0 out of 820 total

Marstons Mills CTAF: 122.900

MA/NH/RI/CT Area CTAF (Archives)
Newburyport, Massachusetts, United States

Feed Status: UP
Listen in your browser - HTML5 player(in browser, HTML5)
Click here to listen with your own player(launches your MP3 player)

KBOS 270754Z 29007KT 6SM BR SCT005 BKN019 OVC025 11/09 A3007 RMK AO2 CIG 005 E SLP180 T01060094

KBOS Airport Info (Airnav.com)

KBOS Flight Activity (Flightaware)

Listeners: 0 out of 820 total

Air-to-Air: 122.750
Bridgeport Flight Service: 122.200
CTAF: 122.700
CTAF: 122.800
CTAF: 122.900
CTAF: 123.000
Emergency/Guard: 121.500

MA/NH/RI/CT Area CTAF (Archives)
Newburyport, Massachusetts, United States

Feed Status: UP
Listen in your browser - HTML5 player(in browser, HTML5)
Click here to listen with your own player(launches your MP3 player)

KBOS 270754Z 29007KT 6SM BR SCT005 BKN019 OVC025 11/09 A3007 RMK AO2 CIG 005 E SLP180 T01060094

KBOS Airport Info (Airnav.com)

KBOS Flight Activity (Flightaware)

Listeners: 0 out of 820 total

Air-to-Air: 122.750
Bridgeport Flight Service: 122.200
CTAF: 122.700
CTAF: 122.800
CTAF: 122.900
CTAF: 123.000
Emergency/Guard: 121.500

MA/NH/RI/CT Area CTAF (Archives)
Newburyport, Massachusetts, United States

Feed Status: UP
Listen in your browser - HTML5 player(in browser, HTML5)
Click here to listen with your own player(launches your MP3 player)

KBOS 270754Z 29007KT 6SM BR SCT005 BKN019 OVC025 11/09 A3007 RMK AO2 CIG 005 E SLP180 T01060094

KBOS Airport Info (Airnav.com)

KBOS Flight Activity (Flightaware)

Listeners: 0 out of 820 total

Air-to-Air: 122.750
Bridgeport Flight Service: 122.200
CTAF: 122.700
CTAF: 122.800
CTAF: 122.900
CTAF: 123.000
Emergency/Guard: 121.500

2GC CTAF (Archives)
Fayetteville, North Carolina, United States

Feed Status: UP
Listen in your browser - HTML5 player(in browser, HTML5)
Click here to listen with your own player(launches your MP3 player)

KFAY 270753Z 24003KT 10SM CLR 14/13 A3016 RMK AO2 SLP206 T01390128

KFAY Airport Info (Airnav.com)

KFAY Flight Activity (Flightaware)

Listeners: 0 out of 820 total

Grays Creek CTAF: 122.900

2NC0 CTAF (Archives)
Burnsville, North Carolina, United States

Feed Status: UP
Listen in your browser - HTML5 player(in browser, HTML5)
Click here to listen with your own player(launches your MP3 player)


Listeners: 0 out of 820 total

Mountain Air CTAF: 122.725

2O3 CTAF (Archives)
Angwin, California, United States

Feed Status: UP
Listen in your browser - HTML5 player(in browser, HTML5)
Click here to listen with your own player(launches your MP3 player)


Listeners: 0 out of 820 total

Angwin CTAF: 123.000

KJWY/2TS6 CTAF/Unicom (Archives)
Midlothian, Texas, United States

Feed Status: UP
Listen in your browser - HTML5 player(in browser, HTML5)
Click here to listen with your own player(launches your MP3 player)

KJWY 270815Z AUTO 36011KT 5SM BR OVC008 03/03 A3014 RMK AO2 T00340034

KJWY Airport Info (Airnav.com)

KJWY Flight Activity (Flightaware)

Listeners: 0 out of 820 total

Mid-Way CTAF/UNICOM: 122.975

39N CTAF (Archives)
Princeton/Rocky Hill, New Jersey, United States

Feed Status: UP
Listen in your browser - HTML5 player(in browser, HTML5)
Click here to listen with your own player(launches your MP3 player)


Listeners: 0 out of 820 total

Princeton CTAF: 122.725

3CK/KBUU CTAF (Archives)
Chicago/Lake In The Hills, Illinois, United States

Feed Status: UP
Listen in your browser - HTML5 player(in browser, HTML5)
Click here to listen with your own player(launches your MP3 player)

K3CK Airport Info (Airnav.com)

K3CK Flight Activity (Flightaware)

Listeners: 0 out of 820 total

Lake in the Hills CTAF: 123.050

KLXT/3GV CTAF (Archives)
Grain Valley, Missouri, United States

Feed Status: UP
Listen in your browser - HTML5 player(in browser, HTML5)
Click here to listen with your own player(launches your MP3 player)

KOJC 270753Z AUTO 36006KT 10SM OVC034 M01/M04 A3036 RMK AO2 SLP294 T10111039

KOJC Airport Info (Airnav.com)

KOJC Flight Activity (Flightaware)

Listeners: 0 out of 820 total

Lee's Summit/Grain Valley CTAF: 122.800

3M5 CTAF (Archives)
Huntsville, Alabama, United States

Feed Status: UP
Listen in your browser - HTML5 player(in browser, HTML5)
Click here to listen with your own player(launches your MP3 player)


Listeners: 0 out of 820 total

Moontown CTAF: 122.700

3N6 CTAF (Archives)
Old Bridge, New Jersey, United States

Feed Status: UP
Listen in your browser - HTML5 player(in browser, HTML5)
Click here to listen with your own player(launches your MP3 player)


Listeners: 0 out of 820 total

Old Bridge CTAF: 123.075

KBLM/N12/3N6/KMJX (Archives)
Old Bridge, New Jersey, United States

Feed Status: UP
Listen in your browser - HTML5 player(in browser, HTML5)
Click here to listen with your own player(launches your MP3 player)

KBLM 270756Z AUTO 27004KT 10SM OVC005 16/16 A3010 RMK AO2 CIG 003V007 SLP194 T01560156

KBLM Airport Info (Airnav.com)

KBLM Flight Activity (Flightaware)

Listeners: 0 out of 820 total

3N6 Old Bridge CTAF: 123.075
Emergency/Guard: 121.500
Monmouth Clearance: 120.950
Monmouth Clearance: 126.150
Monmouth CTAF: 123.000
N12 Lakewood CTAF: 122.800
Ocean County KMJX CTAF: 122.700

3R9 CTAF
Lakeway, Texas, United States

Feed Status: DOWN
Offline since: 2020-10-23 20:20:21 UTC

Lakeway CTAF: 123.000

3S8 CTAF (Archives)
Grants Pass, Oregon, United States

Feed Status: UP
Listen in your browser - HTML5 player(in browser, HTML5)
Click here to listen with your own player(launches your MP3 player)


Listeners: 0 out of 820 total

Grants Pass CTAF: 122.800

44N/KMGJ CTAF (Archives)
Millbrook, New York, United States

Feed Status: UP
Listen in your browser - HTML5 player(in browser, HTML5)
Click here to listen with your own player(launches your MP3 player)


Listeners: 0 out of 820 total

44N Sky Acres CTAF: 122.800
CTAF 122.700: 122.700
CTAF 122.9: 122.900
KMGJ Orange County Clearance: 123.850
KMGJ Orange County CTAF: 122.725

47N CTAF (Archives)
Manville, New Jersey, United States

Feed Status: UP
Listen in your browser - HTML5 player(in browser, HTML5)
Click here to listen with your own player(launches your MP3 player)


Listeners: 0 out of 820 total

Central Jersey CTAF: 122.700

NY1/4B0 CTAF
South Bethlehem, New York, United States

Feed Status: DOWN
Offline since: 2019-07-21 23:53:05 UTC

Kline Kill CTAF: 122.900

4NY8 CTAF (Archives)
Elmira, New York, United States

Feed Status: UP
Listen in your browser - HTML5 player(in browser, HTML5)
Click here to listen with your own player(launches your MP3 player)

KELM 270753Z AUTO 29003KT 10SM OVC016 08/07 A3020 RMK AO2 RAE14 SLP229 P0000 T00780072

KELM Airport Info (Airnav.com)

KELM Flight Activity (Flightaware)

Listeners: 0 out of 820 total

Harris Gliderport CTAF: 123.300

4S1 CTAF (Archives)
Gold Beach, Oregon, United States

Feed Status: UP
Listen in your browser - HTML5 player(in browser, HTML5)
Click here to listen with your own player(launches your MP3 player)

K4S1 Airport Info (Airnav.com)

K4S1 Flight Activity (Flightaware)

Listeners: 0 out of 820 total

Gold Beach CTAF: 122.800

51FL/KCDK/KCTY/X60 CTAF
Chiefland, Florida, United States

Feed Status: DOWN
Offline since: 2020-09-10 03:08:21 UTC

Cedar Key CTAF: 122.900
Cross City CTAF: 122.800
Emergency/Guard: 121.500
Jacksonville Approach/Departure: 118.600
Jacksonville Center: 127.800
Williston CTAF: 122.975

KMTC Area CTAF (Archives)
Ray, Michigan, United States

Feed Status: UP
Listen in your browser - HTML5 player(in browser, HTML5)
Click here to listen with your own player(launches your MP3 player)

KMTC 270756Z AUTO 30003KT 10SM OVC100 04/03 A3026 RMK AO2 SLP256 T00440034 $

KMTC Airport Info (Airnav.com)

KMTC Flight Activity (Flightaware)

Listeners: 0 out of 820 total

Air to Air: 123.450
Marine City CTAF (76G): 123.000
Port Huron CTAF: 123.050
Ray CTAF: 122.700
Romeo CTAF: 122.800
St Clair CTAF: 122.800
Troy CTAF: 123.050

5A2 Area Emergency/Guard (Archives)
Warner Robins, Georgia, United States

Feed Status: UP
Listen in your browser - HTML5 player(in browser, HTML5)
Click here to listen with your own player(launches your MP3 player)


Listeners: 0 out of 820 total

Emergency/Guard: 121.500

5A2/5GE1 CTAF (Archives)
Warner Robins, Georgia, United States

Feed Status: UP
Listen in your browser - HTML5 player(in browser, HTML5)
Click here to listen with your own player(launches your MP3 player)


Listeners: 0 out of 820 total

Warner Robins/Peachtree Landings CTAF: 122.900

5B6/KCQX/KPVC CTAF (Archives)
Falmouth, Massachusetts, United States

Feed Status: UP
Listen in your browser - HTML5 player(in browser, HTML5)
Click here to listen with your own player(launches your MP3 player)

KHYA 270756Z AUTO 25005KT 1/2SM FG VV002 15/15 A3003 RMK AO2 SLP169 T01500150

KHYA Airport Info (Airnav.com)

KHYA Flight Activity (Flightaware)

Listeners: 0 out of 820 total

Falmouth/Chatham/Provincetown CTAF: 122.800

5C1 CTAF (Archives)
San Antonio, Texas, United States

Feed Status: UP
Listen in your browser - HTML5 player(in browser, HTML5)
Click here to listen with your own player(launches your MP3 player)

K5C1 270815Z AUTO 36010G15KT 2 1/2SM OVC004 03/03 A3003 RMK AO1

K5C1 Airport Info (Airnav.com)

K5C1 Flight Activity (Flightaware)

Listeners: 0 out of 820 total

Boerne Stage CTAF: 123.000

5A2/5GE1 CTAF (Archives)
Fort Valley, Georgia, United States

Feed Status: UP
Listen in your browser - HTML5 player(in browser, HTML5)
Click here to listen with your own player(launches your MP3 player)


Listeners: 0 out of 820 total

Warner Robins/Peachtree Landings CTAF: 122.900

KMTC Area CTAF (Archives)
St Clair, Michigan, United States

Feed Status: UP
Listen in your browser - HTML5 player(in browser, HTML5)
Click here to listen with your own player(launches your MP3 player)

KMTC 270756Z AUTO 30003KT 10SM OVC100 04/03 A3026 RMK AO2 SLP256 T00440034 $

KMTC Airport Info (Airnav.com)

KMTC Flight Activity (Flightaware)

Listeners: 0 out of 820 total

Air to Air: 123.450
Marine City CTAF (76G): 123.000
Port Huron CTAF: 123.050
Ray CTAF: 122.700
Romeo CTAF: 122.800
St Clair CTAF: 122.800
Troy CTAF: 123.050

64FA CTAF (Archives)
Palm City, Florida, United States

Feed Status: UP
Listen in your browser - HTML5 player(in browser, HTML5)
Click here to listen with your own player(launches your MP3 player)


Listeners: 0 out of 820 total

Naked Lady Ranch CTAF: 122.900

MA/NH CTAF 122.8 (Archives)
Stow, Massachusetts, United States

Feed Status: UP
Listen in your browser - HTML5 player(in browser, HTML5)
Click here to listen with your own player(launches your MP3 player)

KMHT 270753Z 00000KT 10SM SCT032 BKN042 OVC075 08/07 A3005 RMK AO2 SLP190 T00830067

KMHT Airport Info (Airnav.com)

KMHT Flight Activity (Flightaware)

Listeners: 0 out of 820 total

MA/NH Area CTAF: 122.800

MA/NH/RI/CT Area CTAF (Archives)
Stow, Massachusetts, United States

Feed Status: UP
Listen in your browser - HTML5 player(in browser, HTML5)
Click here to listen with your own player(launches your MP3 player)

KBOS 270754Z 29007KT 6SM BR SCT005 BKN019 OVC025 11/09 A3007 RMK AO2 CIG 005 E SLP180 T01060094

KBOS Airport Info (Airnav.com)

KBOS Flight Activity (Flightaware)

Listeners: 0 out of 820 total

Air-to-Air: 122.750
Bridgeport Flight Service: 122.200
CTAF: 122.700
CTAF: 122.800
CTAF: 122.900
CTAF: 123.000
Emergency/Guard: 121.500

MA/NH/RI/CT Area CTAF (Archives)
Stow, Massachusetts, United States

Feed Status: UP
Listen in your browser - HTML5 player(in browser, HTML5)
Click here to listen with your own player(launches your MP3 player)

KBOS 270754Z 29007KT 6SM BR SCT005 BKN019 OVC025 11/09 A3007 RMK AO2 CIG 005 E SLP180 T01060094

KBOS Airport Info (Airnav.com)

KBOS Flight Activity (Flightaware)

Listeners: 0 out of 820 total

Air-to-Air: 122.750
Bridgeport Flight Service: 122.200
CTAF: 122.700
CTAF: 122.800
CTAF: 122.900
CTAF: 123.000
Emergency/Guard: 121.500

MA/NH/RI/CT Area CTAF (Archives)
Stow, Massachusetts, United States

Feed Status: UP
Listen in your browser - HTML5 player(in browser, HTML5)
Click here to listen with your own player(launches your MP3 player)

KBOS 270754Z 29007KT 6SM BR SCT005 BKN019 OVC025 11/09 A3007 RMK AO2 CIG 005 E SLP180 T01060094

KBOS Airport Info (Airnav.com)

KBOS Flight Activity (Flightaware)

Listeners: 0 out of 820 total

Air-to-Air: 122.750
Bridgeport Flight Service: 122.200
CTAF: 122.700
CTAF: 122.800
CTAF: 122.900
CTAF: 123.000
Emergency/Guard: 121.500

6K5 CTAF (Archives)
Sisters, Oregon, United States

Feed Status: UP
Listen in your browser - HTML5 player(in browser, HTML5)
Click here to listen with your own player(launches your MP3 player)

K6K5 Airport Info (Airnav.com)

K6K5 Flight Activity (Flightaware)

Listeners: 0 out of 820 total

Sisters CTAF: 122.900

KMTC Area CTAF (Archives)
Marine City, Michigan, United States

Feed Status: UP
Listen in your browser - HTML5 player(in browser, HTML5)
Click here to listen with your own player(launches your MP3 player)

KMTC 270756Z AUTO 30003KT 10SM OVC100 04/03 A3026 RMK AO2 SLP256 T00440034 $

KMTC Airport Info (Airnav.com)

KMTC Flight Activity (Flightaware)

Listeners: 0 out of 820 total

Air to Air: 123.450
Marine City CTAF (76G): 123.000
Port Huron CTAF: 123.050
Ray CTAF: 122.700
Romeo CTAF: 122.800
St Clair CTAF: 122.800
Troy CTAF: 123.050

77S CTAF (Archives)
Creswell, Oregon, United States

Feed Status: UP
Listen in your browser - HTML5 player(in browser, HTML5)
Click here to listen with your own player(launches your MP3 player)


Listeners: 0 out of 820 total

Creswell CTAF: 122.700

7B2 CTAF (Archives)
Northampton, Massachusetts, United States

Feed Status: UP
Listen in your browser - HTML5 player(in browser, HTML5)
Click here to listen with your own player(launches your MP3 player)


Listeners: 0 out of 820 total

Northampton CTAF: 122.700

MA/NH CTAF 122.8 (Archives)
Hampton, New Hampshire, United States

Feed Status: UP
Listen in your browser - HTML5 player(in browser, HTML5)
Click here to listen with your own player(launches your MP3 player)

KMHT 270753Z 00000KT 10SM SCT032 BKN042 OVC075 08/07 A3005 RMK AO2 SLP190 T00830067

KMHT Airport Info (Airnav.com)

KMHT Flight Activity (Flightaware)

Listeners: 0 out of 820 total

MA/NH Area CTAF: 122.800

7FL6 CTAF (Archives)
Daytona Beach, Florida, United States

Feed Status: UP
Listen in your browser - HTML5 player(in browser, HTML5)
Click here to listen with your own player(launches your MP3 player)


Listeners: 0 out of 820 total

Spruce Creek CTAF/UNICOM: 122.725

7S5 CTAF (Archives)
Independence, Oregon, United States

Feed Status: UP
Listen in your browser - HTML5 player(in browser, HTML5)
Click here to listen with your own player(launches your MP3 player)


Listeners: 0 out of 820 total

Independence CTAF/UNICOM: 122.975

KMTC Area CTAF (Archives)
Romeo, Michigan, United States

Feed Status: UP
Listen in your browser - HTML5 player(in browser, HTML5)
Click here to listen with your own player(launches your MP3 player)

KMTC 270756Z AUTO 30003KT 10SM OVC100 04/03 A3026 RMK AO2 SLP256 T00440034 $

KMTC Airport Info (Airnav.com)

KMTC Flight Activity (Flightaware)

Listeners: 0 out of 820 total

Air to Air: 123.450
Marine City CTAF (76G): 123.000
Port Huron CTAF: 123.050
Ray CTAF: 122.700
Romeo CTAF: 122.800
St Clair CTAF: 122.800
Troy CTAF: 123.050

KGIF/F57 CTAF (Archives)
Winter Haven, Florida, United States

Feed Status: UP
Listen in your browser - HTML5 player(in browser, HTML5)
Click here to listen with your own player(launches your MP3 player)

KGIF 270753Z AUTO 11005KT 10SM FEW029 A3005 RMK AO2 SLPNO $

KGIF Airport Info (Airnav.com)

KGIF Flight Activity (Flightaware)

Listeners: 0 out of 820 total

Winter Haven CTAF: 123.050

F70 CTAF (Archives)
Murrieta/Temecula, California, United States

Feed Status: UP
Listen in your browser - HTML5 player(in browser, HTML5)
Click here to listen with your own player(launches your MP3 player)

KF70 270815Z AUTO 00000KT 10SM CLR 07/M11 A3006 RMK AO1

KF70 Airport Info (Airnav.com)

KF70 Flight Activity (Flightaware)

Listeners: 0 out of 820 total

French Valley CTAF: 122.800

FA40 CTAF (Archives)
New Port Richey, Florida, United States

Feed Status: UP
Listen in your browser - HTML5 player(in browser, HTML5)
Click here to listen with your own player(launches your MP3 player)


Listeners: 0 out of 820 total

Hidden Lake CTAF: 123.000

I35 CTAF/ZID (Archives)
Harlan, Kentucky, United States

Feed Status: UP
Listen in your browser - HTML5 player(in browser, HTML5)
Click here to listen with your own player(launches your MP3 player)

KI35 270815Z AUTO 00000KT 10SM OVC009 13/12 A3019 RMK AO2 T01340121

KI35 Airport Info (Airnav.com)

KI35 Flight Activity (Flightaware)

Listeners: 0 out of 820 total

Harlan CTAF: 122.800
Indy Center (Sector 21 London Low): 121.325
Indy Center (Sector 21 London Low): 124.625
Indy Center (Sector 25 AZQ Low): 126.575

I40 AWOS (Archives)
Coshocton, Ohio, United States

Feed Status: UP
Listen in your browser - HTML5 player(in browser, HTML5)
Click here to listen with your own player(launches your MP3 player)


Listeners: 0 out of 820 total

Coshocton AWOS: 118.875

I40 CTAF (Archives)
Coshocton, Ohio, United States

Feed Status: UP
Listen in your browser - HTML5 player(in browser, HTML5)
Click here to listen with your own player(launches your MP3 player)


Listeners: 0 out of 820 total

Coshocton CTAF: 123.000

K1H0 CTAF/Unicom (Archives)
St. Louis, Missouri, United States

Feed Status: UP
Listen in your browser - HTML5 player(in browser, HTML5)
Click here to listen with your own player(launches your MP3 player)

K1H0 Airport Info (Airnav.com)

K1H0 Flight Activity (Flightaware)

Listeners: 0 out of 820 total

Creve Coeur CTAF: 122.800

KIXD Ground/Tower/K34 (Archives)
Gardner, Kansas, United States

Feed Status: UP
Listen in your browser - HTML5 player(in browser, HTML5)
Click here to listen with your own player(launches your MP3 player)

KIXD 270753Z AUTO 01010KT 10SM OVC035 M02/M06 A3037 RMK AO2 SLP293 T10171056

KIXD Airport Info (Airnav.com)

KIXD Flight Activity (Flightaware)

Listeners: 0 out of 820 total

K34 CTAF: 122.800
New Century Ground: 124.300
New Century Tower: 133.000

KAAO CTAF/KBEC Twr (Archives)
Wichita, Kansas, United States

Feed Status: UP
Listen in your browser - HTML5 player(in browser, HTML5)
Click here to listen with your own player(launches your MP3 player)

KAAO 270754Z AUTO 01013G19KT 10SM OVC033 M03/M08 A3034 RMK AO2 SLP293 T10281083

KAAO Airport Info (Airnav.com)

KAAO Flight Activity (Flightaware)

Listeners: 0 out of 820 total

Beech Tower: 126.800
Jabara CTAF: 122.700

KACK App/Dep (Archives)
Nantucket, Massachusetts, United States

Feed Status: UP
Listen in your browser - HTML5 player(in browser, HTML5)
Click here to listen with your own player(launches your MP3 player)

KACK 270827Z AUTO 26004KT 1/4SM R24/1800V2600FT FG VV003 A3004 RMK AO2

KACK Airport Info (Airnav.com)

KACK Flight Activity (Flightaware)

Listeners: 0 out of 820 total

Cape Approach (Nantucket Sector): 126.100

KACK ATIS (Archives)
Nantucket, Massachusetts, United States

Feed Status: UP
Listen in your browser - HTML5 player(in browser, HTML5)
Click here to listen with your own player(launches your MP3 player)

KACK 270827Z AUTO 26004KT 1/4SM R24/1800V2600FT FG VV003 A3004 RMK AO2

KACK Airport Info (Airnav.com)

KACK Flight Activity (Flightaware)

Listeners: 0 out of 820 total

Nantucket ATIS: 127.500

KACK Ground (Archives)
Nantucket, Massachusetts, United States

Feed Status: UP
Listen in your browser - HTML5 player(in browser, HTML5)
Click here to listen with your own player(launches your MP3 player)

KACK 270827Z AUTO 26004KT 1/4SM R24/1800V2600FT FG VV003 A3004 RMK AO2

KACK Airport Info (Airnav.com)

KACK Flight Activity (Flightaware)

Listeners: 0 out of 820 total

Nantucket Clearance Delivery: 119.375
Nantucket Ground: 132.500

KACK Tower (Archives)
Nantucket, Massachusetts, United States

Feed Status: UP
Listen in your browser - HTML5 player(in browser, HTML5)
Click here to listen with your own player(launches your MP3 player)

KACK 270827Z AUTO 26004KT 1/4SM R24/1800V2600FT FG VV003 A3004 RMK AO2

KACK Airport Info (Airnav.com)

KACK Flight Activity (Flightaware)

Listeners: 0 out of 820 total

Nantucket Tower: 118.300

KADS ATIS (Archives)
Dallas, Texas, United States

Feed Status: UP
Listen in your browser - HTML5 player(in browser, HTML5)
Click here to listen with your own player(launches your MP3 player)

KADS 270815Z AUTO 35008KT 7SM OVC007 03/03 A3016 RMK AO2 T00310026

KADS Airport Info (Airnav.com)

KADS Flight Activity (Flightaware)

Listeners: 0 out of 820 total

Addison ATIS: 133.400
Addison ATIS/AWOS: 133.400

KADS Ground (Archives)
Dallas, Texas, United States

Feed Status: UP
Listen in your browser - HTML5 player(in browser, HTML5)
Click here to listen with your own player(launches your MP3 player)

KADS 270815Z AUTO 35008KT 7SM OVC007 03/03 A3016 RMK AO2 T00310026

KADS Airport Info (Airnav.com)

KADS Flight Activity (Flightaware)

Listeners: 0 out of 820 total

Addison Ground: 121.600

KADS Tower (Archives)
Dallas, Texas, United States

Feed Status: UP
Listen in your browser - HTML5 player(in browser, HTML5)
Click here to listen with your own player(launches your MP3 player)

KADS 270815Z AUTO 35008KT 7SM OVC007 03/03 A3016 RMK AO2 T00310026

KADS Airport Info (Airnav.com)

KADS Flight Activity (Flightaware)

Listeners: 0 out of 820 total

Addison Tower: 126.000

KDAA/KADW Tower (Archives)
Camp Springs, Maryland, United States

Feed Status: UP
Listen in your browser - HTML5 player(in browser, HTML5)
Click here to listen with your own player(launches your MP3 player)

KDAA 270826Z AUTO 00000KT 5/8SM R32/4000V4500FT BR VV002 14/13 A3014 RMK AO2 SLP209 $

KDAA Airport Info (Airnav.com)

KDAA Flight Activity (Flightaware)

Listeners: 0 out of 820 total

Andrews Tower: 118.400
Andrews Tower: 349.000
Davison Tower: 241.000
Davison Tower: 126.300
Davison Tower: 229.400

KAEG Twr/App (Archives)
Albuquerque, New Mexico, United States

Feed Status: UP
Listen in your browser - HTML5 player(in browser, HTML5)
Click here to listen with your own player(launches your MP3 player)

KABQ 270821Z 12018KT 3/4SM BLSN VV012 M07/M08 A3007 RMK AO2 PK WND 12027/0754 VIS SW-NW-N 1/4 MTNS OBSC NE-SE T10671083

KABQ Airport Info (Airnav.com)

KABQ Flight Activity (Flightaware)

Listeners: 0 out of 820 total

Double Eagle II Ground: 121.625
Double Eagle II Tower: 120.150
Double Eagle II Tower Clearance: 124.800

MA/NH CTAF 122.8 (Archives)
Jaffrey, New Hampshire, United States

Feed Status: UP
Listen in your browser - HTML5 player(in browser, HTML5)
Click here to listen with your own player(launches your MP3 player)

KMHT 270753Z 00000KT 10SM SCT032 BKN042 OVC075 08/07 A3005 RMK AO2 SLP190 T00830067

KMHT Airport Info (Airnav.com)

KMHT Flight Activity (Flightaware)

Listeners: 0 out of 820 total

MA/NH Area CTAF: 122.800

KAFW Regional App (North) (Archives)
Fort Worth, Texas, United States

Feed Status: UP
Listen in your browser - HTML5 player(in browser, HTML5)
Click here to listen with your own player(launches your MP3 player)

KAFW 270753Z 36013KT 3SM -DZ BR OVC007 03/01 A3016 RMK AO2 DZB44 CIG 005V009 SLP220 P0000 T00280011 $

KAFW Airport Info (Airnav.com)

KAFW Flight Activity (Flightaware)

Listeners: 0 out of 820 total

Regional Approach (North): 118.100

KAFW Tower/Heli (Archives)
Fort Worth, Texas, United States

Feed Status: UP
Listen in your browser - HTML5 player(in browser, HTML5)
Click here to listen with your own player(launches your MP3 player)

KAFW 270753Z 36013KT 3SM -DZ BR OVC007 03/01 A3016 RMK AO2 DZB44 CIG 005V009 SLP220 P0000 T00280011 $

KAFW Airport Info (Airnav.com)

KAFW Flight Activity (Flightaware)

Listeners: 0 out of 820 total

Alliance Tower: 135.150
Alliance Tower (Helicopters): 120.850

KAFW Tower/Heli/App (Archives)
Fort Worth, Texas, United States

Feed Status: UP
Listen in your browser - HTML5 player(in browser, HTML5)
Click here to listen with your own player(launches your MP3 player)

KAFW 270753Z 36013KT 3SM -DZ BR OVC007 03/01 A3016 RMK AO2 DZB44 CIG 005V009 SLP220 P0000 T00280011 $

KAFW Airport Info (Airnav.com)

KAFW Flight Activity (Flightaware)

Listeners: 0 out of 820 total

Alliance Tower: 135.150
Alliance Tower (Helicopters): 120.850
Regional Approach (North): 118.100

KAHN Tower (Archives)
Athens, Georgia, United States

Feed Status: UP
Listen in your browser - HTML5 player(in browser, HTML5)
Click here to listen with your own player(launches your MP3 player)

KAHN 270751Z AUTO 00000KT 10SM OVC004 19/17 A3017 RMK AO2 SLP213 T01890167

KAHN Airport Info (Airnav.com)

KAHN Flight Activity (Flightaware)

Listeners: 0 out of 820 total

Athens Tower: 126.300

KAMW CTAF (Archives)
Ames, Iowa, United States

Feed Status: UP
Listen in your browser - HTML5 player(in browser, HTML5)
Click here to listen with your own player(launches your MP3 player)

KAMW 270753Z AUTO 36004KT 10SM OVC100 M03/M08 A3037 RMK AO2 SLP295 T10331078

KAMW Airport Info (Airnav.com)

KAMW Flight Activity (Flightaware)

Listeners: 0 out of 820 total

Ames CTAF: 122.700

KANE Twr/CTAF (Archives)
Minneapolis, Minnesota, United States

Feed Status: UP
Listen in your browser - HTML5 player(in browser, HTML5)
Click here to listen with your own player(launches your MP3 player)

KANE 270815Z AUTO 22003KT 10SM CLR M07/M09 A3032 RMK AO2

KANE Airport Info (Airnav.com)

KANE Flight Activity (Flightaware)

Listeners: 0 out of 820 total

Anoka Tower/CTAF: 132.400

KAPA App/Dep (Archives)
Denver, Colorado, United States

Feed Status: UP
Listen in your browser - HTML5 player(in browser, HTML5)
Click here to listen with your own player(launches your MP3 player)

KAPA 270753Z 22005KT 10SM CLR M11/M17 A3014 RMK AO2 SLP290 T11111167

KAPA Airport Info (Airnav.com)

KAPA Flight Activity (Flightaware)

Listeners: 0 out of 820 total

Denver Approach/Departure: 132.750

KAPA Del/Gnd (Archives)
Denver, Colorado, United States

Feed Status: UP
Listen in your browser - HTML5 player(in browser, HTML5)
Click here to listen with your own player(launches your MP3 player)

KAPA 270753Z 22005KT 10SM CLR M11/M17 A3014 RMK AO2 SLP290 T11111167

KAPA Airport Info (Airnav.com)

KAPA Flight Activity (Flightaware)

Listeners: 0 out of 820 total

Centennial Clearance Delivery: 128.600
Centennial Ground: 121.800

KAPA Tower (Primary) (Archives)
Denver, Colorado, United States

Feed Status: UP
Listen in your browser - HTML5 player(in browser, HTML5)
Click here to listen with your own player(launches your MP3 player)

KAPA 270753Z 22005KT 10SM CLR M11/M17 A3014 RMK AO2 SLP290 T11111167

KAPA Airport Info (Airnav.com)

KAPA Flight Activity (Flightaware)

Listeners: 0 out of 820 total

Centennial Tower: 118.900

KAPA Tower (Secondary #1) (Archives)
Denver, Colorado, United States

Feed Status: UP
Listen in your browser - HTML5 player(in browser, HTML5)
Click here to listen with your own player(launches your MP3 player)

KAPA 270753Z 22005KT 10SM CLR M11/M17 A3014 RMK AO2 SLP290 T11111167

KAPA Airport Info (Airnav.com)

KAPA Flight Activity (Flightaware)

Listeners: 0 out of 820 total

Centennial Tower (Rwy 17R/35L or Rwy 28): 123.700

KAPA Tower (Secondary #2) (Archives)
Denver, Colorado, United States

Feed Status: UP
Listen in your browser - HTML5 player(in browser, HTML5)
Click here to listen with your own player(launches your MP3 player)

KAPA 270753Z 22005KT 10SM CLR M11/M17 A3014 RMK AO2 SLP290 T11111167

KAPA Airport Info (Airnav.com)

KAPA Flight Activity (Flightaware)

Listeners: 0 out of 820 total

Centennial Tower (Rwy 17R/35L or Rwy 28): 124.600

KAPC Del/Gnd (Archives)
Napa, California, United States

Feed Status: UP
Listen in your browser - HTML5 player(in browser, HTML5)
Click here to listen with your own player(launches your MP3 player)

KAPC 270754Z AUTO 00000KT 10SM CLR 10/M11 A3011 RMK AO2 SLP187 T01001111 402720089

KAPC Airport Info (Airnav.com)

KAPC Flight Activity (Flightaware)

Listeners: 0 out of 820 total

Napa Clearance Delivery: 127.850
Napa Ground: 121.700

KAPC Tower (Archives)
Napa, California, United States

Feed Status: UP
Listen in your browser - HTML5 player(in browser, HTML5)
Click here to listen with your own player(launches your MP3 player)

KAPC 270754Z AUTO 00000KT 10SM CLR 10/M11 A3011 RMK AO2 SLP187 T01001111 402720089

KAPC Airport Info (Airnav.com)

KAPC Flight Activity (Flightaware)

Listeners: 0 out of 820 total

Napa Tower: 118.700

KAPF ATIS (Archives)
Naples, Florida, United States

Feed Status: UP
Listen in your browser - HTML5 player(in browser, HTML5)
Click here to listen with your own player(launches your MP3 player)

KAPF 270753Z AUTO 08007KT 10SM CLR 24/24 A2998 RMK AO2 SLP152 T02390239 $

KAPF Airport Info (Airnav.com)

KAPF Flight Activity (Flightaware)

Listeners: 0 out of 820 total

Naples ATIS: 134.225

KAPF Del/Gnd (Archives)
Naples, Florida, United States

Feed Status: UP
Listen in your browser - HTML5 player(in browser, HTML5)
Click here to listen with your own player(launches your MP3 player)

KAPF 270753Z AUTO 08007KT 10SM CLR 24/24 A2998 RMK AO2 SLP152 T02390239 $

KAPF Airport Info (Airnav.com)

KAPF Flight Activity (Flightaware)

Listeners: 0 out of 820 total

Naples Clearance Delivery: 118.000
Naples Ground: 121.600

KAPF Del/Gnd/Twr (Archives)
Naples, Florida, United States

Feed Status: UP
Listen in your browser - HTML5 player(in browser, HTML5)
Click here to listen with your own player(launches your MP3 player)

KAPF 270753Z AUTO 08007KT 10SM CLR 24/24 A2998 RMK AO2 SLP152 T02390239 $

KAPF Airport Info (Airnav.com)

KAPF Flight Activity (Flightaware)

Listeners: 0 out of 820 total

Naples Clearance Delivery: 118.000
Naples Ground: 121.600
Naples Tower: 128.500

KAPF Ft Myers App/Dep (Archives)
Naples, Florida, United States

Feed Status: UP
Listen in your browser - HTML5 player(in browser, HTML5)
Click here to listen with your own player(launches your MP3 player)

KAPF 270753Z AUTO 08007KT 10SM CLR 24/24 A2998 RMK AO2 SLP152 T02390239 $

KAPF Airport Info (Airnav.com)

KAPF Flight Activity (Flightaware)

Listeners: 0 out of 820 total

Fort Myers Approach/Departure: 124.125
Fort Myers Approach/Departure: 126.800

KAPF Tower (Archives)
Naples, Florida, United States

Feed Status: UP
Listen in your browser - HTML5 player(in browser, HTML5)
Click here to listen with your own player(launches your MP3 player)

KAPF 270753Z AUTO 08007KT 10SM CLR 24/24 A2998 RMK AO2 SLP152 T02390239 $

KAPF Airport Info (Airnav.com)

KAPF Flight Activity (Flightaware)

Listeners: 0 out of 820 total

Naples Tower: 128.500

KAPN App/Dep/ZMP (Archives)
Alpena, Michigan, United States

Feed Status: UP
Listen in your browser - HTML5 player(in browser, HTML5)
Click here to listen with your own player(launches your MP3 player)

KAPN 270754Z AUTO 00000KT 10SM CLR M01/M01 A3028 RMK AO2 SLP261 T10061011

KAPN Airport Info (Airnav.com)

KAPN Flight Activity (Flightaware)

Listeners: 3 out of 820 total

Alpena Approach/Departure: 128.425
Minneapolis Center (Sector 01 Low): 125.475

KAPN Tower (Archives)
Alpena, Michigan, United States

Feed Status: UP
Listen in your browser - HTML5 player(in browser, HTML5)
Click here to listen with your own player(launches your MP3 player)

KAPN 270754Z AUTO 00000KT 10SM CLR M01/M01 A3028 RMK AO2 SLP261 T10061011

KAPN Airport Info (Airnav.com)

KAPN Flight Activity (Flightaware)

Listeners: 0 out of 820 total

Alpena Tower: 121.350

KARB ATIS (Archives)
Ann Arbor, Michigan, United States

Feed Status: UP
Listen in your browser - HTML5 player(in browser, HTML5)
Click here to listen with your own player(launches your MP3 player)

KARB 270753Z AUTO 33003KT 10SM OVC100 04/00 A3028 RMK AO2 SLP259 T00390000

KARB Airport Info (Airnav.com)

KARB Flight Activity (Flightaware)

Listeners: 0 out of 820 total

Ann Arbor ATIS: 134.550

KARB Gnd/Twr (Archives)
Ann Arbor, Michigan, United States

Feed Status: UP
Listen in your browser - HTML5 player(in browser, HTML5)
Click here to listen with your own player(launches your MP3 player)

KARB 270753Z AUTO 33003KT 10SM OVC100 04/00 A3028 RMK AO2 SLP259 T00390000

KARB Airport Info (Airnav.com)

KARB Flight Activity (Flightaware)

Listeners: 0 out of 820 total

Ann Arbor Ground: 121.600
Ann Arbor Tower: 120.300

KARB Ground (Archives)
Ann Arbor, Michigan, United States

Feed Status: UP
Listen in your browser - HTML5 player(in browser, HTML5)
Click here to listen with your own player(launches your MP3 player)

KARB 270753Z AUTO 33003KT 10SM OVC100 04/00 A3028 RMK AO2 SLP259 T00390000

KARB Airport Info (Airnav.com)

KARB Flight Activity (Flightaware)

Listeners: 0 out of 820 total

Ann Arbor Ground: 121.600

KARB Tower (Archives)
Ann Arbor, Michigan, United States

Feed Status: UP
Listen in your browser - HTML5 player(in browser, HTML5)
Click here to listen with your own player(launches your MP3 player)

KARB 270753Z AUTO 33003KT 10SM OVC100 04/00 A3028 RMK AO2 SLP259 T00390000

KARB Airport Info (Airnav.com)

KARB Flight Activity (Flightaware)

Listeners: 0 out of 820 total

Ann Arbor Tower: 120.300

KARR Tower (Archives)
Chicago/Aurora, Illinois, United States

Feed Status: UP
Listen in your browser - HTML5 player(in browser, HTML5)
Click here to listen with your own player(launches your MP3 player)

KARR 270752Z AUTO 00000KT 10SM OVC080 01/M01 A3031 RMK AO2 SLP272 T00111011

KARR Airport Info (Airnav.com)

KARR Flight Activity (Flightaware)

Listeners: 0 out of 820 total

Aurora Tower: 120.600

KASE ATIS (Archives)
Aspen, Colorado, United States

Feed Status: UP
Listen in your browser - HTML5 player(in browser, HTML5)
Click here to listen with your own player(launches your MP3 player)

KASE 270753Z AUTO RMK AO2 SLPNO PWINO TSNO PNO $

KASE Airport Info (Airnav.com)

KASE Flight Activity (Flightaware)

Listeners: 0 out of 820 total

Aspen ATIS: 120.400

KASE Gnd/Twr/App/Center (Archives)
Aspen, Colorado, United States

Feed Status: UP
Listen in your browser - HTML5 player(in browser, HTML5)
Click here to listen with your own player(launches your MP3 player)

KASE 270753Z AUTO RMK AO2 SLPNO PWINO TSNO PNO $

KASE Airport Info (Airnav.com)

KASE Flight Activity (Flightaware)

Listeners: 0 out of 820 total

Aspen Approach/Departure: 123.800
Aspen Ground: 121.900
Aspen Tower/CTAF: 118.850
Denver Center (Sector 26 POWDR Low): 119.850

KASE Ground/Tower (Archives)
Aspen, Colorado, United States

Feed Status: UP
Listen in your browser - HTML5 player(in browser, HTML5)
Click here to listen with your own player(launches your MP3 player)

KASE 270753Z AUTO RMK AO2 SLPNO PWINO TSNO PNO $

KASE Airport Info (Airnav.com)

KASE Flight Activity (Flightaware)

Listeners: 0 out of 820 total

Aspen Ground: 121.900
Aspen Tower/CTAF: 118.850

KASE Tower (Archives)
Aspen, Colorado, United States

Feed Status: UP
Listen in your browser - HTML5 player(in browser, HTML5)
Click here to listen with your own player(launches your MP3 player)

KASE 270753Z AUTO RMK AO2 SLPNO PWINO TSNO PNO $

KASE Airport Info (Airnav.com)

KASE Flight Activity (Flightaware)

Listeners: 0 out of 820 total

Aspen Tower/CTAF: 118.850

KASG App/Dep (Archives)
Springdale, Arkansas, United States

Feed Status: UP
Listen in your browser - HTML5 player(in browser, HTML5)
Click here to listen with your own player(launches your MP3 player)

KASG 270148Z 02008KT 6SM BR OVC008 02/02 A3023

KASG Airport Info (Airnav.com)

KASG Flight Activity (Flightaware)

Listeners: 0 out of 820 total

Razorback Approach/Departure: 126.600

KASG Gnd/Twr (Archives)
Springdale, Arkansas, United States

Feed Status: UP
Listen in your browser - HTML5 player(in browser, HTML5)
Click here to listen with your own player(launches your MP3 player)

KASG 270148Z 02008KT 6SM BR OVC008 02/02 A3023

KASG Airport Info (Airnav.com)

KASG Flight Activity (Flightaware)

Listeners: 0 out of 820 total

Springdale Ground: 121.600
Springdale Tower: 118.200

KASG Gnd/Twr/App (Archives)
Springdale, Arkansas, United States

Feed Status: UP
Listen in your browser - HTML5 player(in browser, HTML5)
Click here to listen with your own player(launches your MP3 player)

KASG 270148Z 02008KT 6SM BR OVC008 02/02 A3023

KASG Airport Info (Airnav.com)

KASG Flight Activity (Flightaware)

Listeners: 0 out of 820 total

Razorback Approach/Departure: 126.600
Springdale Ground: 121.600
Springdale Tower: 118.200

KASH ATIS #1 (Archives)
Nashua, New Hampshire, United States

Feed Status: UP
Listen in your browser - HTML5 player(in browser, HTML5)
Click here to listen with your own player(launches your MP3 player)

KASH 270756Z AUTO 00000KT 9SM BKN030 OVC075 08/08 RMK AO2 SLPNO T00830083 $

KASH Airport Info (Airnav.com)

KASH Flight Activity (Flightaware)

Listeners: 0 out of 820 total

Nashua ATIS: 125.100

KASH ATIS #2 (Archives)
Nashua, New Hampshire, United States

Feed Status: UP
Listen in your browser - HTML5 player(in browser, HTML5)
Click here to listen with your own player(launches your MP3 player)

KASH 270756Z AUTO 00000KT 9SM BKN030 OVC075 08/08 RMK AO2 SLPNO T00830083 $

KASH Airport Info (Airnav.com)

KASH Flight Activity (Flightaware)

Listeners: 0 out of 820 total

Nashua ATIS: 125.100

KASH Gnd/Twr/FBO #1 (Archives)
Nashua, New Hampshire, United States

Feed Status: UP
Listen in your browser - HTML5 player(in browser, HTML5)
Click here to listen with your own player(launches your MP3 player)

KASH 270756Z AUTO 00000KT 9SM BKN030 OVC075 08/08 RMK AO2 SLPNO T00830083 $

KASH Airport Info (Airnav.com)

KASH Flight Activity (Flightaware)

Listeners: 1 out of 820 total

Infinity Aviation: 129.750
Nashua Ground: 121.800
Nashua Tower: 133.200

KASH Gnd/Twr/FBO #2 (Archives)
Nashua, New Hampshire, United States

Feed Status: UP
Listen in your browser - HTML5 player(in browser, HTML5)
Click here to listen with your own player(launches your MP3 player)

KASH 270756Z AUTO 00000KT 9SM BKN030 OVC075 08/08 RMK AO2 SLPNO T00830083 $

KASH Airport Info (Airnav.com)

KASH Flight Activity (Flightaware)

Listeners: 0 out of 820 total

Nashua Ground: 121.800
Nashua Tower: 133.200

KASH Ground/FBO (Archives)
Nashua, New Hampshire, United States

Feed Status: UP
Listen in your browser - HTML5 player(in browser, HTML5)
Click here to listen with your own player(launches your MP3 player)

KASH 270756Z AUTO 00000KT 9SM BKN030 OVC075 08/08 RMK AO2 SLPNO T00830083 $

KASH Airport Info (Airnav.com)

KASH Flight Activity (Flightaware)

Listeners: 0 out of 820 total

Infinity Aviation: 129.750
Nashua Ground: 121.800

KASH Tower (Archives)
Nashua, New Hampshire, United States

Feed Status: UP
Listen in your browser - HTML5 player(in browser, HTML5)
Click here to listen with your own player(launches your MP3 player)

KASH 270756Z AUTO 00000KT 9SM BKN030 OVC075 08/08 RMK AO2 SLPNO T00830083 $

KASH Airport Info (Airnav.com)

KASH Flight Activity (Flightaware)

Listeners: 0 out of 820 total

Nashua Tower: 133.200

Atlanta Approach (NW Satellite) (Archives)
Atlanta, Georgia, United States

Feed Status: UP
Listen in your browser - HTML5 player(in browser, HTML5)
Click here to listen with your own player(launches your MP3 player)

KRYY 270750Z AUTO 10006KT 10SM OVC004 18/17 A3017 RMK AO2 SLP936 T01780172 $

KRYY Airport Info (Airnav.com)

KRYY Flight Activity (Flightaware)

Listeners: 0 out of 820 total

Atlanta Approach (North Satellite): 121.000

KATW Gnd/Twr/App
Appleton, Wisconsin, United States

Feed Status: DOWN
Offline since: 2020-08-14 21:09:39 UTC

KATW 270815Z AUTO 29004KT 10SM SCT120 M05/M10 A3030 RMK AO2

KATW Airport Info (Airnav.com)

Appleton Ground: 121.700
Appleton Tower: 119.600
Green Bay Approach/Departure: 126.300

KATW Tower (Archives)
Appleton, Wisconsin, United States

Feed Status: UP
Listen in your browser - HTML5 player(in browser, HTML5)
Click here to listen with your own player(launches your MP3 player)

KATW 270815Z AUTO 29004KT 10SM SCT120 M05/M10 A3030 RMK AO2

KATW Airport Info (Airnav.com)

KATW Flight Activity (Flightaware)

Listeners: 0 out of 820 total

Appleton Tower: 119.600

KAUG Del/CTAF (Archives)
Augusta, Maine, United States

Feed Status: UP
Listen in your browser - HTML5 player(in browser, HTML5)
Click here to listen with your own player(launches your MP3 player)

KAUG 270753Z AUTO 00000KT 9SM BKN055 OVC070 06/06 A3005 RMK AO2 SLP176 T00560056

KAUG Airport Info (Airnav.com)

KAUG Flight Activity (Flightaware)

Listeners: 0 out of 820 total

Augusta Clearance Delivery: 119.950
Augusta CTAF/UNICOM: 123.000

NORCAL Approach (Elk Horn)
Auburn, California, United States

Feed Status: DOWN
Offline since: 2020-08-14 20:00:39 UTC

KAUN 270815Z AUTO 00000KT 10SM CLR 12/M18 A3014 RMK A01

KAUN Airport Info (Airnav.com)

NORCAL Approach (Elk Horn Sector): 125.100

NORCAL Approach (Expo)
Auburn, California, United States

Feed Status: DOWN
Offline since: 2020-08-14 20:00:39 UTC

KAUN 270815Z AUTO 00000KT 10SM CLR 12/M18 A3014 RMK A01

KAUN Airport Info (Airnav.com)

NORCAL Approach (EXPO Sector): 127.400

KAUW CTAF (Air Race Classic)
Wausau, Wisconsin, United States

Feed Status: DOWN
Offline since: 2019-06-24 16:01:03 UTC

Wausau CTAF: 122.700

KAVO CTAF (Archives)
Avon Park, Florida, United States

Feed Status: UP
Listen in your browser - HTML5 player(in browser, HTML5)
Click here to listen with your own player(launches your MP3 player)

KAVO Airport Info (Airnav.com)

KAVO Flight Activity (Flightaware)

Listeners: 0 out of 820 total

Avon Park CTAF: 122.800

KAVP Gnd/Twr/App (Archives)
Wilkes-Barre/Scranton, Pennsylvania, United States

Feed Status: UP
Listen in your browser - HTML5 player(in browser, HTML5)
Click here to listen with your own player(launches your MP3 player)

KAVP 270754Z 36006KT 10SM OVC013 09/06 A3017 RMK AO2 SLP214 T00940061

KAVP Airport Info (Airnav.com)

KAVP Flight Activity (Flightaware)

Listeners: 0 out of 820 total

Wilkes-Barre Approach: 124.500
Wilkes-Barre Approach: 126.300
Wilkes-Barre Ground: 121.900
Wilkes-Barre Tower: 120.100

KAVQ CTAF (Archives)
Marana, Arizona, United States

Feed Status: UP
Listen in your browser - HTML5 player(in browser, HTML5)
Click here to listen with your own player(launches your MP3 player)

KAVQ 270815Z AUTO 17005KT 10SM CLR 06/M12 A2987 RMK AO2 T00611123

KAVQ Airport Info (Airnav.com)

KAVQ Flight Activity (Flightaware)

Listeners: 0 out of 820 total

Marana CTAF: 123.000

Arlington Fly-In Radio
Arlington, Washington, United States

Feed Status: DOWN
Offline since: 2019-08-18 20:46:39 UTC

KAWO 270756Z AUTO 01003KT 10SM OVC042 06/04 A3046 RMK AO2 SLP321 T00610044 400891028

KAWO Airport Info (Airnav.com)

Arlington Fly-In Radio: 89.9

KAWO Arlington Fly-In ATC
Arlington, Washington, United States

Feed Status: DOWN
Offline since: 2019-08-18 20:46:39 UTC

KAWO 270756Z AUTO 01003KT 10SM OVC042 06/04 A3046 RMK AO2 SLP321 T00610044 400891028

KAWO Airport Info (Airnav.com)

Arlington CTAF: 122.725
Arlington Tower (Air Show): 127.200

KAWO CTAF/Clearance (Archives)
Arlington, Washington, United States

Feed Status: UP
Listen in your browser - HTML5 player(in browser, HTML5)
Click here to listen with your own player(launches your MP3 player)

KAWO 270756Z AUTO 01003KT 10SM OVC042 06/04 A3046 RMK AO2 SLP321 T00610044 400891028

KAWO Airport Info (Airnav.com)

KAWO Flight Activity (Flightaware)

Listeners: 0 out of 820 total

Arlington Clearance Delivery (Seattle): 121.725
Arlington CTAF: 122.725

KBTL/KAZO Gnd/Twr/App (Archives)
Kalamazoo, Michigan, United States

Feed Status: UP
Listen in your browser - HTML5 player(in browser, HTML5)
Click here to listen with your own player(launches your MP3 player)

KBTL Airport Info (Airnav.com)

KBTL Flight Activity (Flightaware)

Listeners: 0 out of 820 total

Battle Creek Ground: 121.700
Battle Creek Tower: 126.825
Kalamazoo Approach/Departure: 119.200
Kalamazoo Ground: 121.900
Kalamazoo Tower: 118.300

KBAF Ground (Archives)
Westfield/Springfield, Massachusetts, United States

Feed Status: UP
Listen in your browser - HTML5 player(in browser, HTML5)
Click here to listen with your own player(launches your MP3 player)

KBAF 270753Z AUTO 00000KT 7SM OVC075 09/09 A3008 RMK AO2 SLP188 T00940089

KBAF Airport Info (Airnav.com)

KBAF Flight Activity (Flightaware)

Listeners: 0 out of 820 total

Westfield Ground: 121.700

KBAF Ground/Tower (Archives)
Westfield/Springfield, Massachusetts, United States

Feed Status: UP
Listen in your browser - HTML5 player(in browser, HTML5)
Click here to listen with your own player(launches your MP3 player)

KBAF 270753Z AUTO 00000KT 7SM OVC075 09/09 A3008 RMK AO2 SLP188 T00940089

KBAF Airport Info (Airnav.com)

KBAF Flight Activity (Flightaware)

Listeners: 0 out of 820 total

Westfield Ground: 121.700
Westfield Tower: 118.900

KBAF Tower (Archives)
Westfield/Springfield, Massachusetts, United States

Feed Status: UP
Listen in your browser - HTML5 player(in browser, HTML5)
Click here to listen with your own player(launches your MP3 player)

KBAF 270753Z AUTO 00000KT 7SM OVC075 09/09 A3008 RMK AO2 SLP188 T00940089

KBAF Airport Info (Airnav.com)

KBAF Flight Activity (Flightaware)

Listeners: 0 out of 820 total

Westfield Tower: 118.900

KBAZ Tower (Archives)
New Braunfels, Texas, United States

Feed Status: UP
Listen in your browser - HTML5 player(in browser, HTML5)
Click here to listen with your own player(launches your MP3 player)

KBAZ 270751Z AUTO 02012KT 7SM OVC006 07/05 A3004 RMK AO2 SLP168 T00720050

KBAZ Airport Info (Airnav.com)

KBAZ Flight Activity (Flightaware)

Listeners: 0 out of 820 total

New Braunfels Tower: 127.050

KBCT ATIS (Archives)
Boca Raton, Florida, United States

Feed Status: UP
Listen in your browser - HTML5 player(in browser, HTML5)
Click here to listen with your own player(launches your MP3 player)

KBCT 270247Z 13010KT 10SM SCT018 BKN023 28/25 A3005

KBCT Airport Info (Airnav.com)

KBCT Flight Activity (Flightaware)

Listeners: 0 out of 820 total

Boca Raton ATIS/AWOS: 121.125

KBCT Emergency/Guard (Archives)
Boca Raton, Florida, United States

Feed Status: UP
Listen in your browser - HTML5 player(in browser, HTML5)
Click here to listen with your own player(launches your MP3 player)

KBCT 270247Z 13010KT 10SM SCT018 BKN023 28/25 A3005

KBCT Airport Info (Airnav.com)

KBCT Flight Activity (Flightaware)

Listeners: 0 out of 820 total

Emergency/Guard: 121.500

KBCT Ground (Archives)
Boca Raton, Florida, United States

Feed Status: UP
Listen in your browser - HTML5 player(in browser, HTML5)
Click here to listen with your own player(launches your MP3 player)

KBCT 270247Z 13010KT 10SM SCT018 BKN023 28/25 A3005

KBCT Airport Info (Airnav.com)

KBCT Flight Activity (Flightaware)

Listeners: 0 out of 820 total

Boca Raton Ground: 121.800

KBCT Ground/Tower (Archives)
Boca Raton, Florida, United States

Feed Status: UP
Listen in your browser - HTML5 player(in browser, HTML5)
Click here to listen with your own player(launches your MP3 player)

KBCT 270247Z 13010KT 10SM SCT018 BKN023 28/25 A3005

KBCT Airport Info (Airnav.com)

KBCT Flight Activity (Flightaware)

Listeners: 0 out of 820 total

Boca Raton Ground: 121.800
Boca Raton Tower: 118.425

KBCT Tower (Archives)
Boca Raton, Florida, United States

Feed Status: UP
Listen in your browser - HTML5 player(in browser, HTML5)
Click here to listen with your own player(launches your MP3 player)

KBCT 270247Z 13010KT 10SM SCT018 BKN023 28/25 A3005

KBCT Airport Info (Airnav.com)

KBCT Flight Activity (Flightaware)

Listeners: 0 out of 820 total

Boca Raton Tower: 118.425

KBDN CTAF (Archives)
Bend, Oregon, United States

Feed Status: UP
Listen in your browser - HTML5 player(in browser, HTML5)
Click here to listen with your own player(launches your MP3 player)

KBDN 270815Z AUTO 19005KT 10SM CLR M01/M08 A3039 RMK AO2

KBDN Airport Info (Airnav.com)

KBDN Flight Activity (Flightaware)

Listeners: 0 out of 820 total

Bend CTAF: 123.000

KBDR Del/Gnd/Twr (Archives)
Bridgeport, Connecticut, United States

Feed Status: UP
Listen in your browser - HTML5 player(in browser, HTML5)
Click here to listen with your own player(launches your MP3 player)

KBDR 270752Z AUTO 26003KT 6SM BR OVC005 15/14 A3007 RMK AO2 CIG 004V009 SLP183 T01500139

KBDR Airport Info (Airnav.com)

KBDR Flight Activity (Flightaware)

Listeners: 2 out of 820 total

Bridgeport Clearance/Ground: 121.750
Bridgeport Tower: 120.900
Sikorsky Heliport: 133.600

KBDR Del/Gnd/Twr/App (Archives)
Bridgeport, Connecticut, United States

Feed Status: UP
Listen in your browser - HTML5 player(in browser, HTML5)
Click here to listen with your own player(launches your MP3 player)

KBDR 270752Z AUTO 26003KT 6SM BR OVC005 15/14 A3007 RMK AO2 CIG 004V009 SLP183 T01500139

KBDR Airport Info (Airnav.com)

KBDR Flight Activity (Flightaware)

Listeners: 0 out of 820 total

Bridgeport Clearance/Ground: 121.750
Bridgeport Tower: 120.900
New York Approach (LOVES Sector): 124.075
Sikorsky Heliport: 133.600

New York Approach (LOVES Sector) (Archives)
Bridgeport, Connecticut, United States

Feed Status: UP
Listen in your browser - HTML5 player(in browser, HTML5)
Click here to listen with your own player(launches your MP3 player)

KBDR 270752Z AUTO 26003KT 6SM BR OVC005 15/14 A3007 RMK AO2 CIG 004V009 SLP183 T01500139

KBDR Airport Info (Airnav.com)

KBDR Flight Activity (Flightaware)

Listeners: 0 out of 820 total

New York Approach (LOVES Sector): 124.075

KFTG/KEIK/KBDU/KLMO/Misc (Archives)
Boulder, Colorado, United States

Feed Status: UP
Listen in your browser - HTML5 player(in browser, HTML5)
Click here to listen with your own player(launches your MP3 player)

KDEN 270753Z 21010KT 10SM CLR M12/M17 A3016 RMK AO2 SLP275 T11221172

KDEN Airport Info (Airnav.com)

KDEN Flight Activity (Flightaware)

Listeners: 0 out of 820 total

Air-to-Air Fixed Wing: 122.750
Air-to-Air Informal: 123.450
Boulder CTAF: 122.725
Erie CTAF: 123.000
Front Range Tower: 120.200
KBKF Tower: 121.000
Longmont CTAF: 122.975
MULTICOM: 122.900
UNICOM: 122.950

KAAO CTAF/KBEC Twr (Archives)
Wichita, Kansas, United States

Feed Status: UP
Listen in your browser - HTML5 player(in browser, HTML5)
Click here to listen with your own player(launches your MP3 player)

KAAO 270754Z AUTO 01013G19KT 10SM OVC033 M03/M08 A3034 RMK AO2 SLP293 T10281083

KAAO Airport Info (Airnav.com)

KAAO Flight Activity (Flightaware)

Listeners: 0 out of 820 total

Beech Tower: 126.800
Jabara CTAF: 122.700

Boston App/Dep (North Sat) #1 (Archives)
Bedford, Massachusetts, United States

Feed Status: UP
Listen in your browser - HTML5 player(in browser, HTML5)
Click here to listen with your own player(launches your MP3 player)

KBED 270820Z AUTO 00000KT 6SM BR BKN005 OVC027 09/09 A3005 RMK AO2 T00940094

KBED Airport Info (Airnav.com)

KBED Flight Activity (Flightaware)

Listeners: 0 out of 820 total

Boston Approach (North Satellites, SFC-3500'): 124.400

KBED ATIS #1 (Archives)
Bedford, Massachusetts, United States

Feed Status: UP
Listen in your browser - HTML5 player(in browser, HTML5)
Click here to listen with your own player(launches your MP3 player)

KBED 270820Z AUTO 00000KT 6SM BR BKN005 OVC027 09/09 A3005 RMK AO2 T00940094

KBED Airport Info (Airnav.com)

KBED Flight Activity (Flightaware)

Listeners: 0 out of 820 total

Hanscom ATIS: 124.600

KBED ATIS #2 (Archives)
Bedford, Massachusetts, United States

Feed Status: UP
Listen in your browser - HTML5 player(in browser, HTML5)
Click here to listen with your own player(launches your MP3 player)

KBED 270820Z AUTO 00000KT 6SM BR BKN005 OVC027 09/09 A3005 RMK AO2 T00940094

KBED Airport Info (Airnav.com)

KBED Flight Activity (Flightaware)

Listeners: 0 out of 820 total

Hanscom ATIS: 124.600

KBED Clearance Delivery (Archives)
Bedford, Massachusetts, United States

Feed Status: UP
Listen in your browser - HTML5 player(in browser, HTML5)
Click here to listen with your own player(launches your MP3 player)

KBED 270820Z AUTO 00000KT 6SM BR BKN005 OVC027 09/09 A3005 RMK AO2 T00940094

KBED Airport Info (Airnav.com)

KBED Flight Activity (Flightaware)

Listeners: 0 out of 820 total

Hanscom Clearance Delivery: 121.850

KBED Del/Gnd (Archives)
Bedford, Massachusetts, United States

Feed Status: UP
Listen in your browser - HTML5 player(in browser, HTML5)
Click here to listen with your own player(launches your MP3 player)

KBED 270820Z AUTO 00000KT 6SM BR BKN005 OVC027 09/09 A3005 RMK AO2 T00940094

KBED Airport Info (Airnav.com)

KBED Flight Activity (Flightaware)

Listeners: 0 out of 820 total

Hanscom Clearance Delivery: 121.850
Hanscom Ground: 121.700

KBED Gnd/Twr (Archives)
Bedford, Massachusetts, United States

Feed Status: UP
Listen in your browser - HTML5 player(in browser, HTML5)
Click here to listen with your own player(launches your MP3 player)

KBED 270820Z AUTO 00000KT 6SM BR BKN005 OVC027 09/09 A3005 RMK AO2 T00940094

KBED Airport Info (Airnav.com)

KBED Flight Activity (Flightaware)

Listeners: 0 out of 820 total

Hanscom Ground: 121.700
Hanscom Tower: 118.500

KBED Ground (Archives)
Bedford, Massachusetts, United States

Feed Status: UP
Listen in your browser - HTML5 player(in browser, HTML5)
Click here to listen with your own player(launches your MP3 player)

KBED 270820Z AUTO 00000KT 6SM BR BKN005 OVC027 09/09 A3005 RMK AO2 T00940094

KBED Airport Info (Airnav.com)

KBED Flight Activity (Flightaware)

Listeners: 0 out of 820 total

Hanscom Ground: 121.700

KBED Tower (Archives)
Bedford, Massachusetts, United States

Feed Status: UP
Listen in your browser - HTML5 player(in browser, HTML5)
Click here to listen with your own player(launches your MP3 player)

KBED 270820Z AUTO 00000KT 6SM BR BKN005 OVC027 09/09 A3005 RMK AO2 T00940094

KBED Airport Info (Airnav.com)

KBED Flight Activity (Flightaware)

Listeners: 0 out of 820 total

Hanscom Tower: 118.500

KBFI ATIS (Archives)
Seattle, Washington, United States

Feed Status: UP
Listen in your browser - HTML5 player(in browser, HTML5)
Click here to listen with your own player(launches your MP3 player)

KBFI 270753Z 00000KT 10SM OVC039 10/03 A3046 RMK AO2 SLP312 T01000028 401110017

KBFI Airport Info (Airnav.com)

KBFI Flight Activity (Flightaware)

Listeners: 0 out of 820 total

Boeing ATIS: 127.750

KBFI Clearance Delivery (Archives)
Seattle, Washington, United States

Feed Status: UP
Listen in your browser - HTML5 player(in browser, HTML5)
Click here to listen with your own player(launches your MP3 player)

KBFI 270753Z 00000KT 10SM OVC039 10/03 A3046 RMK AO2 SLP312 T01000028 401110017

KBFI Airport Info (Airnav.com)

KBFI Flight Activity (Flightaware)

Listeners: 0 out of 820 total

Boeing Clearance Delivery: 132.400

KBFI Ground (Archives)
Seattle, Washington, United States

Feed Status: UP
Listen in your browser - HTML5 player(in browser, HTML5)
Click here to listen with your own player(launches your MP3 player)

KBFI 270753Z 00000KT 10SM OVC039 10/03 A3046 RMK AO2 SLP312 T01000028 401110017

KBFI Airport Info (Airnav.com)

KBFI Flight Activity (Flightaware)

Listeners: 0 out of 820 total

Boeing Ground: 121.900

KBFI Ground/Tower (Archives)
Seattle, Washington, United States

Feed Status: UP
Listen in your browser - HTML5 player(in browser, HTML5)
Click here to listen with your own player(launches your MP3 player)

KBFI 270753Z 00000KT 10SM OVC039 10/03 A3046 RMK AO2 SLP312 T01000028 401110017

KBFI Airport Info (Airnav.com)

KBFI Flight Activity (Flightaware)

Listeners: 0 out of 820 total

Boeing Ground: 121.900
Boeing Tower (Rwy 13L & 31R/VFR): 118.300
Boeing Tower (Rwy 13R/31L/IFR): 120.600
Emergency: 121.500

KBFI Guard (Archives)
Seattle, Washington, United States

Feed Status: UP
Listen in your browser - HTML5 player(in browser, HTML5)
Click here to listen with your own player(launches your MP3 player)

KBFI 270753Z 00000KT 10SM OVC039 10/03 A3046 RMK AO2 SLP312 T01000028 401110017

KBFI Airport Info (Airnav.com)

KBFI Flight Activity (Flightaware)

Listeners: 0 out of 820 total

Emergency/Guard: 121.500

KBFI Tower (IFR) (Archives)
Seattle, Washington, United States

Feed Status: UP
Listen in your browser - HTML5 player(in browser, HTML5)
Click here to listen with your own player(launches your MP3 player)

KBFI 270753Z 00000KT 10SM OVC039 10/03 A3046 RMK AO2 SLP312 T01000028 401110017

KBFI Airport Info (Airnav.com)

KBFI Flight Activity (Flightaware)

Listeners: 0 out of 820 total

Boeing Tower (Rwy 13R/31L/IFR): 120.600

KBFI Tower (VFR) (Archives)
Seattle, Washington, United States

Feed Status: UP
Listen in your browser - HTML5 player(in browser, HTML5)
Click here to listen with your own player(launches your MP3 player)

KBFI 270753Z 00000KT 10SM OVC039 10/03 A3046 RMK AO2 SLP312 T01000028 401110017

KBFI Airport Info (Airnav.com)

KBFI Flight Activity (Flightaware)

Listeners: 0 out of 820 total

Boeing Tower (Rwy 13L & 31R/VFR): 118.300

KBFI Tower (VFR/IFR) (Archives)
Seattle, Washington, United States

Feed Status: UP
Listen in your browser - HTML5 player(in browser, HTML5)
Click here to listen with your own player(launches your MP3 player)

KBFI 270753Z 00000KT 10SM OVC039 10/03 A3046 RMK AO2 SLP312 T01000028 401110017

KBFI Airport Info (Airnav.com)

KBFI Flight Activity (Flightaware)

Listeners: 0 out of 820 total

Boeing Tower (Rwy 13L & 31R/VFR): 118.300
Boeing Tower (Rwy 13R/31L/IFR): 120.600

KBFL Twr/App/ZLA
Bakersfield, California, United States

Feed Status: DOWN
Offline since: 2020-09-01 17:45:05 UTC

KBFL 270754Z AUTO 11003KT 10SM CLR 13/M04 A3014 RMK AO2 SLP203 T01281044

KBFL Airport Info (Airnav.com)

Bakersfield Approach: 118.800
Bakersfield Departure: 126.450
Los Angeles Center (Sector 3 Low): 127.100
Meadows Tower: 118.100

KBFM Ground/Tower (Archives)
Mobile, Alabama, United States

Feed Status: UP
Listen in your browser - HTML5 player(in browser, HTML5)
Click here to listen with your own player(launches your MP3 player)

KBFM 270826Z 02005KT 10SM SCT055 24/20 A3002 RMK AO2 T02390200

KBFM Airport Info (Airnav.com)

KBFM Flight Activity (Flightaware)

Listeners: 0 out of 820 total

Downtown Ground: 121.700
Downtown Tower: 118.800

KBFM Tower (Archives)
Mobile, Alabama, United States

Feed Status: UP
Listen in your browser - HTML5 player(in browser, HTML5)
Click here to listen with your own player(launches your MP3 player)

KBFM 270826Z 02005KT 10SM SCT055 24/20 A3002 RMK AO2 T02390200

KBFM Airport Info (Airnav.com)

KBFM Flight Activity (Flightaware)

Listeners: 0 out of 820 total

Downtown Tower: 118.800

KBID CTAF (Archives)
Block Island, Rhode Island, United States

Feed Status: UP
Listen in your browser - HTML5 player(in browser, HTML5)
Click here to listen with your own player(launches your MP3 player)

KBID 270756Z AUTO 28009KT 4SM BR OVC002 15/14 A3006 RMK AO2 SLP181 T01500144

KBID Airport Info (Airnav.com)

KBID Flight Activity (Flightaware)

Listeners: 0 out of 820 total

Block Island CTAF: 123.000

KBIS Twr/App (Archives)
Bismarck, North Dakota, United States

Feed Status: UP
Listen in your browser - HTML5 player(in browser, HTML5)
Click here to listen with your own player(launches your MP3 player)

KBIS 270752Z AUTO 22003KT 10SM CLR M09/M14 A3009 RMK AO2 SLP219 T10941139

KBIS Airport Info (Airnav.com)

KBIS Flight Activity (Flightaware)

Listeners: 0 out of 820 total

Bismarck Approach/Departure: 126.300
Bismarck Tower: 118.300

KBJC Ground/Tower (Archives)
Denver, Colorado, United States

Feed Status: UP
Listen in your browser - HTML5 player(in browser, HTML5)
Click here to listen with your own player(launches your MP3 player)

KBJC 270811Z AUTO 23006KT 10SM CLR M12/M14 A3015 RMK AO2

KBJC Airport Info (Airnav.com)

KBJC Flight Activity (Flightaware)

Listeners: 0 out of 820 total

Metro Ground: 121.700
Metro Tower: 118.600

KBJI CTAF/ZMP (Archives)
Bemidji, Minnesota, United States

Feed Status: UP
Listen in your browser - HTML5 player(in browser, HTML5)
Click here to listen with your own player(launches your MP3 player)

KBJI 270815Z AUTO 20004KT 10SM CLR M10/M14 A3014 RMK AO2 T11031143

KBJI Airport Info (Airnav.com)

KBJI Flight Activity (Flightaware)

Listeners: 1 out of 820 total

Bemidji CTAF: 122.800
Minneapolis Center (Sector 25 Low/High): 134.750

KBKF Tower (UHF) (Archives)
Aurora, Colorado, United States

Feed Status: UP
Listen in your browser - HTML5 player(in browser, HTML5)
Click here to listen with your own player(launches your MP3 player)

KBKF 270758Z 18009KT 10SM CLR M13/M17 A3016 RMK AO2A SLP282 T11301169

KBKF Airport Info (Airnav.com)

KBKF Flight Activity (Flightaware)

Listeners: 0 out of 820 total

Buckley Tower: 291.675

KBKF Tower (VHF) (Archives)
Aurora, Colorado, United States

Feed Status: UP
Listen in your browser - HTML5 player(in browser, HTML5)
Click here to listen with your own player(launches your MP3 player)

KBKF 270758Z 18009KT 10SM CLR M13/M17 A3016 RMK AO2A SLP282 T11301169

KBKF Airport Info (Airnav.com)

KBKF Flight Activity (Flightaware)

Listeners: 0 out of 820 total

Buckley Tower: 121.000

KBKF Tower (VHF/UHF) (Archives)
Aurora, Colorado, United States

Feed Status: UP
Listen in your browser - HTML5 player(in browser, HTML5)
Click here to listen with your own player(launches your MP3 player)

KBKF 270758Z 18009KT 10SM CLR M13/M17 A3016 RMK AO2A SLP282 T11301169

KBKF Airport Info (Airnav.com)

KBKF Flight Activity (Flightaware)

Listeners: 0 out of 820 total

Buckley Tower: 121.000
Buckley Tower: 291.675

KBLI Tower (Archives)
Bellingham, Washington, United States

Feed Status: UP
Listen in your browser - HTML5 player(in browser, HTML5)
Click here to listen with your own player(launches your MP3 player)

KBLI 270753Z AUTO 04003KT 10SM OVC040 06/02 A3046 RMK AO2 SLP324 T00610022 400780000

KBLI Airport Info (Airnav.com)

KBLI Flight Activity (Flightaware)

Listeners: 0 out of 820 total

Bellingham Tower: 124.900

KBLM/N12/3N6/KMJX (Archives)
Belmar/Farmingdale, New Jersey, United States

Feed Status: UP
Listen in your browser - HTML5 player(in browser, HTML5)
Click here to listen with your own player(launches your MP3 player)

KBLM 270756Z AUTO 27004KT 10SM OVC005 16/16 A3010 RMK AO2 CIG 003V007 SLP194 T01560156

KBLM Airport Info (Airnav.com)

KBLM Flight Activity (Flightaware)

Listeners: 0 out of 820 total

3N6 Old Bridge CTAF: 123.075
Emergency/Guard: 121.500
Monmouth Clearance: 120.950
Monmouth Clearance: 126.150
Monmouth CTAF: 123.000
N12 Lakewood CTAF: 122.800
Ocean County KMJX CTAF: 122.700

KBMG Approach/Departure (Archives)
Bloomington, Indiana, United States

Feed Status: UP
Listen in your browser - HTML5 player(in browser, HTML5)
Click here to listen with your own player(launches your MP3 player)

KBMG 270753Z AUTO 02004KT 5SM HZ OVC006 08/06 A3026 RMK AO2 SLP247 T00830056 PNO $

KBMG Airport Info (Airnav.com)

KBMG Flight Activity (Flightaware)

Listeners: 0 out of 820 total

Emergency/Guard: 121.500
Emergency/Guard: 243.000
Hulman Approach: 128.025

KBMG Tower (Archives)
Bloomington, Indiana, United States

Feed Status: UP
Listen in your browser - HTML5 player(in browser, HTML5)
Click here to listen with your own player(launches your MP3 player)

KBMG 270753Z AUTO 02004KT 5SM HZ OVC006 08/06 A3026 RMK AO2 SLP247 T00830056 PNO $

KBMG Airport Info (Airnav.com)

KBMG Flight Activity (Flightaware)

Listeners: 0 out of 820 total

Bloomington Tower: 120.775

KBMG Twr/App (Archives)
Bloomington, Indiana, United States

Feed Status: UP
Listen in your browser - HTML5 player(in browser, HTML5)
Click here to listen with your own player(launches your MP3 player)

KBMG 270753Z AUTO 02004KT 5SM HZ OVC006 08/06 A3026 RMK AO2 SLP247 T00830056 PNO $

KBMG Airport Info (Airnav.com)

KBMG Flight Activity (Flightaware)

Listeners: 0 out of 820 total

Bloomington Tower: 120.775
Emergency/Guard: 121.500
Emergency/Guard: 243.000
Hulman Approach: 128.025

KBMI Gnd/Twr/App/Dep (Archives)
Bloomington/Normal, Illinois, United States

Feed Status: UP
Listen in your browser - HTML5 player(in browser, HTML5)
Click here to listen with your own player(launches your MP3 player)

KBMI 270828Z AUTO 01006KT 6SM UP BR BKN005 BKN016 OVC022 01/01 A3031 RMK AO2 P0000

KBMI Airport Info (Airnav.com)

KBMI Flight Activity (Flightaware)

Listeners: 0 out of 820 total

Bloomington Ground: 121.650
Bloomington Tower: 124.600
Peoria Approach/Departure: 128.725

KBOK CTAF (Archives)
Brookings, Oregon, United States

Feed Status: UP
Listen in your browser - HTML5 player(in browser, HTML5)
Click here to listen with your own player(launches your MP3 player)

KBOK 270756Z AUTO 00000KT 10SM CLR 15/03 A3025 RMK AO2 SLP243 T01500033

KBOK Airport Info (Airnav.com)

KBOK Flight Activity (Flightaware)

Listeners: 0 out of 820 total

Brookings CTAF: 122.800

KBOW AWOS (Archives)
Bartow, Florida, United States

Feed Status: UP
Listen in your browser - HTML5 player(in browser, HTML5)
Click here to listen with your own player(launches your MP3 player)

KBOW 270815Z AUTO 09004KT 10SM CLR 24/24 A3005 RMK AO2

KBOW Airport Info (Airnav.com)

KBOW Flight Activity (Flightaware)

Listeners: 0 out of 820 total

Bartow AWOS: 123.775

KBOW Gnd/Twr/Misc (Archives)
Bartow, Florida, United States

Feed Status: UP
Listen in your browser - HTML5 player(in browser, HTML5)
Click here to listen with your own player(launches your MP3 player)

KBOW 270815Z AUTO 09004KT 10SM CLR 24/24 A3005 RMK AO2

KBOW Airport Info (Airnav.com)

KBOW Flight Activity (Flightaware)

Listeners: 0 out of 820 total

Bartow Ground: 121.900
Bartow Tower: 121.200
Bartow UNICOM: 122.950
Emergency/Guard: 121.500

KBOW Gnd/UNICOM/Guard (Archives)
Bartow, Florida, United States

Feed Status: UP
Listen in your browser - HTML5 player(in browser, HTML5)
Click here to listen with your own player(launches your MP3 player)

KBOW 270815Z AUTO 09004KT 10SM CLR 24/24 A3005 RMK AO2

KBOW Airport Info (Airnav.com)

KBOW Flight Activity (Flightaware)

Listeners: 0 out of 820 total

Bartow Ground: 121.900
Bartow UNICOM: 122.950
Emergency/Guard: 121.500

KBOW Tower/CTAF (Archives)
Bartow, Florida, United States

Feed Status: UP
Listen in your browser - HTML5 player(in browser, HTML5)
Click here to listen with your own player(launches your MP3 player)

KBOW 270815Z AUTO 09004KT 10SM CLR 24/24 A3005 RMK AO2

KBOW Airport Info (Airnav.com)

KBOW Flight Activity (Flightaware)

Listeners: 0 out of 820 total

Bartow Tower: 121.200

KBPK CTAF (Archives)
Mountain Home, Arkansas, United States

Feed Status: UP
Listen in your browser - HTML5 player(in browser, HTML5)
Click here to listen with your own player(launches your MP3 player)

KBPK 270753Z AUTO 00000KT 10SM -RA BKN007 OVC018 02/01 A3021 RMK AO2 SLP234 P0016 T00220011

KBPK Airport Info (Airnav.com)

KBPK Flight Activity (Flightaware)

Listeners: 0 out of 820 total

Baxter County CTAF: 123.000

KBTL/KAZO Gnd/Twr/App (Archives)
Battle Creek, Michigan, United States

Feed Status: UP
Listen in your browser - HTML5 player(in browser, HTML5)
Click here to listen with your own player(launches your MP3 player)

KBTL Airport Info (Airnav.com)

KBTL Flight Activity (Flightaware)

Listeners: 0 out of 820 total

Battle Creek Ground: 121.700
Battle Creek Tower: 126.825
Kalamazoo Approach/Departure: 119.200
Kalamazoo Ground: 121.900
Kalamazoo Tower: 118.300

KWHP/KVNY/KBUR App/Dep (Archives)
Burbank, California, United States

Feed Status: UP
Listen in your browser - HTML5 player(in browser, HTML5)
Click here to listen with your own player(launches your MP3 player)

KWHP 270300Z 30005G15KT 10SM SKC 19/M25 A3007

KWHP Airport Info (Airnav.com)

KWHP Flight Activity (Flightaware)

Listeners: 1 out of 820 total

SOCAL App (Glendale Sector): 135.050
SOCAL App (Valley Sector): 124.600
SOCAL Approach (Fillmore Sector): 120.400
SOCAL Approach (Moorpark Sector): 128.750
SOCAL Approach (Woodland Sector): 134.200

3CK/KBUU CTAF (Archives)
Burlington, Wisconsin, United States

Feed Status: UP
Listen in your browser - HTML5 player(in browser, HTML5)
Click here to listen with your own player(launches your MP3 player)

K3CK Airport Info (Airnav.com)

K3CK Flight Activity (Flightaware)

Listeners: 0 out of 820 total

Lake in the Hills CTAF: 123.050

KBVI ATIS (Archives)
Beaver Falls, Pennsylvania, United States

Feed Status: UP
Listen in your browser - HTML5 player(in browser, HTML5)
Click here to listen with your own player(launches your MP3 player)

KBVI 270815Z AUTO 00000KT 7SM BKN006 OVC014 08/06 A3023 RMK AO2 T00800061

KBVI Airport Info (Airnav.com)

KBVI Flight Activity (Flightaware)

Listeners: 0 out of 820 total

Beaver County ATIS: 118.350

KBVI Ground (Archives)
Beaver Falls, Pennsylvania, United States

Feed Status: UP
Listen in your browser - HTML5 player(in browser, HTML5)
Click here to listen with your own player(launches your MP3 player)

KBVI 270815Z AUTO 00000KT 7SM BKN006 OVC014 08/06 A3023 RMK AO2 T00800061

KBVI Airport Info (Airnav.com)

KBVI Flight Activity (Flightaware)

Listeners: 0 out of 820 total

Beaver County Clearance (when Tower closed): 124.850
Beaver County Ground: 121.800

KBVI Ground/Tower (Archives)
Beaver Falls, Pennsylvania, United States

Feed Status: UP
Listen in your browser - HTML5 player(in browser, HTML5)
Click here to listen with your own player(launches your MP3 player)

KBVI 270815Z AUTO 00000KT 7SM BKN006 OVC014 08/06 A3023 RMK AO2 T00800061

KBVI Airport Info (Airnav.com)

KBVI Flight Activity (Flightaware)

Listeners: 0 out of 820 total

Beaver County Clearance (when Tower closed): 124.850
Beaver County Ground: 121.800
Beaver County Tower: 120.300

KBVI Tower (Archives)
Beaver Falls, Pennsylvania, United States

Feed Status: UP
Listen in your browser - HTML5 player(in browser, HTML5)
Click here to listen with your own player(launches your MP3 player)

KBVI 270815Z AUTO 00000KT 7SM BKN006 OVC014 08/06 A3023 RMK AO2 T00800061

KBVI Airport Info (Airnav.com)

KBVI Flight Activity (Flightaware)

Listeners: 0 out of 820 total

Beaver County Tower: 120.300

KBVI Tower (Archives)
Beaver Falls, Pennsylvania, United States

Feed Status: UP
Listen in your browser - HTML5 player(in browser, HTML5)
Click here to listen with your own player(launches your MP3 player)

KBVI 270815Z AUTO 00000KT 7SM BKN006 OVC014 08/06 A3023 RMK AO2 T00800061

KBVI Airport Info (Airnav.com)

KBVI Flight Activity (Flightaware)

Listeners: 0 out of 820 total

Beaver County Tower: 120.300

KBVY ATIS (Archives)
Beverly, Massachusetts, United States

Feed Status: UP
Listen in your browser - HTML5 player(in browser, HTML5)
Click here to listen with your own player(launches your MP3 player)

KBVY 270801Z AUTO 32008KT 7SM SCT004 SCT012 OVC025 10/09 A3005 RMK AO2 T01000094

KBVY Airport Info (Airnav.com)

KBVY Flight Activity (Flightaware)

Listeners: 0 out of 820 total

Beverly ATIS: 119.200

KBVY Ground (Archives)
Beverly, Massachusetts, United States

Feed Status: UP
Listen in your browser - HTML5 player(in browser, HTML5)
Click here to listen with your own player(launches your MP3 player)

KBVY 270801Z AUTO 32008KT 7SM SCT004 SCT012 OVC025 10/09 A3005 RMK AO2 T01000094

KBVY Airport Info (Airnav.com)

KBVY Flight Activity (Flightaware)

Listeners: 0 out of 820 total

Beverly Ground: 121.600

KBVY Tower #1 (Archives)
Beverly, Massachusetts, United States

Feed Status: UP
Listen in your browser - HTML5 player(in browser, HTML5)
Click here to listen with your own player(launches your MP3 player)

KBVY 270801Z AUTO 32008KT 7SM SCT004 SCT012 OVC025 10/09 A3005 RMK AO2 T01000094

KBVY Airport Info (Airnav.com)

KBVY Flight Activity (Flightaware)

Listeners: 0 out of 820 total

Beverly Tower: 125.200

KBVY Tower #2 (Archives)
Beverly, Massachusetts, United States

Feed Status: UP
Listen in your browser - HTML5 player(in browser, HTML5)
Click here to listen with your own player(launches your MP3 player)

KBVY 270801Z AUTO 32008KT 7SM SCT004 SCT012 OVC025 10/09 A3005 RMK AO2 T01000094

KBVY Airport Info (Airnav.com)

KBVY Flight Activity (Flightaware)

Listeners: 0 out of 820 total

Beverly Tower: 125.200

KBXM CTAF/AWOS (Archives)
Brunswick, Maine, United States

Feed Status: UP
Listen in your browser - HTML5 player(in browser, HTML5)
Click here to listen with your own player(launches your MP3 player)

KBXM Airport Info (Airnav.com)

KBXM Flight Activity (Flightaware)

Listeners: 0 out of 820 total

Brunswick CTAF/UNICOM: 122.725
Clearance (GCO): 121.725
KBXM AWOS: 134.875

KBZN App/Dep (Archives)
Bozeman, Montana, United States

Feed Status: UP
Listen in your browser - HTML5 player(in browser, HTML5)
Click here to listen with your own player(launches your MP3 player)

KBZN 270756Z AUTO 20003KT 10SM OVC050 M07/M10 A3021 RMK AO2 SLP294 T10671100

KBZN Airport Info (Airnav.com)

KBZN Flight Activity (Flightaware)

Listeners: 0 out of 820 total

Big Sky Approach/Departure: 118.975

KBZN ATIS (Archives)
Bozeman, Montana, United States

Feed Status: UP
Listen in your browser - HTML5 player(in browser, HTML5)
Click here to listen with your own player(launches your MP3 player)

KBZN 270756Z AUTO 20003KT 10SM OVC050 M07/M10 A3021 RMK AO2 SLP294 T10671100

KBZN Airport Info (Airnav.com)

KBZN Flight Activity (Flightaware)

Listeners: 0 out of 820 total

Bozeman ATIS: 135.425

KBZN Ground (Archives)
Bozeman, Montana, United States

Feed Status: UP
Listen in your browser - HTML5 player(in browser, HTML5)
Click here to listen with your own player(launches your MP3 player)

KBZN 270756Z AUTO 20003KT 10SM OVC050 M07/M10 A3021 RMK AO2 SLP294 T10671100

KBZN Airport Info (Airnav.com)

KBZN Flight Activity (Flightaware)

Listeners: 0 out of 820 total

Bozeman Ground: 121.800

KBZN Tower #1
Bozeman, Montana, United States

Feed Status: DOWN
Offline since: 2019-12-19 20:24:05 UTC

KBZN 270756Z AUTO 20003KT 10SM OVC050 M07/M10 A3021 RMK AO2 SLP294 T10671100

KBZN Airport Info (Airnav.com)

Bozeman Tower/CTAF: 118.200

KBZN Tower #2 (Archives)
Bozeman, Montana, United States

Feed Status: UP
Listen in your browser - HTML5 player(in browser, HTML5)
Click here to listen with your own player(launches your MP3 player)

KBZN 270756Z AUTO 20003KT 10SM OVC050 M07/M10 A3021 RMK AO2 SLP294 T10671100

KBZN Airport Info (Airnav.com)

KBZN Flight Activity (Flightaware)

Listeners: 0 out of 820 total

Bozeman Tower/CTAF: 118.200

KCCB CTAF
Upland, California, United States

Feed Status: DOWN
Offline since: 2020-10-26 17:38:22 UTC

KCCB Airport Info (Airnav.com)

Upland CTAF: 123.000

KCCO Area Air-to-Air (Archives)
Atlanta, Georgia, United States

Feed Status: UP
Listen in your browser - HTML5 player(in browser, HTML5)
Click here to listen with your own player(launches your MP3 player)

KCCO 270815Z AUTO 09004KT 1SM BR OVC003 20/18 A3015 RMK AO2 T01950180

KCCO Airport Info (Airnav.com)

KCCO Flight Activity (Flightaware)

Listeners: 0 out of 820 total

Newnan Area Air to Air: 123.450

KCCO AWOS (Archives)
Atlanta, Georgia, United States

Feed Status: UP
Listen in your browser - HTML5 player(in browser, HTML5)
Click here to listen with your own player(launches your MP3 player)

KCCO 270815Z AUTO 09004KT 1SM BR OVC003 20/18 A3015 RMK AO2 T01950180

KCCO Airport Info (Airnav.com)

KCCO Flight Activity (Flightaware)

Listeners: 0 out of 820 total

Newnan AWOS: 118.975

KCCO CTAF (Archives)
Atlanta, Georgia, United States

Feed Status: UP
Listen in your browser - HTML5 player(in browser, HTML5)
Click here to listen with your own player(launches your MP3 player)

KCCO 270815Z AUTO 09004KT 1SM BR OVC003 20/18 A3015 RMK AO2 T01950180

KCCO Airport Info (Airnav.com)

KCCO Flight Activity (Flightaware)

Listeners: 0 out of 820 total

Emergency/Guard: 121.500
Flight School Company Channel: 123.300
Newnan CTAF: 122.700

KCCO Emergency/Guard (Archives)
Atlanta, Georgia, United States

Feed Status: UP
Listen in your browser - HTML5 player(in browser, HTML5)
Click here to listen with your own player(launches your MP3 player)

KCCO 270815Z AUTO 09004KT 1SM BR OVC003 20/18 A3015 RMK AO2 T01950180

KCCO Airport Info (Airnav.com)

KCCO Flight Activity (Flightaware)

Listeners: 0 out of 820 total

Emergency/Guard: 121.500

KCCR Gnd/Twr (Archives)
Concord, California, United States

Feed Status: UP
Listen in your browser - HTML5 player(in browser, HTML5)
Click here to listen with your own player(launches your MP3 player)

KCCR 270753Z AUTO 00000KT 10SM CLR 11/M06 A3011 RMK AO2 SLP182 T01061056 402440100

KCCR Airport Info (Airnav.com)

KCCR Flight Activity (Flightaware)

Listeners: 0 out of 820 total

Concord Ground: 121.900
Concord Tower: 119.700

KCDC CTAF
Cedar City, Utah, United States

Feed Status: DOWN
Offline since: 2020-10-27 08:56:21 UTC

KCDC 270753Z AUTO 33004KT 10SM CLR M08/M17 A3016 RMK AO2 SLP238 T10781172

KCDC Airport Info (Airnav.com)

Cedar City CTAF: 123.000

51FL/KCDK/KCTY/X60 CTAF
Cedar Key, Florida, United States

Feed Status: DOWN
Offline since: 2020-09-10 03:08:21 UTC

Cedar Key CTAF: 122.900
Cross City CTAF: 122.800
Emergency/Guard: 121.500
Jacksonville Approach/Departure: 118.600
Jacksonville Center: 127.800
Williston CTAF: 122.975

KCDW Del/Gnd/Twr (Archives)
Caldwell, New Jersey, United States

Feed Status: UP
Listen in your browser - HTML5 player(in browser, HTML5)
Click here to listen with your own player(launches your MP3 player)

KCDW 270753Z AUTO 00000KT 3/4SM BR OVC002 14/13 A3009 RMK AO2 SLP194 T01390133 $

KCDW Airport Info (Airnav.com)

KCDW Flight Activity (Flightaware)

Listeners: 0 out of 820 total

Caldwell Clearance: 121.100
Caldwell Ground: 121.900
Caldwell Tower: 119.800

KCEU CTAF/App
Clemson, South Carolina, United States

Feed Status: DOWN
Offline since: 2019-10-13 21:53:39 UTC

KCEU Airport Info (Airnav.com)

CTAF: 122.700
Greer Approach/Departure: 118.800

KCEZ CTAF/ZDV
Cortez, Colorado, United States

Feed Status: DOWN
Offline since: 2020-06-20 20:36:22 UTC

KCEZ 270753Z AUTO 04005KT 10SM CLR M09/M12 A3006 RMK AO2 SLP202 T10941117

KCEZ Airport Info (Airnav.com)

Cortez CTAF: 122.800
Denver Center (Sector 36 Farmington Low): 118.575
Emergency/Guard: 121.500

KCFD CTAF/App (Archives)
Bryan, Texas, United States

Feed Status: UP
Listen in your browser - HTML5 player(in browser, HTML5)
Click here to listen with your own player(launches your MP3 player)

KCFD 270815Z AUTO 34008G14KT 5SM BR OVC003 08/08 A3008 RMK AO2 T00780078

KCFD Airport Info (Airnav.com)

KCFD Flight Activity (Flightaware)

Listeners: 0 out of 820 total

Bryan CTAF/UNICOM: 123.000
Houston Approach/Departure: 134.300

KCFJ CTAF (Archives)
Crawfordsville, Indiana, United States

Feed Status: UP
Listen in your browser - HTML5 player(in browser, HTML5)
Click here to listen with your own player(launches your MP3 player)

KCFJ 261255Z AUTO 00000KT 10SM OVC017 05/03 A3016 RMK AO2 T00450028

KCFJ Airport Info (Airnav.com)

KCFJ Flight Activity (Flightaware)

Listeners: 0 out of 820 total

Crawfordsville CTAF: 122.800

KCFJ Emergency/Guard (Archives)
Crawfordsville, Indiana, United States

Feed Status: UP
Listen in your browser - HTML5 player(in browser, HTML5)
Click here to listen with your own player(launches your MP3 player)

KCFJ 261255Z AUTO 00000KT 10SM OVC017 05/03 A3016 RMK AO2 T00450028

KCFJ Airport Info (Airnav.com)

KCFJ Flight Activity (Flightaware)

Listeners: 0 out of 820 total

Emergency/Guard: 121.500

KCGZ AWOS (Archives)
Casa Grande, Arizona, United States

Feed Status: UP
Listen in your browser - HTML5 player(in browser, HTML5)
Click here to listen with your own player(launches your MP3 player)

KCGZ 270756Z AUTO 03004KT 10SM CLR 08/M09 A2990 RMK AO2 SLP122 T00781089

KCGZ Airport Info (Airnav.com)

KCGZ Flight Activity (Flightaware)

Listeners: 0 out of 820 total

Casa Grande AWOS: 132.175

KCGZ CTAF (Archives)
Casa Grande, Arizona, United States

Feed Status: UP
Listen in your browser - HTML5 player(in browser, HTML5)
Click here to listen with your own player(launches your MP3 player)

KCGZ 270756Z AUTO 03004KT 10SM CLR 08/M09 A2990 RMK AO2 SLP122 T00781089

KCGZ Airport Info (Airnav.com)

KCGZ Flight Activity (Flightaware)

Listeners: 0 out of 820 total

Casa Grande CTAF: 122.700

KCGZ SE/SW Practice Area (Archives)
Casa Grande, Arizona, United States

Feed Status: UP
Listen in your browser - HTML5 player(in browser, HTML5)
Click here to listen with your own player(launches your MP3 player)

KCGZ 270756Z AUTO 03004KT 10SM CLR 08/M09 A2990 RMK AO2 SLP122 T00781089

KCGZ Airport Info (Airnav.com)

KCGZ Flight Activity (Flightaware)

Listeners: 0 out of 820 total

Casa Grande SE Practice Area: 122.850

KCHD Tower (North) (Archives)
Chandler, Arizona, United States

Feed Status: UP
Listen in your browser - HTML5 player(in browser, HTML5)
Click here to listen with your own player(launches your MP3 player)

KCHD 270347Z 03009KT 10SM FEW100 13/M05 A2988 RMK LAST

KCHD Airport Info (Airnav.com)

KCHD Flight Activity (Flightaware)

Listeners: 0 out of 820 total

Chandler Tower (North): 126.100

KCHD Tower (South) (Archives)
Chandler, Arizona, United States

Feed Status: UP
Listen in your browser - HTML5 player(in browser, HTML5)
Click here to listen with your own player(launches your MP3 player)

KCHD 270347Z 03009KT 10SM FEW100 13/M05 A2988 RMK LAST

KCHD Airport Info (Airnav.com)

KCHD Flight Activity (Flightaware)

Listeners: 0 out of 820 total

Chandler Tower (South): 133.100

KCHK CTAF
Chickasha, Oklahoma, United States

Feed Status: DOWN
Offline since: 2020-10-27 04:54:05 UTC

KCHK 270815Z AUTO 02006KT 10SM OVC009 M02/M03 A3023 RMK AO2 T10211034

KCHK Airport Info (Airnav.com)

Chickasha CTAF: 123.000

KCHO Tower (Archives)
Charlottesville, Virginia, United States

Feed Status: UP
Listen in your browser - HTML5 player(in browser, HTML5)
Click here to listen with your own player(launches your MP3 player)

KCHO 270803Z AUTO 00000KT 3/4SM BR BKN004 BKN060 BKN075 14/13 A3014 RMK AO2 T01390128

KCHO Airport Info (Airnav.com)

KCHO Flight Activity (Flightaware)

Listeners: 0 out of 820 total

Charlottesville Tower: 124.500

KCHO Tower/App (Archives)
Charlottesville, Virginia, United States

Feed Status: UP
Listen in your browser - HTML5 player(in browser, HTML5)
Click here to listen with your own player(launches your MP3 player)

KCHO 270803Z AUTO 00000KT 3/4SM BR BKN004 BKN060 BKN075 14/13 A3014 RMK AO2 T01390128

KCHO Airport Info (Airnav.com)

KCHO Flight Activity (Flightaware)

Listeners: 0 out of 820 total

Charlottesville Tower: 124.500
Potomac Approach/Departure: 132.850

KCIC Tower/ZOA42 (Archives)
Chico, California, United States

Feed Status: UP
Listen in your browser - HTML5 player(in browser, HTML5)
Click here to listen with your own player(launches your MP3 player)

KCIC 270815Z AUTO 31005KT 10SM CLR 13/M17 A3018 RMK AO1

KCIC Airport Info (Airnav.com)

KCIC Flight Activity (Flightaware)

Listeners: 1 out of 820 total

Chico CTAF/Tower: 121.000
Oakland Center (Sector 42 Low): 132.200

KCID Gnd/Twr/App/KIOW (Archives)
Cedar Rapids, Iowa, United States

Feed Status: UP
Listen in your browser - HTML5 player(in browser, HTML5)
Click here to listen with your own player(launches your MP3 player)

KCID 270752Z AUTO 34010KT 10SM OVC095 M03/M07 A3036 RMK AO2 SLP292 T10281072

KCID Airport Info (Airnav.com)

KCID Flight Activity (Flightaware)

Listeners: 0 out of 820 total

Cedar Rapids Approach (091-269): 119.700
Cedar Rapids Approach (270-090): 134.050
Cedar Rapids Clearance Delivery: 125.450
Cedar Rapids Ground (0500-2330): 121.600
Cedar Rapids Tower (0500-2330): 118.700
UNICOM C17 (Marion) and surrounding area: 122.700
UNICOM IA24 Green Castle: 122.900
UNICOM KIOW (Iowa City) and surrounding area: 122.800

KCIU CTAF (Air Race Classic)
Sault Ste Marie, Michigan, United States

Feed Status: DOWN
Offline since: 2019-06-24 17:12:02 UTC

Chippewa CTAF: 123.000

KCKB App/Dep (Archives)
Clarksburg, West Virginia, United States

Feed Status: UP
Listen in your browser - HTML5 player(in browser, HTML5)
Click here to listen with your own player(launches your MP3 player)

KCKB 270753Z AUTO 00000KT 8SM OVC007 11/09 A3020 RMK AO2 SLP221 T01060094 TSNO

KCKB Airport Info (Airnav.com)

KCKB Flight Activity (Flightaware)

Listeners: 0 out of 820 total

Clarksburg Approach (East): 121.150
Clarksburg Approach (West): 119.600

KCKB App/Dep (East) (Archives)
Clarksburg, West Virginia, United States

Feed Status: UP
Listen in your browser - HTML5 player(in browser, HTML5)
Click here to listen with your own player(launches your MP3 player)

KCKB 270753Z AUTO 00000KT 8SM OVC007 11/09 A3020 RMK AO2 SLP221 T01060094 TSNO

KCKB Airport Info (Airnav.com)

KCKB Flight Activity (Flightaware)

Listeners: 0 out of 820 total

Clarksburg Approach (East): 121.150

KCKB App/Dep (West) (Archives)
Clarksburg, West Virginia, United States

Feed Status: UP
Listen in your browser - HTML5 player(in browser, HTML5)
Click here to listen with your own player(launches your MP3 player)

KCKB 270753Z AUTO 00000KT 8SM OVC007 11/09 A3020 RMK AO2 SLP221 T01060094 TSNO

KCKB Airport Info (Airnav.com)

KCKB Flight Activity (Flightaware)

Listeners: 0 out of 820 total

Clarksburg Approach (West): 119.600

KCKB Emergency/Guard (Archives)
Clarksburg, West Virginia, United States

Feed Status: UP
Listen in your browser - HTML5 player(in browser, HTML5)
Click here to listen with your own player(launches your MP3 player)

KCKB 270753Z AUTO 00000KT 8SM OVC007 11/09 A3020 RMK AO2 SLP221 T01060094 TSNO

KCKB Airport Info (Airnav.com)

KCKB Flight Activity (Flightaware)

Listeners: 0 out of 820 total

Emergency/Guard: 121.500

KCKB Ground (Archives)
Clarksburg, West Virginia, United States

Feed Status: UP
Listen in your browser - HTML5 player(in browser, HTML5)
Click here to listen with your own player(launches your MP3 player)

KCKB 270753Z AUTO 00000KT 8SM OVC007 11/09 A3020 RMK AO2 SLP221 T01060094 TSNO

KCKB Airport Info (Airnav.com)

KCKB Flight Activity (Flightaware)

Listeners: 0 out of 820 total

Clarksburg Ground: 121.900

KCKB Ground/Tower (Archives)
Clarksburg, West Virginia, United States

Feed Status: UP
Listen in your browser - HTML5 player(in browser, HTML5)
Click here to listen with your own player(launches your MP3 player)

KCKB 270753Z AUTO 00000KT 8SM OVC007 11/09 A3020 RMK AO2 SLP221 T01060094 TSNO

KCKB Airport Info (Airnav.com)

KCKB Flight Activity (Flightaware)

Listeners: 0 out of 820 total

Clarksburg Ground: 121.900
Clarksburg Tower: 126.700

KCKB Tower (Archives)
Clarksburg, West Virginia, United States

Feed Status: UP
Listen in your browser - HTML5 player(in browser, HTML5)
Click here to listen with your own player(launches your MP3 player)

KCKB 270753Z AUTO 00000KT 8SM OVC007 11/09 A3020 RMK AO2 SLP221 T01060094 TSNO

KCKB Airport Info (Airnav.com)

KCKB Flight Activity (Flightaware)

Listeners: 0 out of 820 total

Clarksburg Tower: 126.700

KCLM Del/CTAF/App (Archives)
Port Angeles, Washington, United States

Feed Status: UP
Listen in your browser - HTML5 player(in browser, HTML5)
Click here to listen with your own player(launches your MP3 player)

KCLM 270753Z AUTO 00000KT 9SM OVC031 07/03 A3045 RMK AO2 SLP312 T00670033 400830006

KCLM Airport Info (Airnav.com)

KCLM Flight Activity (Flightaware)

Listeners: 0 out of 820 total

Clearance Delivery: 124.150
Fairchild CTAF: 122.975
Seattle Radio (Port Angeles RCO): 122.600
Whidbey Approach: 118.200

KCMA ATIS (Archives)
Camarillo, California, United States

Feed Status: UP
Listen in your browser - HTML5 player(in browser, HTML5)
Click here to listen with your own player(launches your MP3 player)

KCMA 270755Z AUTO 07003KT 10SM CLR 11/00 A3007 RMK AO2 SLP191 T01060000 402610100

KCMA Airport Info (Airnav.com)

KCMA Flight Activity (Flightaware)

Listeners: 0 out of 820 total

Camarillo ATIS: 126.025

KCMA Gnd/Twr/App (Archives)
Camarillo, California, United States

Feed Status: UP
Listen in your browser - HTML5 player(in browser, HTML5)
Click here to listen with your own player(launches your MP3 player)

KCMA 270755Z AUTO 07003KT 10SM CLR 11/00 A3007 RMK AO2 SLP191 T01060000 402610100

KCMA Airport Info (Airnav.com)

KCMA Flight Activity (Flightaware)

Listeners: 0 out of 820 total

Camarillo Ground: 121.800
Camarillo Tower: 128.200
Point Mugu Approach: 124.700

KWDR/KCVC/KCNI CTAF (Archives)
Canton, Georgia, United States

Feed Status: UP
Listen in your browser - HTML5 player(in browser, HTML5)
Click here to listen with your own player(launches your MP3 player)

KWDR 270815Z AUTO 00000KT 3SM BR OVC003 17/16 A3020 RMK AO2

KWDR Airport Info (Airnav.com)

KWDR Flight Activity (Flightaware)

Listeners: 0 out of 820 total

KWDR/KCVC/KCNI CTAF: 123.000

KCNO Ground (Archives)
Chino, California, United States

Feed Status: UP
Listen in your browser - HTML5 player(in browser, HTML5)
Click here to listen with your own player(launches your MP3 player)

KCNO 270753Z AUTO 00000KT 6SM HZ CLR 10/M08 A3007 RMK AO2 SLP180 T01001078 402220089 $

KCNO Airport Info (Airnav.com)

KCNO Flight Activity (Flightaware)

Listeners: 0 out of 820 total

Chino Ground: 121.600

KCNO Ground/Tower (Archives)
Chino, California, United States

Feed Status: UP
Listen in your browser - HTML5 player(in browser, HTML5)
Click here to listen with your own player(launches your MP3 player)

KCNO 270753Z AUTO 00000KT 6SM HZ CLR 10/M08 A3007 RMK AO2 SLP180 T01001078 402220089 $

KCNO Airport Info (Airnav.com)

KCNO Flight Activity (Flightaware)

Listeners: 0 out of 820 total

Chino Ground: 121.600
Chino Tower: 118.500

KCNO Tower (Archives)
Chino, California, United States

Feed Status: UP
Listen in your browser - HTML5 player(in browser, HTML5)
Click here to listen with your own player(launches your MP3 player)

KCNO 270753Z AUTO 00000KT 6SM HZ CLR 10/M08 A3007 RMK AO2 SLP180 T01001078 402220089 $

KCNO Airport Info (Airnav.com)

KCNO Flight Activity (Flightaware)

Listeners: 0 out of 820 total

Chino Tower: 118.500

KCON/KFIT CTAF (Archives)
Concord, New Hampshire, United States

Feed Status: UP
Listen in your browser - HTML5 player(in browser, HTML5)
Click here to listen with your own player(launches your MP3 player)

KMHT 270753Z 00000KT 10SM SCT032 BKN042 OVC075 08/07 A3005 RMK AO2 SLP190 T00830067

KMHT Airport Info (Airnav.com)

KMHT Flight Activity (Flightaware)

Listeners: 0 out of 820 total

Concord NH/Fitchburg MA CTAF: 122.700

MA/NH/RI/CT Area CTAF (Archives)
Concord, New Hampshire, United States

Feed Status: UP
Listen in your browser - HTML5 player(in browser, HTML5)
Click here to listen with your own player(launches your MP3 player)

KBOS 270754Z 29007KT 6SM BR SCT005 BKN019 OVC025 11/09 A3007 RMK AO2 CIG 005 E SLP180 T01060094

KBOS Airport Info (Airnav.com)

KBOS Flight Activity (Flightaware)

Listeners: 0 out of 820 total

Air-to-Air: 122.750
Bridgeport Flight Service: 122.200
CTAF: 122.700
CTAF: 122.800
CTAF: 122.900
CTAF: 123.000
Emergency/Guard: 121.500

MA/NH/RI/CT Area CTAF (Archives)
Concord, New Hampshire, United States

Feed Status: UP
Listen in your browser - HTML5 player(in browser, HTML5)
Click here to listen with your own player(launches your MP3 player)

KBOS 270754Z 29007KT 6SM BR SCT005 BKN019 OVC025 11/09 A3007 RMK AO2 CIG 005 E SLP180 T01060094

KBOS Airport Info (Airnav.com)

KBOS Flight Activity (Flightaware)

Listeners: 0 out of 820 total

Air-to-Air: 122.750
Bridgeport Flight Service: 122.200
CTAF: 122.700
CTAF: 122.800
CTAF: 122.900
CTAF: 123.000
Emergency/Guard: 121.500

MA/NH/RI/CT Area CTAF (Archives)
Concord, New Hampshire, United States

Feed Status: UP
Listen in your browser - HTML5 player(in browser, HTML5)
Click here to listen with your own player(launches your MP3 player)

KBOS 270754Z 29007KT 6SM BR SCT005 BKN019 OVC025 11/09 A3007 RMK AO2 CIG 005 E SLP180 T01060094

KBOS Airport Info (Airnav.com)

KBOS Flight Activity (Flightaware)

Listeners: 0 out of 820 total

Air-to-Air: 122.750
Bridgeport Flight Service: 122.200
CTAF: 122.700
CTAF: 122.800
CTAF: 122.900
CTAF: 123.000
Emergency/Guard: 121.500

KCOU CTAF/Gnd/App (Archives)
Columbia, Missouri, United States

Feed Status: UP
Listen in your browser - HTML5 player(in browser, HTML5)
Click here to listen with your own player(launches your MP3 player)

KCOU 270824Z AUTO 02009KT 3SM -FZRA BR OVC006 00/M01 A3032 RMK AO2 FZRAB18 CIG 004V009 PRESFR P0000 I1001 T00001011

KCOU Airport Info (Airnav.com)

KCOU Flight Activity (Flightaware)

Listeners: 0 out of 820 total

Columbia CTAF: 119.300
Columbia Ground: 121.600
Columbia UNICOM: 122.950
Mizzou Approach/Departure: 124.375

KCPM CTAF (Archives)
Compton, California, United States

Feed Status: UP
Listen in your browser - HTML5 player(in browser, HTML5)
Click here to listen with your own player(launches your MP3 player)

KCPM Airport Info (Airnav.com)

KCPM Flight Activity (Flightaware)

Listeners: 0 out of 820 total

Compton CTAF: 123.050

KCPR Tower/App (Archives)
Casper, Wyoming, United States

Feed Status: UP
Listen in your browser - HTML5 player(in browser, HTML5)
Click here to listen with your own player(launches your MP3 player)

KCPR 270753Z AUTO 21018KT 10SM CLR M07/M15 A3011 RMK AO2 PK WND 21026/0750 SLP249 T10721150

KCPR Airport Info (Airnav.com)

KCPR Flight Activity (Flightaware)

Listeners: 0 out of 820 total

Casper Approach: 120.650
Casper Tower: 118.300

KCPS Del/Gnd/Twr/App (Archives)
Cahokia/St Louis, Illinois, United States

Feed Status: UP
Listen in your browser - HTML5 player(in browser, HTML5)
Click here to listen with your own player(launches your MP3 player)

KCPS 270753Z AUTO 02008KT 6SM BR BKN006 OVC011 03/03 A3031 RMK AO2 CIG 004V008 SLP267 P0001 T00330028

KCPS Airport Info (Airnav.com)

KCPS Flight Activity (Flightaware)

Listeners: 0 out of 820 total

Downtown Clearance Delivery: 118.275
Downtown Ground: 121.800
Downtown Tower: 119.925
St. Louis Approach/Departure: 123.700

KCQF CTAF/Misc (Archives)
Fairhope, Alabama, United States

Feed Status: UP
Listen in your browser - HTML5 player(in browser, HTML5)
Click here to listen with your own player(launches your MP3 player)

KCQF 270815Z AUTO 03003KT 10SM CLR 20/18 A3000 RMK AO2

KCQF Airport Info (Airnav.com)

KCQF Flight Activity (Flightaware)

Listeners: 0 out of 820 total

Emergency/Guard: 121.500
Fairhope CTAF: 123.000

5B6/KCQX/KPVC CTAF (Archives)
Chatham, Massachusetts, United States

Feed Status: UP
Listen in your browser - HTML5 player(in browser, HTML5)
Click here to listen with your own player(launches your MP3 player)

KHYA 270756Z AUTO 25005KT 1/2SM FG VV002 15/15 A3003 RMK AO2 SLP169 T01500150

KHYA Airport Info (Airnav.com)

KHYA Flight Activity (Flightaware)

Listeners: 0 out of 820 total

Falmouth/Chatham/Provincetown CTAF: 122.800

KCRE Ground/Tower (Archives)
North Myrtle Beach, South Carolina, United States

Feed Status: UP
Listen in your browser - HTML5 player(in browser, HTML5)
Click here to listen with your own player(launches your MP3 player)

KCRE 270753Z AUTO 00000KT 7SM CLR 15/15 A3015 RMK AO1 SLP211 T01500150

KCRE Airport Info (Airnav.com)

KCRE Flight Activity (Flightaware)

Listeners: 0 out of 820 total

Strand Ground: 121.800
Strand Tower: 124.600

KCRG Gnd/Twr/App (Archives)
Jacksonville, Florida, United States

Feed Status: UP
Listen in your browser - HTML5 player(in browser, HTML5)
Click here to listen with your own player(launches your MP3 player)

KCRG 270753Z AUTO 06004KT 10SM OVC060 25/23 A3009 RMK AO2 RAB39E48 SLP188 P0000 T02500233

KCRG Airport Info (Airnav.com)

KCRG Flight Activity (Flightaware)

Listeners: 0 out of 820 total

Craig Clearance: 118.350
Craig Ground: 121.800
Craig Tower: 132.100
Jacksonville Approach: 118.000
Jacksonville Approach: 124.900

KCRQ Tower (Archives)
Carlsbad, California, United States

Feed Status: UP
Listen in your browser - HTML5 player(in browser, HTML5)
Click here to listen with your own player(launches your MP3 player)

KCRQ 270753Z AUTO 10004KT 10SM CLR 12/M13 A3004 RMK AO2 SLP169 T01171133 402440117

KCRQ Airport Info (Airnav.com)

KCRQ Flight Activity (Flightaware)

Listeners: 2 out of 820 total

Palomar Tower: 118.600

KCTJ/KLGC CTAF (Archives)
Carrollton, Georgia, United States

Feed Status: UP
Listen in your browser - HTML5 player(in browser, HTML5)
Click here to listen with your own player(launches your MP3 player)

KCCO 270815Z AUTO 09004KT 1SM BR OVC003 20/18 A3015 RMK AO2 T01950180

KCCO Airport Info (Airnav.com)

KCCO Flight Activity (Flightaware)

Listeners: 0 out of 820 total

KCTJ/KLGC CTAF: 122.975

51FL/KCDK/KCTY/X60 CTAF
Cross City, Florida, United States

Feed Status: DOWN
Offline since: 2020-09-10 03:08:21 UTC

Cedar Key CTAF: 122.900
Cross City CTAF: 122.800
Emergency/Guard: 121.500
Jacksonville Approach/Departure: 118.600
Jacksonville Center: 127.800
Williston CTAF: 122.975

KCUB CTAF (Archives)
Columbia, South Carolina, United States

Feed Status: UP
Listen in your browser - HTML5 player(in browser, HTML5)
Click here to listen with your own player(launches your MP3 player)

KCUB 270753Z AUTO 00000KT 10SM FEW003 15/14 A3017 RMK AO2 SLP214 T01500144 TSNO

KCUB Airport Info (Airnav.com)

KCUB Flight Activity (Flightaware)

Listeners: 0 out of 820 total

Columbia CTAF: 123.075

KWDR/KCVC/KCNI CTAF (Archives)
Atlanta, Georgia, United States

Feed Status: UP
Listen in your browser - HTML5 player(in browser, HTML5)
Click here to listen with your own player(launches your MP3 player)

KWDR 270815Z AUTO 00000KT 3SM BR OVC003 17/16 A3020 RMK AO2

KWDR Airport Info (Airnav.com)

KWDR Flight Activity (Flightaware)

Listeners: 0 out of 820 total

KWDR/KCVC/KCNI CTAF: 123.000

KCVO CTAF/Misc (Archives)
Corvallis, Oregon, United States

Feed Status: UP
Listen in your browser - HTML5 player(in browser, HTML5)
Click here to listen with your own player(launches your MP3 player)

KCVO 270756Z AUTO 00000KT 10SM CLR M01/M02 A3045 RMK AO2 SLP313 T10061022 401331056 FZRANO

KCVO Airport Info (Airnav.com)

KCVO Flight Activity (Flightaware)

Listeners: 1 out of 820 total

Cascade Approach: 127.500
Cascade Approach: 119.600
Corvallis CTAF: 123.075
Seattle Center (Sector 6 Low): 125.800

KCXY Ground (Archives)
Harrisburg, Pennsylvania, United States

Feed Status: UP
Listen in your browser - HTML5 player(in browser, HTML5)
Click here to listen with your own player(launches your MP3 player)

KMDT 270756Z 32004KT 6SM BR BKN065 OVC085 12/11 A3014 RMK AO2 SLP206 T01220106

KMDT Airport Info (Airnav.com)

KMDT Flight Activity (Flightaware)

Listeners: 0 out of 820 total

Capital City Ground: 121.900

KCXY Ground/Tower (Archives)
Harrisburg, Pennsylvania, United States

Feed Status: UP
Listen in your browser - HTML5 player(in browser, HTML5)
Click here to listen with your own player(launches your MP3 player)

KMDT 270756Z 32004KT 6SM BR BKN065 OVC085 12/11 A3014 RMK AO2 SLP206 T01220106

KMDT Airport Info (Airnav.com)

KMDT Flight Activity (Flightaware)

Listeners: 0 out of 820 total

Capital City Ground: 121.900
Capital City Tower: 119.500

KCXY Tower (Archives)
Harrisburg, Pennsylvania, United States

Feed Status: UP
Listen in your browser - HTML5 player(in browser, HTML5)
Click here to listen with your own player(launches your MP3 player)

KMDT 270756Z 32004KT 6SM BR BKN065 OVC085 12/11 A3014 RMK AO2 SLP206 T01220106

KMDT Airport Info (Airnav.com)

KMDT Flight Activity (Flightaware)

Listeners: 0 out of 820 total

Capital City Tower: 119.500

KCYS Gnd/Twr/App/Center
Cheyenne, Wyoming, United States

Feed Status: DOWN
Offline since: 2020-10-04 20:10:39 UTC

KCYS 270753Z AUTO 28012KT 10SM CLR M16/M23 A3009 RMK AO2 SLP285 T11561228

KCYS Airport Info (Airnav.com)

Cheyenne Approach: 124.550
Cheyenne Ground: 121.900
Cheyenne Tower: 118.700
Denver Center (Sector 21 Cheyenne Low): 125.900
Emergency/Guard: 121.500

KDAA/KADW Tower (Archives)
Fort Belvoir, Virginia, United States

Feed Status: UP
Listen in your browser - HTML5 player(in browser, HTML5)
Click here to listen with your own player(launches your MP3 player)

KDAA 270826Z AUTO 00000KT 5/8SM R32/4000V4500FT BR VV002 14/13 A3014 RMK AO2 SLP209 $

KDAA Airport Info (Airnav.com)

KDAA Flight Activity (Flightaware)

Listeners: 0 out of 820 total

Andrews Tower: 118.400
Andrews Tower: 349.000
Davison Tower: 241.000
Davison Tower: 126.300
Davison Tower: 229.400

KDED CTAF/Misc (Archives)
DeLand, Florida, United States

Feed Status: UP
Listen in your browser - HTML5 player(in browser, HTML5)
Click here to listen with your own player(launches your MP3 player)

KDED 270810Z AUTO 00000KT 10SM CLR 23/22 A3007 RMK AO2 T02290222

KDED Airport Info (Airnav.com)

KDED Flight Activity (Flightaware)

Listeners: 0 out of 820 total

DeLand CTAF/UNICOM: 123.075
Skydive DeLand: 122.850

KDED/1J6 CTAF/UNICOM (Archives)
DeLand, Florida, United States

Feed Status: UP
Listen in your browser - HTML5 player(in browser, HTML5)
Click here to listen with your own player(launches your MP3 player)

KDED 270810Z AUTO 00000KT 10SM CLR 23/22 A3007 RMK AO2 T02290222

KDED Airport Info (Airnav.com)

KDED Flight Activity (Flightaware)

Listeners: 0 out of 820 total

DeLand CTAF/UNICOM: 123.075

Regional Approach (Feeder 2/East)
Dallas, Texas, United States

Feed Status: DOWN
Offline since: 2020-03-29 19:10:05 UTC

KRBD 261953Z 20011KT 10SM FEW045 30/18 A2985 RMK AO2 SLP099 T03000183

KRBD Airport Info (Airnav.com)

Regional Approach (Feeder 2/East): 133.525

KDLH Gnd/Twr/App (Archives)
Duluth, Minnesota, United States

Feed Status: UP
Listen in your browser - HTML5 player(in browser, HTML5)
Click here to listen with your own player(launches your MP3 player)

KDLH 270755Z 24007KT 10SM CLR M09/M13 A3022 RMK AO2 SLP263 T10941133

KDLH Airport Info (Airnav.com)

KDLH Flight Activity (Flightaware)

Listeners: 0 out of 820 total

Duluth Approach/Departure: 125.450
Duluth Ground: 121.900
Duluth Tower: 118.300

KDOV ATIS (Archives)
Dover, Delaware, United States

Feed Status: UP
Listen in your browser - HTML5 player(in browser, HTML5)
Click here to listen with your own player(launches your MP3 player)

KDOV 270826Z AUTO 28004KT 6SM BR OVC002 14/14 A3012 RMK AO2 SLP203 $

KDOV Airport Info (Airnav.com)

KDOV Flight Activity (Flightaware)

Listeners: 0 out of 820 total

Dover ATIS: 127.825

KDOV Gnd/App (Archives)
Dover, Delaware, United States

Feed Status: UP
Listen in your browser - HTML5 player(in browser, HTML5)
Click here to listen with your own player(launches your MP3 player)

KDOV 270826Z AUTO 28004KT 6SM BR OVC002 14/14 A3012 RMK AO2 SLP203 $

KDOV Airport Info (Airnav.com)

KDOV Flight Activity (Flightaware)

Listeners: 0 out of 820 total

Dover Approach/Departure: 132.425
Dover Ground: 118.875

KDOV Tower (Archives)
Dover, Delaware, United States

Feed Status: UP
Listen in your browser - HTML5 player(in browser, HTML5)
Click here to listen with your own player(launches your MP3 player)

KDOV 270826Z AUTO 28004KT 6SM BR OVC002 14/14 A3012 RMK AO2 SLP203 $

KDOV Airport Info (Airnav.com)

KDOV Flight Activity (Flightaware)

Listeners: 0 out of 820 total

Dover Tower: 126.350

KDPA ATIS (Archives)
Chicago, Illinois, United States

Feed Status: UP
Listen in your browser - HTML5 player(in browser, HTML5)
Click here to listen with your own player(launches your MP3 player)

KDPA 270752Z 00000KT 10SM SCT060 OVC085 02/M03 A3031 RMK AO2 SLP273 T00171033

KDPA Airport Info (Airnav.com)

KDPA Flight Activity (Flightaware)

Listeners: 0 out of 820 total

DuPage ATIS: 132.075

KDPA Chicago Approach (Archives)
Chicago, Illinois, United States

Feed Status: UP
Listen in your browser - HTML5 player(in browser, HTML5)
Click here to listen with your own player(launches your MP3 player)

KORD 270751Z 34004KT 10SM OVC050 02/M03 A3033 RMK AO2 SLP275 T00221033

KORD Airport Info (Airnav.com)

KORD Flight Activity (Flightaware)

Listeners: 0 out of 820 total

Chicago Approach/Departure: 133.500

KDPA Del/Gnd/Twr/Misc (Archives)
Chicago, Illinois, United States

Feed Status: UP
Listen in your browser - HTML5 player(in browser, HTML5)
Click here to listen with your own player(launches your MP3 player)

KDPA 270752Z 00000KT 10SM SCT060 OVC085 02/M03 A3031 RMK AO2 SLP273 T00171033

KDPA Airport Info (Airnav.com)

KDPA Flight Activity (Flightaware)

Listeners: 0 out of 820 total

DuPage Clearance Delivery: 119.750
DuPage Flight Center (FBO): 464.375
DuPage Ground: 121.800
DuPage Ground Operations: 469.5875
DuPage Ground Operations: 453.225
DuPage Ground Operations (Airport Authority): 453.500
DuPage Tower: 120.900
DuPage UNICOM ("Flight Center"): 122.950
Flight Service Station (FSS) RCO: 122.550

KDTO ASOS (Archives)
Denton, Texas, United States

Feed Status: UP
Listen in your browser - HTML5 player(in browser, HTML5)
Click here to listen with your own player(launches your MP3 player)

KDTO 270753Z AUTO 36010KT 4SM -SN BR OVC009 03/01 A3018 RMK AO2 RAE11B27E49SNB49 SLP220 P0000 T00280011

KDTO Airport Info (Airnav.com)

KDTO Flight Activity (Flightaware)

Listeners: 0 out of 820 total

Denton ASOS: 119.325

KDTO Gnd/Twr (Archives)
Denton, Texas, United States

Feed Status: UP
Listen in your browser - HTML5 player(in browser, HTML5)
Click here to listen with your own player(launches your MP3 player)

KDTO 270753Z AUTO 36010KT 4SM -SN BR OVC009 03/01 A3018 RMK AO2 RAE11B27E49SNB49 SLP220 P0000 T00280011

KDTO Airport Info (Airnav.com)

KDTO Flight Activity (Flightaware)

Listeners: 0 out of 820 total

Denton Ground: 123.950
Denton Tower: 119.950

KDTO Tower (Archives)
Denton, Texas, United States

Feed Status: UP
Listen in your browser - HTML5 player(in browser, HTML5)
Click here to listen with your own player(launches your MP3 player)

KDTO 270753Z AUTO 36010KT 4SM -SN BR OVC009 03/01 A3018 RMK AO2 RAE11B27E49SNB49 SLP220 P0000 T00280011

KDTO Airport Info (Airnav.com)

KDTO Flight Activity (Flightaware)

Listeners: 0 out of 820 total

Denton Tower: 119.950

KDVO CTAF (Archives)
Novato, California, United States

Feed Status: UP
Listen in your browser - HTML5 player(in browser, HTML5)
Click here to listen with your own player(launches your MP3 player)

KDVO 270815Z AUTO 00000KT 10SM CLR 10/M09 A3011 RMK AO2

KDVO Airport Info (Airnav.com)

KDVO Flight Activity (Flightaware)

Listeners: 0 out of 820 total

Novato CTAF: 123.075

KDVT ATIS (Archives)
Phoenix, Arizona, United States

Feed Status: UP
Listen in your browser - HTML5 player(in browser, HTML5)
Click here to listen with your own player(launches your MP3 player)

KDVT 270753Z AUTO 35009KT 10SM CLR 09/M12 A2990 RMK AO2 SLP116 T00891117

KDVT Airport Info (Airnav.com)

KDVT Flight Activity (Flightaware)

Listeners: 0 out of 820 total

Deer Valley ATIS: 126.500

KDVT Clearance Delivery (Archives)
Phoenix, Arizona, United States

Feed Status: UP
Listen in your browser - HTML5 player(in browser, HTML5)
Click here to listen with your own player(launches your MP3 player)

KDVT 270753Z AUTO 35009KT 10SM CLR 09/M12 A2990 RMK AO2 SLP116 T00891117

KDVT Airport Info (Airnav.com)

KDVT Flight Activity (Flightaware)

Listeners: 0 out of 820 total

Deer Valley Clearance Delivery: 123.900

KDVT Delivery/Ground (Archives)
Phoenix, Arizona, United States

Feed Status: UP
Listen in your browser - HTML5 player(in browser, HTML5)
Click here to listen with your own player(launches your MP3 player)

KDVT 270753Z AUTO 35009KT 10SM CLR 09/M12 A2990 RMK AO2 SLP116 T00891117

KDVT Airport Info (Airnav.com)

KDVT Flight Activity (Flightaware)

Listeners: 0 out of 820 total

Deer Valley Clearance Delivery: 123.900
Deer Valley Ground: 121.800

KDVT Ground (Archives)
Phoenix, Arizona, United States

Feed Status: UP
Listen in your browser - HTML5 player(in browser, HTML5)
Click here to listen with your own player(launches your MP3 player)

KDVT 270753Z AUTO 35009KT 10SM CLR 09/M12 A2990 RMK AO2 SLP116 T00891117

KDVT Airport Info (Airnav.com)

KDVT Flight Activity (Flightaware)

Listeners: 0 out of 820 total

Deer Valley Ground: 121.800

KDVT Tower (Both) (Archives)
Phoenix, Arizona, United States

Feed Status: UP
Listen in your browser - HTML5 player(in browser, HTML5)
Click here to listen with your own player(launches your MP3 player)

KDVT 270753Z AUTO 35009KT 10SM CLR 09/M12 A2990 RMK AO2 SLP116 T00891117

KDVT Airport Info (Airnav.com)

KDVT Flight Activity (Flightaware)

Listeners: 0 out of 820 total

Deer Valley Tower (North): 120.200
Deer Valley Tower (South): 118.400

KDVT Tower (North) (Archives)
Phoenix, Arizona, United States

Feed Status: UP
Listen in your browser - HTML5 player(in browser, HTML5)
Click here to listen with your own player(launches your MP3 player)

KDVT 270753Z AUTO 35009KT 10SM CLR 09/M12 A2990 RMK AO2 SLP116 T00891117

KDVT Airport Info (Airnav.com)

KDVT Flight Activity (Flightaware)

Listeners: 0 out of 820 total

Deer Valley Tower (North): 120.200

KDVT Tower (South) (Archives)
Phoenix, Arizona, United States

Feed Status: UP
Listen in your browser - HTML5 player(in browser, HTML5)
Click here to listen with your own player(launches your MP3 player)

KDVT 270753Z AUTO 35009KT 10SM CLR 09/M12 A2990 RMK AO2 SLP116 T00891117

KDVT Airport Info (Airnav.com)

KDVT Flight Activity (Flightaware)

Listeners: 0 out of 820 total

Deer Valley Tower (South): 118.400

KDWH Del/ Gnd/Twr (Archives)
Houston, Texas, United States

Feed Status: UP
Listen in your browser - HTML5 player(in browser, HTML5)
Click here to listen with your own player(launches your MP3 player)

KDWH 270753Z AUTO 34005KT 10SM OVC008 14/12 A3002 RMK AO2 SLP161 T01440117

KDWH Airport Info (Airnav.com)

KDWH Flight Activity (Flightaware)

Listeners: 1 out of 820 total

Hooks Clearance Delivery: 119.450
Hooks Ground: 121.800
Hooks Tower (E): 127.400
Hooks Tower (W): 118.400
Hooks UNICOM: 122.950

KDXR ATIS (Archives)
Danbury, Connecticut, United States

Feed Status: UP
Listen in your browser - HTML5 player(in browser, HTML5)
Click here to listen with your own player(launches your MP3 player)

KDXR 270815Z AUTO 33007KT 6SM BR OVC005 13/12 A3010 RMK AO2 T01280122

KDXR Airport Info (Airnav.com)

KDXR Flight Activity (Flightaware)

Listeners: 0 out of 820 total

Danbury ATIS: 127.750

KDXR Ground/Tower (Archives)
Danbury, Connecticut, United States

Feed Status: UP
Listen in your browser - HTML5 player(in browser, HTML5)
Click here to listen with your own player(launches your MP3 player)

KDXR 270815Z AUTO 33007KT 6SM BR OVC005 13/12 A3010 RMK AO2 T01280122

KDXR Airport Info (Airnav.com)

KDXR Flight Activity (Flightaware)

Listeners: 0 out of 820 total

Danbury Ground: 121.600
Danbury Tower: 119.400

KDYL CTAF #1 (Archives)
Doylestown, Pennsylvania, United States

Feed Status: UP
Listen in your browser - HTML5 player(in browser, HTML5)
Click here to listen with your own player(launches your MP3 player)

KDYL 270754Z AUTO 28004KT 10SM OVC007 14/13 A3011 RMK AO2 SLP194 T01390133

KDYL Airport Info (Airnav.com)

KDYL Flight Activity (Flightaware)

Listeners: 0 out of 820 total

Doylestown CTAF/UNICOM: 122.975

KDYL CTAF #2 (Archives)
Doylestown, Pennsylvania, United States

Feed Status: UP
Listen in your browser - HTML5 player(in browser, HTML5)
Click here to listen with your own player(launches your MP3 player)

KDYL 270754Z AUTO 28004KT 10SM OVC007 14/13 A3011 RMK AO2 SLP194 T01390133

KDYL Airport Info (Airnav.com)

KDYL Flight Activity (Flightaware)

Listeners: 0 out of 820 total

Doylestown CTAF/UNICOM: 122.975

KEAR AWOS (Archives)
Kearney, Nebraska, United States

Feed Status: UP
Listen in your browser - HTML5 player(in browser, HTML5)
Click here to listen with your own player(launches your MP3 player)

KEAR 270756Z AUTO 20007KT 10SM CLR M08/M12 A3032 RMK AO2 SLP298 T10831117 FZRANO

KEAR Airport Info (Airnav.com)

KEAR Flight Activity (Flightaware)

Listeners: 0 out of 820 total

Kearney AWOS: 123.875

KEAR Columbus Radio (Archives)
Kearney, Nebraska, United States

Feed Status: UP
Listen in your browser - HTML5 player(in browser, HTML5)
Click here to listen with your own player(launches your MP3 player)

KEAR 270756Z AUTO 20007KT 10SM CLR M08/M12 A3032 RMK AO2 SLP298 T10831117 FZRANO

KEAR Airport Info (Airnav.com)

KEAR Flight Activity (Flightaware)

Listeners: 0 out of 820 total

Columbus Radio: 122.550

KEAR CTAF (Archives)
Kearney, Nebraska, United States

Feed Status: UP
Listen in your browser - HTML5 player(in browser, HTML5)
Click here to listen with your own player(launches your MP3 player)

KEAR 270756Z AUTO 20007KT 10SM CLR M08/M12 A3032 RMK AO2 SLP298 T10831117 FZRANO

KEAR Airport Info (Airnav.com)

KEAR Flight Activity (Flightaware)

Listeners: 0 out of 820 total

Kearney CTAF: 123.000

KEAU Tower (Archives)
Eau Claire, Wisconsin, United States

Feed Status: UP
Listen in your browser - HTML5 player(in browser, HTML5)
Click here to listen with your own player(launches your MP3 player)

KEAU 270756Z AUTO 22005KT 10SM CLR M07/M10 A3034 RMK AO2 SLP288 T10671100

KEAU Airport Info (Airnav.com)

KEAU Flight Activity (Flightaware)

Listeners: 0 out of 820 total

Eau Claire Tower: 118.575

KEDC ATIS (Archives)
Austin, Texas, United States

Feed Status: UP
Listen in your browser - HTML5 player(in browser, HTML5)
Click here to listen with your own player(launches your MP3 player)

KEDC 270815Z AUTO 01010KT 2SM BR OVC005 05/04 A3008 RMK AO2

KEDC Airport Info (Airnav.com)

KEDC Flight Activity (Flightaware)

Listeners: 0 out of 820 total

Executive ATIS/AWOS: 118.825

KEDC Austin App/Dep (Archives)
Austin, Texas, United States

Feed Status: UP
Listen in your browser - HTML5 player(in browser, HTML5)
Click here to listen with your own player(launches your MP3 player)

KEDC 270815Z AUTO 01010KT 2SM BR OVC005 05/04 A3008 RMK AO2

KEDC Airport Info (Airnav.com)

KEDC Flight Activity (Flightaware)

Listeners: 0 out of 820 total

Auston Approach/Departure: 127.225

KEDC Clearance Delivery (Archives)
Austin, Texas, United States

Feed Status: UP
Listen in your browser - HTML5 player(in browser, HTML5)
Click here to listen with your own player(launches your MP3 player)

KEDC 270815Z AUTO 01010KT 2SM BR OVC005 05/04 A3008 RMK AO2

KEDC Airport Info (Airnav.com)

KEDC Flight Activity (Flightaware)

Listeners: 0 out of 820 total

Executive Clearance Delivery (when Tower is closed): 126.025

KEDC Clearance/Ground (Archives)
Austin, Texas, United States

Feed Status: UP
Listen in your browser - HTML5 player(in browser, HTML5)
Click here to listen with your own player(launches your MP3 player)

KEDC 270815Z AUTO 01010KT 2SM BR OVC005 05/04 A3008 RMK AO2

KEDC Airport Info (Airnav.com)

KEDC Flight Activity (Flightaware)

Listeners: 0 out of 820 total

Executive Clearance Delivery (when Tower is closed): 126.025
Executive Ground: 119.450

KEDC Del/Gnd/Twr (Archives)
Austin, Texas, United States

Feed Status: UP
Listen in your browser - HTML5 player(in browser, HTML5)
Click here to listen with your own player(launches your MP3 player)

KEDC 270815Z AUTO 01010KT 2SM BR OVC005 05/04 A3008 RMK AO2

KEDC Airport Info (Airnav.com)

KEDC Flight Activity (Flightaware)

Listeners: 0 out of 820 total

Executive Ground: 119.450
Executive Tower: 120.300

KEDC Ground (Archives)
Austin, Texas, United States

Feed Status: UP
Listen in your browser - HTML5 player(in browser, HTML5)
Click here to listen with your own player(launches your MP3 player)

KEDC 270815Z AUTO 01010KT 2SM BR OVC005 05/04 A3008 RMK AO2

KEDC Airport Info (Airnav.com)

KEDC Flight Activity (Flightaware)

Listeners: 0 out of 820 total

Executive Ground: 119.450

KEDC Ground/Tower (Archives)
Austin, Texas, United States

Feed Status: UP
Listen in your browser - HTML5 player(in browser, HTML5)
Click here to listen with your own player(launches your MP3 player)

KEDC 270815Z AUTO 01010KT 2SM BR OVC005 05/04 A3008 RMK AO2

KEDC Airport Info (Airnav.com)

KEDC Flight Activity (Flightaware)

Listeners: 0 out of 820 total

Executive Ground: 119.450
Executive Tower: 120.300

KEDC Tower (Archives)
Austin, Texas, United States

Feed Status: UP
Listen in your browser - HTML5 player(in browser, HTML5)
Click here to listen with your own player(launches your MP3 player)

KEDC 270815Z AUTO 01010KT 2SM BR OVC005 05/04 A3008 RMK AO2

KEDC Airport Info (Airnav.com)

KEDC Flight Activity (Flightaware)

Listeners: 0 out of 820 total

Executive Tower: 120.300

KEDU CTAF (Archives)
Davis, California, United States

Feed Status: UP
Listen in your browser - HTML5 player(in browser, HTML5)
Click here to listen with your own player(launches your MP3 player)

KEDU 270820Z AUTO 34007KT 10SM CLR 15/M14 A3011 RMK AO1

KEDU Airport Info (Airnav.com)

KEDU Flight Activity (Flightaware)

Listeners: 0 out of 820 total

University CTAF: 123.075

KEEN CTAF (Archives)
Keene, New Hampshire, United States

Feed Status: UP
Listen in your browser - HTML5 player(in browser, HTML5)
Click here to listen with your own player(launches your MP3 player)

KMHT 270753Z 00000KT 10SM SCT032 BKN042 OVC075 08/07 A3005 RMK AO2 SLP190 T00830067

KMHT Airport Info (Airnav.com)

KMHT Flight Activity (Flightaware)

Listeners: 0 out of 820 total

Keene CTAF: 123.000

MA/NH/RI/CT Area CTAF (Archives)
Keene, New Hampshire, United States

Feed Status: UP
Listen in your browser - HTML5 player(in browser, HTML5)
Click here to listen with your own player(launches your MP3 player)

KBOS 270754Z 29007KT 6SM BR SCT005 BKN019 OVC025 11/09 A3007 RMK AO2 CIG 005 E SLP180 T01060094

KBOS Airport Info (Airnav.com)

KBOS Flight Activity (Flightaware)

Listeners: 0 out of 820 total

Air-to-Air: 122.750
Bridgeport Flight Service: 122.200
CTAF: 122.700
CTAF: 122.800
CTAF: 122.900
CTAF: 123.000
Emergency/Guard: 121.500

MA/NH/RI/CT Area CTAF (Archives)
Keene, New Hampshire, United States

Feed Status: UP
Listen in your browser - HTML5 player(in browser, HTML5)
Click here to listen with your own player(launches your MP3 player)

KBOS 270754Z 29007KT 6SM BR SCT005 BKN019 OVC025 11/09 A3007 RMK AO2 CIG 005 E SLP180 T01060094

KBOS Airport Info (Airnav.com)

KBOS Flight Activity (Flightaware)

Listeners: 0 out of 820 total

Air-to-Air: 122.750
Bridgeport Flight Service: 122.200
CTAF: 122.700
CTAF: 122.800
CTAF: 122.900
CTAF: 123.000
Emergency/Guard: 121.500

MA/NH/RI/CT Area CTAF (Archives)
Keene, New Hampshire, United States

Feed Status: UP
Listen in your browser - HTML5 player(in browser, HTML5)
Click here to listen with your own player(launches your MP3 player)

KBOS 270754Z 29007KT 6SM BR SCT005 BKN019 OVC025 11/09 A3007 RMK AO2 CIG 005 E SLP180 T01060094

KBOS Airport Info (Airnav.com)

KBOS Flight Activity (Flightaware)

Listeners: 0 out of 820 total

Air-to-Air: 122.750
Bridgeport Flight Service: 122.200
CTAF: 122.700
CTAF: 122.800
CTAF: 122.900
CTAF: 123.000
Emergency/Guard: 121.500

KFTG/KEIK/KBDU/KLMO/Misc (Archives)
Erie, Colorado, United States

Feed Status: UP
Listen in your browser - HTML5 player(in browser, HTML5)
Click here to listen with your own player(launches your MP3 player)

KDEN 270753Z 21010KT 10SM CLR M12/M17 A3016 RMK AO2 SLP275 T11221172

KDEN Airport Info (Airnav.com)

KDEN Flight Activity (Flightaware)

Listeners: 0 out of 820 total

Air-to-Air Fixed Wing: 122.750
Air-to-Air Informal: 123.450
Boulder CTAF: 122.725
Erie CTAF: 123.000
Front Range Tower: 120.200
KBKF Tower: 121.000
Longmont CTAF: 122.975
MULTICOM: 122.900
UNICOM: 122.950

KELM App/Dep (Archives)
Elmira, New York, United States

Feed Status: UP
Listen in your browser - HTML5 player(in browser, HTML5)
Click here to listen with your own player(launches your MP3 player)

KELM 270753Z AUTO 29003KT 10SM OVC016 08/07 A3020 RMK AO2 RAE14 SLP229 P0000 T00780072

KELM Airport Info (Airnav.com)

KELM Flight Activity (Flightaware)

Listeners: 0 out of 820 total

Elmira Approach/Departure: 128.425
Elmira Approach/Departure (Backup): 118.150
Elmira Approach/Departure (Ithica): 124.300

KELM ATIS (Archives)
Elmira, New York, United States

Feed Status: UP
Listen in your browser - HTML5 player(in browser, HTML5)
Click here to listen with your own player(launches your MP3 player)

KELM 270753Z AUTO 29003KT 10SM OVC016 08/07 A3020 RMK AO2 RAE14 SLP229 P0000 T00780072

KELM Airport Info (Airnav.com)

KELM Flight Activity (Flightaware)

Listeners: 0 out of 820 total

Elmira ATIS: 125.475

KELM Del/Gnd/Twr/App (Archives)
Elmira, New York, United States

Feed Status: UP
Listen in your browser - HTML5 player(in browser, HTML5)
Click here to listen with your own player(launches your MP3 player)

KELM 270753Z AUTO 29003KT 10SM OVC016 08/07 A3020 RMK AO2 RAE14 SLP229 P0000 T00780072

KELM Airport Info (Airnav.com)

KELM Flight Activity (Flightaware)

Listeners: 0 out of 820 total

Elmira Approach/Departure: 128.425
Elmira Approach/Departure (Backup): 118.150
Elmira Approach/Departure (Ithica): 124.300
Elmira Clearance Delivery/Ground: 121.900
Elmira Tower: 121.100

KELM Del/Ground (Archives)
Elmira, New York, United States

Feed Status: UP
Listen in your browser - HTML5 player(in browser, HTML5)
Click here to listen with your own player(launches your MP3 player)

KELM 270753Z AUTO 29003KT 10SM OVC016 08/07 A3020 RMK AO2 RAE14 SLP229 P0000 T00780072

KELM Airport Info (Airnav.com)

KELM Flight Activity (Flightaware)

Listeners: 0 out of 820 total

Elmira Clearance Delivery/Ground: 121.900

KELM Emergency/Guard (Archives)
Elmira, New York, United States

Feed Status: UP
Listen in your browser - HTML5 player(in browser, HTML5)
Click here to listen with your own player(launches your MP3 player)

KELM 270753Z AUTO 29003KT 10SM OVC016 08/07 A3020 RMK AO2 RAE14 SLP229 P0000 T00780072

KELM Airport Info (Airnav.com)

KELM Flight Activity (Flightaware)

Listeners: 0 out of 820 total

Emergency/Guard: 121.500

KELM Tower (Archives)
Elmira, New York, United States

Feed Status: UP
Listen in your browser - HTML5 player(in browser, HTML5)
Click here to listen with your own player(launches your MP3 player)

KELM 270753Z AUTO 29003KT 10SM OVC016 08/07 A3020 RMK AO2 RAE14 SLP229 P0000 T00780072

KELM Airport Info (Airnav.com)

KELM Flight Activity (Flightaware)

Listeners: 0 out of 820 total

Elmira Tower: 121.100

KEMT Gnd/Twr (Archives)
El Monte, California, United States

Feed Status: UP
Listen in your browser - HTML5 player(in browser, HTML5)
Click here to listen with your own player(launches your MP3 player)

KEMT 270245Z 03005KT 3SM FU BLDU CLR 16/M06 A3003

KEMT Airport Info (Airnav.com)

KEMT Flight Activity (Flightaware)

Listeners: 0 out of 820 total

El Monte Ground: 125.900
El Monte Tower: 121.200
Santa Fe Dam Practice Area: 123.300

KEND Tower
Enid, Oklahoma, United States

Feed Status: DOWN
Offline since: 2020-09-09 18:19:21 UTC

KEND 270756Z AUTO 01005KT 10SM OVC017 M03/M03 A3030 RMK AO2 SLP278 T10281029 $

KEND Airport Info (Airnav.com)

Vance Tower: 124.050

KENW Ground/Tower (Archives)
Kenosha, Wisconsin, United States

Feed Status: UP
Listen in your browser - HTML5 player(in browser, HTML5)
Click here to listen with your own player(launches your MP3 player)

KENW 270753Z AUTO 34003KT 10SM SCT070 OVC095 02/M05 A3032 RMK AO2 SLP276 T00171050

KENW Airport Info (Airnav.com)

KENW Flight Activity (Flightaware)

Listeners: 0 out of 820 total

Kenosha Ground: 121.875
Kenosha Tower: 118.600

KEST CTAF (Archives)
Estherville, Iowa, United States

Feed Status: UP
Listen in your browser - HTML5 player(in browser, HTML5)
Click here to listen with your own player(launches your MP3 player)

KEST 270752Z AUTO 19006KT 9SM CLR M12/M13 A3033 RMK AO2 SLP296 T11221133

KEST Airport Info (Airnav.com)

KEST Flight Activity (Flightaware)

Listeners: 0 out of 820 total

Estherville CTAF: 122.800

KEUG App/Dep
Eugene, Oregon, United States

Feed Status: DOWN
Offline since: 2019-03-29 08:26:04 UTC

KEUG 270754Z AUTO 00000KT 10SM CLR 01/M03 A3044 RMK AO2 SLP310 T00061028 401281050

KEUG Airport Info (Airnav.com)

Cascade Approach/Departure: 119.600
Cascade Approach/Departure: 120.250

KEUG App/Dep 119.6
Eugene, Oregon, United States

Feed Status: DOWN
Offline since: 2020-08-27 05:43:05 UTC

KEUG 270754Z AUTO 00000KT 10SM CLR 01/M03 A3044 RMK AO2 SLP310 T00061028 401281050

KEUG Airport Info (Airnav.com)

Cascade Approach/Departure: 119.600

KEUG App/Dep 120.25
Eugene, Oregon, United States

Feed Status: DOWN
Offline since: 2020-08-27 05:43:05 UTC

KEUG 270754Z AUTO 00000KT 10SM CLR 01/M03 A3044 RMK AO2 SLP310 T00061028 401281050

KEUG Airport Info (Airnav.com)

Cascade Approach/Departure: 120.250

KEUG ATIS
Eugene, Oregon, United States

Feed Status: DOWN
Offline since: 2020-08-27 05:43:05 UTC

KEUG 270754Z AUTO 00000KT 10SM CLR 01/M03 A3044 RMK AO2 SLP310 T00061028 401281050

KEUG Airport Info (Airnav.com)

Eugene ATIS: 125.225

KEUG Emergency/Guard
Eugene, Oregon, United States

Feed Status: DOWN
Offline since: 2020-08-27 05:43:05 UTC

KEUG 270754Z AUTO 00000KT 10SM CLR 01/M03 A3044 RMK AO2 SLP310 T00061028 401281050

KEUG Airport Info (Airnav.com)

Emergency/Guard: 121.500

KEUG Ground
Eugene, Oregon, United States

Feed Status: DOWN
Offline since: 2020-08-27 05:42:38 UTC

KEUG 270754Z AUTO 00000KT 10SM CLR 01/M03 A3044 RMK AO2 SLP310 T00061028 401281050

KEUG Airport Info (Airnav.com)

Eugene Ground: 121.700

KEUG Ground/Tower
Eugene, Oregon, United States

Feed Status: DOWN
Offline since: 2019-03-29 09:35:03 UTC

KEUG 270754Z AUTO 00000KT 10SM CLR 01/M03 A3044 RMK AO2 SLP310 T00061028 401281050

KEUG Airport Info (Airnav.com)

Eugene Ground: 121.700
Eugene Tower (Rwy 16L/34R): 124.150
Eugene Tower (Rwy 16R/34L): 118.900

KEUG Tower (Both)
Eugene, Oregon, United States

Feed Status: DOWN
Offline since: 2019-03-29 08:26:04 UTC

KEUG 270754Z AUTO 00000KT 10SM CLR 01/M03 A3044 RMK AO2 SLP310 T00061028 401281050

KEUG Airport Info (Airnav.com)

Eugene Tower (Rwy 16L/34R): 124.150
Eugene Tower (Rwy 16R/34L): 118.900

KEUG Tower (Rwy 16L/34R)
Eugene, Oregon, United States

Feed Status: DOWN
Offline since: 2020-08-27 05:43:05 UTC

KEUG 270754Z AUTO 00000KT 10SM CLR 01/M03 A3044 RMK AO2 SLP310 T00061028 401281050

KEUG Airport Info (Airnav.com)

Eugene Tower (Rwy 16L/34R): 124.150

KEUG Tower (Rwy 16R/34L)
Eugene, Oregon, United States

Feed Status: DOWN
Offline since: 2020-08-27 05:43:05 UTC

KEUG 270754Z AUTO 00000KT 10SM CLR 01/M03 A3044 RMK AO2 SLP310 T00061028 401281050

KEUG Airport Info (Airnav.com)

Eugene Tower (Rwy 16R/34L): 118.900

KMAN/KEUL CTAF (Archives)
Nampa, Idaho, United States

Feed Status: UP
Listen in your browser - HTML5 player(in browser, HTML5)
Click here to listen with your own player(launches your MP3 player)

KMAN 270815Z AUTO 00000KT 10SM M01/M09 A3035 RMK A01

KMAN Airport Info (Airnav.com)

KMAN Flight Activity (Flightaware)

Listeners: 0 out of 820 total

Nampa/Caldwell CTAF/UNICOM: 122.700

KEVB ATIS (Archives)
New Smyrna Beach, Florida, United States

Feed Status: UP
Listen in your browser - HTML5 player(in browser, HTML5)
Click here to listen with your own player(launches your MP3 player)

KEVB 270147Z 10SM FEW050 RMK AWOS OTS. LAST.

KEVB Airport Info (Airnav.com)

KEVB Flight Activity (Flightaware)

Listeners: 0 out of 820 total

New Smyrna ATIS: 124.625

KEVB Gnd/Twr (Archives)
New Smyrna Beach, Florida, United States

Feed Status: UP
Listen in your browser - HTML5 player(in browser, HTML5)
Click here to listen with your own player(launches your MP3 player)

KEVB 270147Z 10SM FEW050 RMK AWOS OTS. LAST.

KEVB Airport Info (Airnav.com)

KEVB Flight Activity (Flightaware)

Listeners: 0 out of 820 total

New Smyrna Ground: 121.325
New Smyrna Tower: 119.675

KFAR Tower (Archives)
Fargo, North Dakota, United States

Feed Status: UP
Listen in your browser - HTML5 player(in browser, HTML5)
Click here to listen with your own player(launches your MP3 player)

KFAR 270753Z 18013KT 10SM CLR M11/M14 A3018 RMK AO2 SLP236 T11061144 $

KFAR Airport Info (Airnav.com)

KFAR Flight Activity (Flightaware)

Listeners: 0 out of 820 total

Fargo Tower: 133.800

KFBG/KPOB Gnd/Twr (Archives)
Fort Bragg, North Carolina, United States

Feed Status: UP
Listen in your browser - HTML5 player(in browser, HTML5)
Click here to listen with your own player(launches your MP3 player)

KFAY 270753Z 24003KT 10SM CLR 14/13 A3016 RMK AO2 SLP206 T01390128

KFAY Airport Info (Airnav.com)

KFAY Flight Activity (Flightaware)

Listeners: 0 out of 820 total

Pope Ground: 124.550
Pope Tower: 135.025
Simmons Base Ops: 142.350
Simmons Ground: 121.900
Simmons PAR Radar: 124.200
Simmons Radar: 120.800
Simmons Tower: 125.900

KFCM Tower
Minneapolis, Minnesota, United States

Feed Status: DOWN
Offline since: 2020-10-26 10:42:21 UTC

KFCM 270753Z AUTO 25003KT 10SM CLR M08/M11 A3034 RMK AO2 SLP288 T10831106

KFCM Airport Info (Airnav.com)

Flying Cloud Tower: 119.150

KFDK ATIS (Archives)
Frederick, Maryland, United States

Feed Status: UP
Listen in your browser - HTML5 player(in browser, HTML5)
Click here to listen with your own player(launches your MP3 player)

KFDK 270815Z AUTO 00000KT 4SM BR OVC060 13/12 A3014 RMK AO2

KFDK Airport Info (Airnav.com)

KFDK Flight Activity (Flightaware)

Listeners: 0 out of 820 total

Frederick ATIS: 124.875

KFDK Del/Gnd/Twr/CTAF (Archives)
Frederick, Maryland, United States

Feed Status: UP
Listen in your browser - HTML5 player(in browser, HTML5)
Click here to listen with your own player(launches your MP3 player)

KFDK 270815Z AUTO 00000KT 4SM BR OVC060 13/12 A3014 RMK AO2

KFDK Airport Info (Airnav.com)

KFDK Flight Activity (Flightaware)

Listeners: 2 out of 820 total

Clearance Delivery (Potomac Approach): 126.900
Frederick Ground: 121.975
Frederick Tower/CTAF: 132.400

KFFC CTAF (Archives)
Atlanta, Georgia, United States

Feed Status: UP
Listen in your browser - HTML5 player(in browser, HTML5)
Click here to listen with your own player(launches your MP3 player)

KCCO 270815Z AUTO 09004KT 1SM BR OVC003 20/18 A3015 RMK AO2 T01950180

KCCO Airport Info (Airnav.com)

KCCO Flight Activity (Flightaware)

Listeners: 0 out of 820 total

Falcon CTAF: 123.050

KFFZ ATIS (Archives)
Mesa, Arizona, United States

Feed Status: UP
Listen in your browser - HTML5 player(in browser, HTML5)
Click here to listen with your own player(launches your MP3 player)

KFFZ Airport Info (Airnav.com)

KFFZ Flight Activity (Flightaware)

Listeners: 0 out of 820 total

Falcon ATIS: 118.250

KFFZ Ground (Archives)
Mesa, Arizona, United States

Feed Status: UP
Listen in your browser - HTML5 player(in browser, HTML5)
Click here to listen with your own player(launches your MP3 player)

KFFZ Airport Info (Airnav.com)

KFFZ Flight Activity (Flightaware)

Listeners: 0 out of 820 total

Falcon Ground: 121.300

KFFZ Twr #1 (Archives)
Mesa, Arizona, United States

Feed Status: UP
Listen in your browser - HTML5 player(in browser, HTML5)
Click here to listen with your own player(launches your MP3 player)

KFFZ Airport Info (Airnav.com)

KFFZ Flight Activity (Flightaware)

Listeners: 0 out of 820 total

Falcon Tower (North, 4L/22R): 119.700
Falcon Tower (South)/CTAF: 124.600

KFFZ Twr #2 (Archives)
Mesa, Arizona, United States

Feed Status: UP
Listen in your browser - HTML5 player(in browser, HTML5)
Click here to listen with your own player(launches your MP3 player)

KFFZ Airport Info (Airnav.com)

KFFZ Flight Activity (Flightaware)

Listeners: 0 out of 820 total

Falcon Tower (North, 4L/22R): 119.700
Falcon Tower (South)/CTAF: 124.600

KFFZ Twr (North) (Archives)
Mesa, Arizona, United States

Feed Status: UP
Listen in your browser - HTML5 player(in browser, HTML5)
Click here to listen with your own player(launches your MP3 player)

KFFZ Airport Info (Airnav.com)

KFFZ Flight Activity (Flightaware)

Listeners: 0 out of 820 total

Falcon Tower (North, 4L/22R): 119.700

KFFZ Twr (South)/CTAF (Archives)
Mesa, Arizona, United States

Feed Status: UP
Listen in your browser - HTML5 player(in browser, HTML5)
Click here to listen with your own player(launches your MP3 player)

KFFZ Airport Info (Airnav.com)

KFFZ Flight Activity (Flightaware)

Listeners: 0 out of 820 total

Falcon Tower (South)/CTAF: 124.600

KFHR CTAF (Archives)
Friday Harbor, Washington, United States

Feed Status: UP
Listen in your browser - HTML5 player(in browser, HTML5)
Click here to listen with your own player(launches your MP3 player)

KFHR 270801Z AUTO 00000KT 10SM OVC029 06/03 A3047 RMK AO2 T00610033 TSNO

KFHR Airport Info (Airnav.com)

KFHR Flight Activity (Flightaware)

Listeners: 0 out of 820 total

KFHR/San Juan Islands CTAF: 128.250

KFHU Gnd/Twr/Radar (Archives)
Fort Huachuca/Sierra Vista, Arizona, United States

Feed Status: UP
Listen in your browser - HTML5 player(in browser, HTML5)
Click here to listen with your own player(launches your MP3 player)

KFHU 270758Z AUTO 25009KT 10SM CLR 02/M16 A2986 RMK AO2 SLP079 T00231162

KFHU Airport Info (Airnav.com)

KFHU Flight Activity (Flightaware)

Listeners: 0 out of 820 total

Libby AAF GCA Radar: 127.050
Libby AAF GCA Radar: 254.350
Libby Ground: 121.700
Libby Ground: 268.700
Libby Tower: 124.950
Libby Tower: 284.750

KCON/KFIT CTAF (Archives)
Fitchburg, Massachusetts, United States

Feed Status: UP
Listen in your browser - HTML5 player(in browser, HTML5)
Click here to listen with your own player(launches your MP3 player)

KMHT 270753Z 00000KT 10SM SCT032 BKN042 OVC075 08/07 A3005 RMK AO2 SLP190 T00830067

KMHT Airport Info (Airnav.com)

KMHT Flight Activity (Flightaware)

Listeners: 0 out of 820 total

Concord NH/Fitchburg MA CTAF: 122.700

KFIT CTAF (Archives)
Fitchburg, Massachusetts, United States

Feed Status: UP
Listen in your browser - HTML5 player(in browser, HTML5)
Click here to listen with your own player(launches your MP3 player)

KFIT 270825Z AUTO 00000KT 10SM SCT017 OVC032 10/10 A3007 RMK AO2 T01000100

KFIT Airport Info (Airnav.com)

KFIT Flight Activity (Flightaware)

Listeners: 0 out of 820 total

Fitchburg CTAF/UNICOM: 122.700

KFIT CTAF/FSS RCO (Archives)
Fitchburg, Massachusetts, United States

Feed Status: UP
Listen in your browser - HTML5 player(in browser, HTML5)
Click here to listen with your own player(launches your MP3 player)

KFIT 270825Z AUTO 00000KT 10SM SCT017 OVC032 10/10 A3007 RMK AO2 T01000100

KFIT Airport Info (Airnav.com)

KFIT Flight Activity (Flightaware)

Listeners: 0 out of 820 total

Bridgeport Radio (FSS via RCO): 119.025
Emergency/Guard: 121.500
Fitchburg CTAF/UNICOM: 122.700

MA/NH/RI/CT Area CTAF (Archives)
Fitchburg, Massachusetts, United States

Feed Status: UP
Listen in your browser - HTML5 player(in browser, HTML5)
Click here to listen with your own player(launches your MP3 player)

KBOS 270754Z 29007KT 6SM BR SCT005 BKN019 OVC025 11/09 A3007 RMK AO2 CIG 005 E SLP180 T01060094

KBOS Airport Info (Airnav.com)

KBOS Flight Activity (Flightaware)

Listeners: 0 out of 820 total

Air-to-Air: 122.750
Bridgeport Flight Service: 122.200
CTAF: 122.700
CTAF: 122.800
CTAF: 122.900
CTAF: 123.000
Emergency/Guard: 121.500

MA/NH/RI/CT Area CTAF (Archives)
Fitchburg, Massachusetts, United States

Feed Status: UP
Listen in your browser - HTML5 player(in browser, HTML5)
Click here to listen with your own player(launches your MP3 player)

KBOS 270754Z 29007KT 6SM BR SCT005 BKN019 OVC025 11/09 A3007 RMK AO2 CIG 005 E SLP180 T01060094

KBOS Airport Info (Airnav.com)

KBOS Flight Activity (Flightaware)

Listeners: 0 out of 820 total

Air-to-Air: 122.750
Bridgeport Flight Service: 122.200
CTAF: 122.700
CTAF: 122.800
CTAF: 122.900
CTAF: 123.000
Emergency/Guard: 121.500

MA/NH/RI/CT Area CTAF (Archives)
Fitchburg, Massachusetts, United States

Feed Status: UP
Listen in your browser - HTML5 player(in browser, HTML5)
Click here to listen with your own player(launches your MP3 player)

KBOS 270754Z 29007KT 6SM BR SCT005 BKN019 OVC025 11/09 A3007 RMK AO2 CIG 005 E SLP180 T01060094

KBOS Airport Info (Airnav.com)

KBOS Flight Activity (Flightaware)

Listeners: 0 out of 820 total

Air-to-Air: 122.750
Bridgeport Flight Service: 122.200
CTAF: 122.700
CTAF: 122.800
CTAF: 122.900
CTAF: 123.000
Emergency/Guard: 121.500

KFKA CTAF (Archives)
Preston, Minnesota, United States

Feed Status: UP
Listen in your browser - HTML5 player(in browser, HTML5)
Click here to listen with your own player(launches your MP3 player)

KFKA 270815Z AUTO 00000KT 7SM CLR M07/M09 A3033 RMK AO2 T10671093

KFKA Airport Info (Airnav.com)

KFKA Flight Activity (Flightaware)

Listeners: 0 out of 820 total

Preston CTAF: 122.900

KFLG Ground/Tower (Archives)
Flagstaff, Arizona, United States

Feed Status: UP
Listen in your browser - HTML5 player(in browser, HTML5)
Click here to listen with your own player(launches your MP3 player)

KFLG 270757Z AUTO 05019G33KT 10SM CLR M07/M18 A2995 RMK AO2 PK WND 06034/0705 SLP148 T10671178 TSNO

KFLG Airport Info (Airnav.com)

KFLG Flight Activity (Flightaware)

Listeners: 0 out of 820 total

Flagstaff Ground: 121.900
Flagstaff Tower: 134.550

KFLO App/Dep (Archives)
Florence, South Carolina, United States

Feed Status: UP
Listen in your browser - HTML5 player(in browser, HTML5)
Click here to listen with your own player(launches your MP3 player)

KFLO 270826Z AUTO 00000KT 1/2SM FG CLR 12/12 A3017 RMK AO2 T01220117

KFLO Airport Info (Airnav.com)

KFLO Flight Activity (Flightaware)

Listeners: 0 out of 820 total

Florence Approach: 135.250
Florence Approach: 118.600

KFLO ATIS (Archives)
Florence, South Carolina, United States

Feed Status: UP
Listen in your browser - HTML5 player(in browser, HTML5)
Click here to listen with your own player(launches your MP3 player)

KFLO 270826Z AUTO 00000KT 1/2SM FG CLR 12/12 A3017 RMK AO2 T01220117

KFLO Airport Info (Airnav.com)

KFLO Flight Activity (Flightaware)

Listeners: 0 out of 820 total

Florence ATIS: 123.625

KFLO Gnd/Twr/App (Archives)
Florence, South Carolina, United States

Feed Status: UP
Listen in your browser - HTML5 player(in browser, HTML5)
Click here to listen with your own player(launches your MP3 player)

KFLO 270826Z AUTO 00000KT 1/2SM FG CLR 12/12 A3017 RMK AO2 T01220117

KFLO Airport Info (Airnav.com)

KFLO Flight Activity (Flightaware)

Listeners: 0 out of 820 total

Florence Approach: 118.600
Florence Approach: 135.250
Florence Ground: 121.900
Florence Tower: 125.100

KFLO Ground (Archives)
Florence, South Carolina, United States

Feed Status: UP
Listen in your browser - HTML5 player(in browser, HTML5)
Click here to listen with your own player(launches your MP3 player)

KFLO 270826Z AUTO 00000KT 1/2SM FG CLR 12/12 A3017 RMK AO2 T01220117

KFLO Airport Info (Airnav.com)

KFLO Flight Activity (Flightaware)

Listeners: 0 out of 820 total

Florence Ground: 121.900

KFLO Tower (Archives)
Florence, South Carolina, United States

Feed Status: UP
Listen in your browser - HTML5 player(in browser, HTML5)
Click here to listen with your own player(launches your MP3 player)

KFLO 270826Z AUTO 00000KT 1/2SM FG CLR 12/12 A3017 RMK AO2 T01220117

KFLO Airport Info (Airnav.com)

KFLO Flight Activity (Flightaware)

Listeners: 0 out of 820 total

Florence Tower: 125.100

Boston Approach (Cape North) (Archives)
Falmouth, Massachusetts, United States

Feed Status: UP
Listen in your browser - HTML5 player(in browser, HTML5)
Click here to listen with your own player(launches your MP3 player)

KFMH 270745Z 20005KT <1/4SM FG OVC002 15/15 A3004

KFMH Airport Info (Airnav.com)

KFMH Flight Activity (Flightaware)

Listeners: 0 out of 820 total

Boston Approach (Cape North Arrival): 118.200

Boston Approach (OTIS Arrival) (Archives)
Falmouth, Massachusetts, United States

Feed Status: UP
Listen in your browser - HTML5 player(in browser, HTML5)
Click here to listen with your own player(launches your MP3 player)

KFMH 270745Z 20005KT <1/4SM FG OVC002 15/15 A3004

KFMH Airport Info (Airnav.com)

KFMH Flight Activity (Flightaware)

Listeners: 0 out of 820 total

Boston Approach (OTIS Arrival): 126.300

KFMH ATIS (Archives)
Falmouth, Massachusetts, United States

Feed Status: UP
Listen in your browser - HTML5 player(in browser, HTML5)
Click here to listen with your own player(launches your MP3 player)

KFMH 270745Z 20005KT <1/4SM FG OVC002 15/15 A3004

KFMH Airport Info (Airnav.com)

KFMH Flight Activity (Flightaware)

Listeners: 0 out of 820 total

Coast Guard ATIS: 120.475

KFMH Ground (Archives)
Falmouth, Massachusetts, United States

Feed Status: UP
Listen in your browser - HTML5 player(in browser, HTML5)
Click here to listen with your own player(launches your MP3 player)

KFMH 270745Z 20005KT <1/4SM FG OVC002 15/15 A3004

KFMH Airport Info (Airnav.com)

KFMH Flight Activity (Flightaware)

Listeners: 0 out of 820 total

Coast Guard Ground: 124.150

KFMH Tower (Archives)
Falmouth, Massachusetts, United States

Feed Status: UP
Listen in your browser - HTML5 player(in browser, HTML5)
Click here to listen with your own player(launches your MP3 player)

KFMH 270745Z 20005KT <1/4SM FG OVC002 15/15 A3004

KFMH Airport Info (Airnav.com)

KFMH Flight Activity (Flightaware)

Listeners: 0 out of 820 total

Coast Guard Tower: 128.425

KFMY ATIS (Archives)
Fort Myers, Florida, United States

Feed Status: UP
Listen in your browser - HTML5 player(in browser, HTML5)
Click here to listen with your own player(launches your MP3 player)

KFMY 270753Z AUTO 09006KT 10SM OVC110 24/24 A2998 RMK AO2 SLP155 T02390239

KFMY Airport Info (Airnav.com)

KFMY Flight Activity (Flightaware)

Listeners: 0 out of 820 total

Page ATIS: 123.725

KFMY Del/Gnd/Twr (Archives)
Fort Myers, Florida, United States

Feed Status: UP
Listen in your browser - HTML5 player(in browser, HTML5)
Click here to listen with your own player(launches your MP3 player)

KFMY 270753Z AUTO 09006KT 10SM OVC110 24/24 A2998 RMK AO2 SLP155 T02390239

KFMY Airport Info (Airnav.com)

KFMY Flight Activity (Flightaware)

Listeners: 0 out of 820 total

Page Clearance/Ground: 121.700
Page Tower: 119.000

KFNL Ground (Archives)
Fort Collins/Loveland, Colorado, United States

Feed Status: UP
Listen in your browser - HTML5 player(in browser, HTML5)
Click here to listen with your own player(launches your MP3 player)

KFNL 270827Z 01003KT 1SM HZ VV001 M21/M24 A3018 RMK AO2 VIS 1/4V5 FZRANO

KFNL Airport Info (Airnav.com)

KFNL Flight Activity (Flightaware)

Listeners: 0 out of 820 total

Fort Collins Ground: 121.650

KFNL Tower/CTAF (Archives)
Fort Collins/Loveland, Colorado, United States

Feed Status: UP
Listen in your browser - HTML5 player(in browser, HTML5)
Click here to listen with your own player(launches your MP3 player)

KFNL 270827Z 01003KT 1SM HZ VV001 M21/M24 A3018 RMK AO2 VIS 1/4V5 FZRANO

KFNL Airport Info (Airnav.com)

KFNL Flight Activity (Flightaware)

Listeners: 0 out of 820 total

Fort Collins Tower/CTAF: 118.400

KFNL UNICOM (Archives)
Fort Collins/Loveland, Colorado, United States

Feed Status: UP
Listen in your browser - HTML5 player(in browser, HTML5)
Click here to listen with your own player(launches your MP3 player)

KFNL 270827Z 01003KT 1SM HZ VV001 M21/M24 A3018 RMK AO2 VIS 1/4V5 FZRANO

KFNL Airport Info (Airnav.com)

KFNL Flight Activity (Flightaware)

Listeners: 0 out of 820 total

Fort Collins UNICOM: 122.950

KFPR ATIS #1 (Archives)
Fort Pierce, Florida, United States

Feed Status: UP
Listen in your browser - HTML5 player(in browser, HTML5)
Click here to listen with your own player(launches your MP3 player)

KFPR 270753Z AUTO 00000KT 10SM CLR 23/23 A3003 RMK AO2 SLP169 T02330233

KFPR Airport Info (Airnav.com)

KFPR Flight Activity (Flightaware)

Listeners: 0 out of 820 total

Fort Pierce ATIS: 134.825

KFPR Gnd/Twr #1 (Archives)
Fort Pierce, Florida, United States

Feed Status: UP
Listen in your browser - HTML5 player(in browser, HTML5)
Click here to listen with your own player(launches your MP3 player)

KFPR 270753Z AUTO 00000KT 10SM CLR 23/23 A3003 RMK AO2 SLP169 T02330233

KFPR Airport Info (Airnav.com)

KFPR Flight Activity (Flightaware)

Listeners: 0 out of 820 total

Ft Pierce Ground: 119.550
Ft Pierce Tower: 128.200

KFPR Ground (Archives)
Fort Pierce, Florida, United States

Feed Status: UP
Listen in your browser - HTML5 player(in browser, HTML5)
Click here to listen with your own player(launches your MP3 player)

KFPR 270753Z AUTO 00000KT 10SM CLR 23/23 A3003 RMK AO2 SLP169 T02330233

KFPR Airport Info (Airnav.com)

KFPR Flight Activity (Flightaware)

Listeners: 0 out of 820 total

Ft Pierce Ground: 119.550

KFPR Tower (Archives)
Fort Pierce, Florida, United States

Feed Status: UP
Listen in your browser - HTML5 player(in browser, HTML5)
Click here to listen with your own player(launches your MP3 player)

KFPR 270753Z AUTO 00000KT 10SM CLR 23/23 A3003 RMK AO2 SLP169 T02330233

KFPR Airport Info (Airnav.com)

KFPR Flight Activity (Flightaware)

Listeners: 0 out of 820 total

Ft Pierce Tower: 128.200

Palm Beach App/Dep (Archives)
Fort Pierce, Florida, United States

Feed Status: UP
Listen in your browser - HTML5 player(in browser, HTML5)
Click here to listen with your own player(launches your MP3 player)

KFPR 270753Z AUTO 00000KT 10SM CLR 23/23 A3003 RMK AO2 SLP169 T02330233

KFPR Airport Info (Airnav.com)

KFPR Flight Activity (Flightaware)

Listeners: 0 out of 820 total

Palm Beach Approach/Departure: 123.625

KFRG ATIS (Archives)
Farmingdale, New York, United States

Feed Status: UP
Listen in your browser - HTML5 player(in browser, HTML5)
Click here to listen with your own player(launches your MP3 player)

KFRG 270816Z AUTO 00000KT 2SM BR OVC003 16/14 A3008 RMK AO2 T01560144

KFRG Airport Info (Airnav.com)

KFRG Flight Activity (Flightaware)

Listeners: 1 out of 820 total

Republic ATIS: 126.650

KFRG Delivery/Ground (Archives)
Farmingdale, New York, United States

Feed Status: UP
Listen in your browser - HTML5 player(in browser, HTML5)
Click here to listen with your own player(launches your MP3 player)

KFRG 270816Z AUTO 00000KT 2SM BR OVC003 16/14 A3008 RMK AO2 T01560144

KFRG Airport Info (Airnav.com)

KFRG Flight Activity (Flightaware)

Listeners: 0 out of 820 total

Emergency/Guard: 121.500
Republic Clearance Delivery: 128.250
Republic Ground: 121.600

KFRG Tower (Archives)
Farmingdale, New York, United States

Feed Status: UP
Listen in your browser - HTML5 player(in browser, HTML5)
Click here to listen with your own player(launches your MP3 player)

KFRG 270816Z AUTO 00000KT 2SM BR OVC003 16/14 A3008 RMK AO2 T01560144

KFRG Airport Info (Airnav.com)

KFRG Flight Activity (Flightaware)

Listeners: 0 out of 820 total

Republic Tower: 118.800

KFRM CTAF (Air Race Classic)
Fairmont, Minnesota, United States

Feed Status: DOWN
Offline since: 2019-06-25 18:58:03 UTC

Fairmont CTAF: 122.800

KFSD Approach/Departure
Sioux Falls, South Dakota, United States

Feed Status: DOWN
Offline since: 2019-11-11 22:35:39 UTC

KFSD 270756Z AUTO 20008KT 10SM CLR M08/M11 A3030 RMK AO2 SLP287 T10831111

KFSD Airport Info (Airnav.com)

Sioux Falls Approach/Departure: 125.800

KFSD Twr/App/Dep/ZMP (Archives)
Sioux Falls, South Dakota, United States

Feed Status: UP
Listen in your browser - HTML5 player(in browser, HTML5)
Click here to listen with your own player(launches your MP3 player)

KFSD 270756Z AUTO 20008KT 10SM CLR M08/M11 A3030 RMK AO2 SLP287 T10831111

KFSD Airport Info (Airnav.com)

KFSD Flight Activity (Flightaware)

Listeners: 1 out of 820 total

Minneapolis Center (Sector 33 PIR Low): 132.050
Sioux Falls Approach/Departure: 125.800
Sioux Falls Tower: 118.300

KFTG/KEIK/KBDU/KLMO/Misc (Archives)
Denver, Colorado, United States

Feed Status: UP
Listen in your browser - HTML5 player(in browser, HTML5)
Click here to listen with your own player(launches your MP3 player)

KDEN 270753Z 21010KT 10SM CLR M12/M17 A3016 RMK AO2 SLP275 T11221172

KDEN Airport Info (Airnav.com)

KDEN Flight Activity (Flightaware)

Listeners: 0 out of 820 total

Air-to-Air Fixed Wing: 122.750
Air-to-Air Informal: 123.450
Boulder CTAF: 122.725
Erie CTAF: 123.000
Front Range Tower: 120.200
KBKF Tower: 121.000
Longmont CTAF: 122.975
MULTICOM: 122.900
UNICOM: 122.950

KFTW Del/Gnd/Twr (Archives)
Fort Worth, Texas, United States

Feed Status: UP
Listen in your browser - HTML5 player(in browser, HTML5)
Click here to listen with your own player(launches your MP3 player)

KFTW 270753Z AUTO 35013KT 5SM BR OVC006 02/02 A3015 RMK AO2 SLP214 T00170017

KFTW Airport Info (Airnav.com)

KFTW Flight Activity (Flightaware)

Listeners: 0 out of 820 total

Meacham Clearance Delivery: 124.650
Meacham Ground: 121.900
Meacham Tower: 118.300

KFTW Del/Ground (Archives)
Fort Worth, Texas, United States

Feed Status: UP
Listen in your browser - HTML5 player(in browser, HTML5)
Click here to listen with your own player(launches your MP3 player)

KFTW 270753Z AUTO 35013KT 5SM BR OVC006 02/02 A3015 RMK AO2 SLP214 T00170017

KFTW Airport Info (Airnav.com)

KFTW Flight Activity (Flightaware)

Listeners: 0 out of 820 total

Meacham Clearance Delivery: 124.650
Meacham Ground: 121.900

KFTW Tower (Archives)
Fort Worth, Texas, United States

Feed Status: UP
Listen in your browser - HTML5 player(in browser, HTML5)
Click here to listen with your own player(launches your MP3 player)

KFTW 270753Z AUTO 35013KT 5SM BR OVC006 02/02 A3015 RMK AO2 SLP214 T00170017

KFTW Airport Info (Airnav.com)

KFTW Flight Activity (Flightaware)

Listeners: 0 out of 820 total

Meacham Tower: 118.300

Regional App (Meacham North) (Archives)
Fort Worth, Texas, United States

Feed Status: UP
Listen in your browser - HTML5 player(in browser, HTML5)
Click here to listen with your own player(launches your MP3 player)

KFTW 270753Z AUTO 35013KT 5SM BR OVC006 02/02 A3015 RMK AO2 SLP214 T00170017

KFTW Airport Info (Airnav.com)

KFTW Flight Activity (Flightaware)

Listeners: 0 out of 820 total

Regional Approach (Meacham North): 118.100

Regional App (Meacham South) (Archives)
Fort Worth, Texas, United States

Feed Status: UP
Listen in your browser - HTML5 player(in browser, HTML5)
Click here to listen with your own player(launches your MP3 player)

KDFW 270753Z 01014KT 7SM -DZ OVC006 03/03 A3014 RMK AO2 SLP206 P0000 T00330028

KDFW Airport Info (Airnav.com)

KDFW Flight Activity (Flightaware)

Listeners: 0 out of 820 total

Regional Approach (Meacham South): 135.975

Regional Approach (Meacham North/South) (Archives)
Fort Worth, Texas, United States

Feed Status: UP
Listen in your browser - HTML5 player(in browser, HTML5)
Click here to listen with your own player(launches your MP3 player)

KFTW 270753Z AUTO 35013KT 5SM BR OVC006 02/02 A3015 RMK AO2 SLP214 T00170017

KFTW Airport Info (Airnav.com)

KFTW Flight Activity (Flightaware)

Listeners: 0 out of 820 total

Regional Approach (Meacham North): 118.100
Regional Approach (Meacham South): 135.975

Atlanta Approach (N. Sat) (Archives)
Atlanta, Georgia, United States

Feed Status: UP
Listen in your browser - HTML5 player(in browser, HTML5)
Click here to listen with your own player(launches your MP3 player)

KRYY 270750Z AUTO 10006KT 10SM OVC004 18/17 A3017 RMK AO2 SLP936 T01780172 $

KRYY Airport Info (Airnav.com)

KRYY Flight Activity (Flightaware)

Listeners: 0 out of 820 total

Atlanta Approach (North Satellite): 121.000

KFTY Ground/Tower (Archives)
Atlanta, Georgia, United States

Feed Status: UP
Listen in your browser - HTML5 player(in browser, HTML5)
Click here to listen with your own player(launches your MP3 player)

KFTY 270753Z 11004KT 10SM OVC004 18/17 A3016 RMK AO2 SLP207 T01780172

KFTY Airport Info (Airnav.com)

KFTY Flight Activity (Flightaware)

Listeners: 0 out of 820 total

County Ground: 121.700
County Tower: 118.450

KFWS Ground/Tower (Archives)
Fort Worth, Texas, United States

Feed Status: UP
Listen in your browser - HTML5 player(in browser, HTML5)
Click here to listen with your own player(launches your MP3 player)

KFWS 270815Z AUTO 01010G14KT 3SM 03/02 A3015 RMK AO2 T00280022 PWINO

KFWS Airport Info (Airnav.com)

KFWS Flight Activity (Flightaware)

Listeners: 0 out of 820 total

Spinks Ground: 119.475
Spinks Tower/CTAF: 124.625

KFXE ATIS (Archives)
Fort Lauderdale, Florida, United States

Feed Status: UP
Listen in your browser - HTML5 player(in browser, HTML5)
Click here to listen with your own player(launches your MP3 player)

KFXE 270753Z AUTO 10005KT 10SM CLR 27/24 A3001 RMK AO2 SLP163 T02670239 TSNO

KFXE Airport Info (Airnav.com)

KFXE Flight Activity (Flightaware)

Listeners: 0 out of 820 total

Executive ATIS: 119.850

KFXE Ground (Archives)
Fort Lauderdale, Florida, United States

Feed Status: UP
Listen in your browser - HTML5 player(in browser, HTML5)
Click here to listen with your own player(launches your MP3 player)

KFXE 270753Z AUTO 10005KT 10SM CLR 27/24 A3001 RMK AO2 SLP163 T02670239 TSNO

KFXE Airport Info (Airnav.com)

KFXE Flight Activity (Flightaware)

Listeners: 0 out of 820 total

Executive Ground: 121.750

KFXE Practice Area (Archives)
Fort Lauderdale, Florida, United States

Feed Status: UP
Listen in your browser - HTML5 player(in browser, HTML5)
Click here to listen with your own player(launches your MP3 player)

KFXE 270753Z AUTO 10005KT 10SM CLR 27/24 A3001 RMK AO2 SLP163 T02670239 TSNO

KFXE Airport Info (Airnav.com)

KFXE Flight Activity (Flightaware)

Listeners: 0 out of 820 total

Coral Springs/Everglades Practice Area: 123.450

KFXE Tower #1 (Archives)
Fort Lauderdale, Florida, United States

Feed Status: UP
Listen in your browser - HTML5 player(in browser, HTML5)
Click here to listen with your own player(launches your MP3 player)

KFXE 270753Z AUTO 10005KT 10SM CLR 27/24 A3001 RMK AO2 SLP163 T02670239 TSNO

KFXE Airport Info (Airnav.com)

KFXE Flight Activity (Flightaware)

Listeners: 0 out of 820 total

Ft. Lauderdale Exec Tower: 120.900

KFYV Gnd/Twr/App/ZME (Archives)
Fayetteville, Arkansas, United States

Feed Status: UP
Listen in your browser - HTML5 player(in browser, HTML5)
Click here to listen with your own player(launches your MP3 player)

KFYV 270819Z AUTO 00000KT 7SM RA FEW008 BKN029 OVC100 02/02 A3022 RMK AO2 P0006 T00220017

KFYV Airport Info (Airnav.com)

KFYV Flight Activity (Flightaware)

Listeners: 1 out of 820 total

Drake Ground: 121.800
Drake Tower: 128.000
Jonesboro Flight Service Station (FSS): 122.300
Memphis Center (High): 132.550
Memphis Center (High): 353.800
Razorback Approach: 121.000

KGAI CTAF/UNICOM (Archives)
Gaithersburg, Maryland, United States

Feed Status: UP
Listen in your browser - HTML5 player(in browser, HTML5)
Click here to listen with your own player(launches your MP3 player)

KGAI 270756Z AUTO 00000KT 5SM BR OVC050 13/12 A3015 RMK AO2 SLP223 T01280122

KGAI Airport Info (Airnav.com)

KGAI Flight Activity (Flightaware)

Listeners: 0 out of 820 total

Gaithersburg CTAF: 123.075

KGBR/20N CTAF
Great Barrington, Massachusetts, United States

Feed Status: DOWN
Offline since: 2019-07-21 23:53:05 UTC

KGBR Airport Info (Airnav.com)

Great Barrington CTAF: 122.800

KGDM/KORE CTAF (Archives)
Gardner, Massachusetts, United States

Feed Status: UP
Listen in your browser - HTML5 player(in browser, HTML5)
Click here to listen with your own player(launches your MP3 player)

KGDM Airport Info (Airnav.com)

KGDM Flight Activity (Flightaware)

Listeners: 0 out of 820 total

Gardner CTAF: 122.800

KGED ASOS (Archives)
Georgetown, Delaware, United States

Feed Status: UP
Listen in your browser - HTML5 player(in browser, HTML5)
Click here to listen with your own player(launches your MP3 player)

KGED 270819Z AUTO VRB03KT 3SM BR OVC002 16/16 A3012 RMK AO2 T01610161

KGED Airport Info (Airnav.com)

KGED Flight Activity (Flightaware)

Listeners: 0 out of 820 total

Georgetown ASOS: 118.375

KGED Clearance Delivery (Archives)
Georgetown, Delaware, United States

Feed Status: UP
Listen in your browser - HTML5 player(in browser, HTML5)
Click here to listen with your own player(launches your MP3 player)

KGED 270819Z AUTO VRB03KT 3SM BR OVC002 16/16 A3012 RMK AO2 T01610161

KGED Airport Info (Airnav.com)

KGED Flight Activity (Flightaware)

Listeners: 0 out of 820 total

Georgetown Clearance Delivery (Dover Approach): 125.550

KGED CTAF (Archives)
Georgetown, Delaware, United States

Feed Status: UP
Listen in your browser - HTML5 player(in browser, HTML5)
Click here to listen with your own player(launches your MP3 player)

KGED 270819Z AUTO VRB03KT 3SM BR OVC002 16/16 A3012 RMK AO2 T01610161

KGED Airport Info (Airnav.com)

KGED Flight Activity (Flightaware)

Listeners: 0 out of 820 total

Georgetown CTAF: 123.000

KGFK Approach (Archives)
Grand Forks, North Dakota, United States

Feed Status: UP
Listen in your browser - HTML5 player(in browser, HTML5)
Click here to listen with your own player(launches your MP3 player)

KGFK 270753Z AUTO 19010KT 10SM CLR M09/M13 A3009 RMK AO2 SLP205 T10891133 $

KGFK Airport Info (Airnav.com)

KGFK Flight Activity (Flightaware)

Listeners: 0 out of 820 total

Grand Forks Approach: 118.100
Grand Forks Approach (VFR): 132.300

KGFK ATIS (Archives)
Grand Forks, North Dakota, United States

Feed Status: UP
Listen in your browser - HTML5 player(in browser, HTML5)
Click here to listen with your own player(launches your MP3 player)

KGFK 270753Z AUTO 19010KT 10SM CLR M09/M13 A3009 RMK AO2 SLP205 T10891133 $

KGFK Airport Info (Airnav.com)

KGFK Flight Activity (Flightaware)

Listeners: 0 out of 820 total

Grand Forks ATIS: 119.400

KGFK Ground (Archives)
Grand Forks, North Dakota, United States

Feed Status: UP
Listen in your browser - HTML5 player(in browser, HTML5)
Click here to listen with your own player(launches your MP3 player)

KGFK 270753Z AUTO 19010KT 10SM CLR M09/M13 A3009 RMK AO2 SLP205 T10891133 $

KGFK Airport Info (Airnav.com)

KGFK Flight Activity (Flightaware)

Listeners: 0 out of 820 total

Grand Forks Ground: 124.575

KGFK Tower 1 (118.4/IFR/VFR) (Archives)
Grand Forks, North Dakota, United States

Feed Status: UP
Listen in your browser - HTML5 player(in browser, HTML5)
Click here to listen with your own player(launches your MP3 player)

KGFK 270753Z AUTO 19010KT 10SM CLR M09/M13 A3009 RMK AO2 SLP205 T10891133 $

KGFK Airport Info (Airnav.com)

KGFK Flight Activity (Flightaware)

Listeners: 0 out of 820 total

Grand Forks Tower (IFR/VFR): 118.400

KGFK Tower 2 (120.55/VFR) (Archives)
Grand Forks, North Dakota, United States

Feed Status: UP
Listen in your browser - HTML5 player(in browser, HTML5)
Click here to listen with your own player(launches your MP3 player)

KGFK 270753Z AUTO 19010KT 10SM CLR M09/M13 A3009 RMK AO2 SLP205 T10891133 $

KGFK Airport Info (Airnav.com)

KGFK Flight Activity (Flightaware)

Listeners: 0 out of 820 total

Grand Forks Tower (VFR): 120.550

KGFL CTAF/App (Archives)
Glens Falls, New York, United States

Feed Status: UP
Listen in your browser - HTML5 player(in browser, HTML5)
Click here to listen with your own player(launches your MP3 player)

KGFL 270753Z AUTO 01004KT 10SM FEW041 OVC060 08/06 A3014 RMK AO2 RAE50 SLP213 P0001 T00780056

KGFL Airport Info (Airnav.com)

KGFL Flight Activity (Flightaware)

Listeners: 0 out of 820 total

Albany Approach: 118.050
Albany Approach: 132.825
Glens Falls Unicom: 123.000
Unicom (Granville, Schroon Lake, Argyle, Heber Air: 122.900
Unicom (Saratoga Co., Rutland, Ticonderoga, Round : 122.800

KGIF ASOS (Archives)
Winter Haven, Florida, United States

Feed Status: UP
Listen in your browser - HTML5 player(in browser, HTML5)
Click here to listen with your own player(launches your MP3 player)

KGIF 270753Z AUTO 11005KT 10SM FEW029 A3005 RMK AO2 SLPNO $

KGIF Airport Info (Airnav.com)

KGIF Flight Activity (Flightaware)

Listeners: 0 out of 820 total

Winter Haven ASOS: 133.675

KGIF CTAF/GCO/Guard (Archives)
Winter Haven, Florida, United States

Feed Status: UP
Listen in your browser - HTML5 player(in browser, HTML5)
Click here to listen with your own player(launches your MP3 player)

KGIF 270753Z AUTO 11005KT 10SM FEW029 A3005 RMK AO2 SLPNO $

KGIF Airport Info (Airnav.com)

KGIF Flight Activity (Flightaware)

Listeners: 0 out of 820 total

Emergency/Guard: 121.500
Winter Haven CTAF: 123.050
Winter Haven GCO (Clearance Delivery): 121.725

KGIF GCO/Guard (Archives)
Winter Haven, Florida, United States

Feed Status: UP
Listen in your browser - HTML5 player(in browser, HTML5)
Click here to listen with your own player(launches your MP3 player)

KGIF 270753Z AUTO 11005KT 10SM FEW029 A3005 RMK AO2 SLPNO $

KGIF Airport Info (Airnav.com)

KGIF Flight Activity (Flightaware)

Listeners: 0 out of 820 total

Emergency/Guard: 121.500
Winter Haven GCO (Clearance Delivery): 121.725

KGIF/F57 CTAF (Archives)
Winter Haven, Florida, United States

Feed Status: UP
Listen in your browser - HTML5 player(in browser, HTML5)
Click here to listen with your own player(launches your MP3 player)

KGIF 270753Z AUTO 11005KT 10SM FEW029 A3005 RMK AO2 SLPNO $

KGIF Airport Info (Airnav.com)

KGIF Flight Activity (Flightaware)

Listeners: 0 out of 820 total

Winter Haven CTAF: 123.050

KGJT Gnd/Twr/App/ZDV (Archives)
Grand Junction, Colorado, United States

Feed Status: UP
Listen in your browser - HTML5 player(in browser, HTML5)
Click here to listen with your own player(launches your MP3 player)

KGJT 270753Z AUTO 12011KT 10SM CLR M09/M13 A3025 RMK AO2 SLP288 T10891133

KGJT Airport Info (Airnav.com)

KGJT Flight Activity (Flightaware)

Listeners: 1 out of 820 total

Denver Approach: 119.700
Denver Center (Sector 11 Grand Junction Low): 134.500
Grand Junction Ground: 121.700
Grand Junction Tower: 118.100

KGKY Ground/Tower (Archives)
Arlington, Texas, United States

Feed Status: UP
Listen in your browser - HTML5 player(in browser, HTML5)
Click here to listen with your own player(launches your MP3 player)

KGKY 270753Z AUTO 34012KT 7SM OVC007 05/03 A3015 RMK AO2 RAE0655 SLP210 P0000 T00500033

KGKY Airport Info (Airnav.com)

KGKY Flight Activity (Flightaware)

Listeners: 1 out of 820 total

Arlington Ground: 121.875
Arlington Tower: 128.625

KGMU ATIS (Archives)
Greenville, South Carolina, United States

Feed Status: UP
Listen in your browser - HTML5 player(in browser, HTML5)
Click here to listen with your own player(launches your MP3 player)

KGMU 270753Z AUTO 30003KT 9SM CLR 16/14 A3018 RMK AO2 SLP212 T01610144

KGMU Airport Info (Airnav.com)

KGMU Flight Activity (Flightaware)

Listeners: 0 out of 820 total

Greenville ATIS: 127.075

KGMU Ground (Archives)
Greenville, South Carolina, United States

Feed Status: UP
Listen in your browser - HTML5 player(in browser, HTML5)
Click here to listen with your own player(launches your MP3 player)

KGMU 270753Z AUTO 30003KT 9SM CLR 16/14 A3018 RMK AO2 SLP212 T01610144

KGMU Airport Info (Airnav.com)

KGMU Flight Activity (Flightaware)

Listeners: 0 out of 820 total

Greenville Ground: 121.250

KGMU Ground/Tower (Archives)
Greenville, South Carolina, United States

Feed Status: UP
Listen in your browser - HTML5 player(in browser, HTML5)
Click here to listen with your own player(launches your MP3 player)

KGMU 270753Z AUTO 30003KT 9SM CLR 16/14 A3018 RMK AO2 SLP212 T01610144

KGMU Airport Info (Airnav.com)

KGMU Flight Activity (Flightaware)

Listeners: 0 out of 820 total

Greenville Ground: 121.250
Greenville Tower: 119.900

KGMU Tower (Archives)
Greenville, South Carolina, United States

Feed Status: UP
Listen in your browser - HTML5 player(in browser, HTML5)
Click here to listen with your own player(launches your MP3 player)

KGMU 270753Z AUTO 30003KT 9SM CLR 16/14 A3018 RMK AO2 SLP212 T01610144

KGMU Airport Info (Airnav.com)

KGMU Flight Activity (Flightaware)

Listeners: 0 out of 820 total

Greenville Tower: 119.900

KGNV Ground/Tower (Archives)
Gainesville, Florida, United States

Feed Status: UP
Listen in your browser - HTML5 player(in browser, HTML5)
Click here to listen with your own player(launches your MP3 player)

KGNV 270753Z AUTO 08003KT 8SM OVC085 23/23 A3010 RMK AO2 SLP188 T02280228

KGNV Airport Info (Airnav.com)

KGNV Flight Activity (Flightaware)

Listeners: 0 out of 820 total

Gainesville Ground: 121.700
Gainesville Tower: 119.550

KGPT App/Dep (Archives)
Gulfport, Mississippi, United States

Feed Status: UP
Listen in your browser - HTML5 player(in browser, HTML5)
Click here to listen with your own player(launches your MP3 player)

KGPT 270753Z AUTO 04004KT 10SM OVC024 22/18 A2999 RMK AO2 SLP155 T02170178

KGPT Airport Info (Airnav.com)

KGPT Flight Activity (Flightaware)

Listeners: 0 out of 820 total

Gulfport Approach/Departure: 124.600
Gulfport Approach/Departure: 127.500

KGPT App/Dep #1 (Archives)
Gulfport, Mississippi, United States

Feed Status: UP
Listen in your browser - HTML5 player(in browser, HTML5)
Click here to listen with your own player(launches your MP3 player)

KGPT 270753Z AUTO 04004KT 10SM OVC024 22/18 A2999 RMK AO2 SLP155 T02170178

KGPT Airport Info (Airnav.com)

KGPT Flight Activity (Flightaware)

Listeners: 0 out of 820 total

Gulfport Approach/Departure: 124.600

KGPT App/Dep #2 (Archives)
Gulfport, Mississippi, United States

Feed Status: UP
Listen in your browser - HTML5 player(in browser, HTML5)
Click here to listen with your own player(launches your MP3 player)

KGPT 270753Z AUTO 04004KT 10SM OVC024 22/18 A2999 RMK AO2 SLP155 T02170178

KGPT Airport Info (Airnav.com)

KGPT Flight Activity (Flightaware)

Listeners: 0 out of 820 total

Gulfport Approach/Departure: 127.500

KGPT Approach (Final) (Archives)
Gulfport, Mississippi, United States

Feed Status: UP
Listen in your browser - HTML5 player(in browser, HTML5)
Click here to listen with your own player(launches your MP3 player)

KGPT 270753Z AUTO 04004KT 10SM OVC024 22/18 A2999 RMK AO2 SLP155 T02170178

KGPT Airport Info (Airnav.com)

KGPT Flight Activity (Flightaware)

Listeners: 0 out of 820 total

Gulfport Approach (Final): 126.750

KGPT ATIS (Archives)
Gulfport, Mississippi, United States

Feed Status: UP
Listen in your browser - HTML5 player(in browser, HTML5)
Click here to listen with your own player(launches your MP3 player)

KGPT 270753Z AUTO 04004KT 10SM OVC024 22/18 A2999 RMK AO2 SLP155 T02170178

KGPT Airport Info (Airnav.com)

KGPT Flight Activity (Flightaware)

Listeners: 0 out of 820 total

Gulfport ATIS: 119.450

KGPT Emergency/Guard (Archives)
Gulfport, Mississippi, United States

Feed Status: UP
Listen in your browser - HTML5 player(in browser, HTML5)
Click here to listen with your own player(launches your MP3 player)

KGPT 270753Z AUTO 04004KT 10SM OVC024 22/18 A2999 RMK AO2 SLP155 T02170178

KGPT Airport Info (Airnav.com)

KGPT Flight Activity (Flightaware)

Listeners: 0 out of 820 total

Emergency/Guard: 121.500

KGPT Gnd/Twr (Archives)
Gulfport, Mississippi, United States

Feed Status: UP
Listen in your browser - HTML5 player(in browser, HTML5)
Click here to listen with your own player(launches your MP3 player)

KGPT 270753Z AUTO 04004KT 10SM OVC024 22/18 A2999 RMK AO2 SLP155 T02170178

KGPT Airport Info (Airnav.com)

KGPT Flight Activity (Flightaware)

Listeners: 0 out of 820 total

Gulfport Ground: 120.400
Gulfport Tower: 123.700

KGPT Ground (Archives)
Gulfport, Mississippi, United States

Feed Status: UP
Listen in your browser - HTML5 player(in browser, HTML5)
Click here to listen with your own player(launches your MP3 player)

KGPT 270753Z AUTO 04004KT 10SM OVC024 22/18 A2999 RMK AO2 SLP155 T02170178

KGPT Airport Info (Airnav.com)

KGPT Flight Activity (Flightaware)

Listeners: 0 out of 820 total

Gulfport Ground: 120.400

KGPT Tower (Archives)
Gulfport, Mississippi, United States

Feed Status: UP
Listen in your browser - HTML5 player(in browser, HTML5)
Click here to listen with your own player(launches your MP3 player)

KGPT 270753Z AUTO 04004KT 10SM OVC024 22/18 A2999 RMK AO2 SLP155 T02170178

KGPT Airport Info (Airnav.com)

KGPT Flight Activity (Flightaware)

Listeners: 0 out of 820 total

Gulfport Tower: 123.700

KGQQ CTAF/Del/App (Archives)
Galion, Ohio, United States

Feed Status: UP
Listen in your browser - HTML5 player(in browser, HTML5)
Click here to listen with your own player(launches your MP3 player)

KGQQ Airport Info (Airnav.com)

KGQQ Flight Activity (Flightaware)

Listeners: 0 out of 820 total

Galion Clearance Delivery: 126.800
Galion CTAF/UNICOM: 122.800
Mansfield Approach: 124.200

KGRK Twr/App
Fort Hood (Killeen), Texas, United States

Feed Status: DOWN
Offline since: 2019-11-24 15:09:39 UTC

KGRK 270757Z 01013KT 1 1/4SM R33/4500FT BR OVC006 03/02 A3008 RMK AO2A SLP191 P0000 T00270023

KGRK Airport Info (Airnav.com)

Gray Tower: 120.750

KGTU Gnd/Twr (Archives)
Georgetown, Texas, United States

Feed Status: UP
Listen in your browser - HTML5 player(in browser, HTML5)
Click here to listen with your own player(launches your MP3 player)

KGTU 270756Z AUTO 02010KT 8SM OVC004 04/04 A3010 RMK AO2 SLP197 T00440039

KGTU Airport Info (Airnav.com)

KGTU Flight Activity (Flightaware)

Listeners: 0 out of 820 total

Georgetown Ground: 119.125
Georgetown Tower: 120.225

KGUS Del/Gnd/Twr/App
Peru, Indiana, United States

Feed Status: DOWN
Offline since: 2020-05-03 16:05:22 UTC

KGUS 270756Z AUTO 02006KT 10SM OVC033 05/05 A3027 RMK AO2 SLP258 T00530052 $

KGUS Airport Info (Airnav.com)

Grissom Approach: 121.050
Grissom Approach: 379.300
Grissom Approach (Basic Radar Service): 123.450
Grissom Approach (Basic Radar Service): 126.320
Grissom Approach (Basic Radar Service): 132.150
Grissom Approach (Basic Radar Service): 122.800
Grissom Approach (Basic Radar Service): 379.300
Grissom Approach (Basic Radar Service): 121.050
Grissom Clearance Delivery: 139.900
Grissom Departure: 351.100
Grissom Ground: 275.800
Grissom Ground: 128.425
Grissom Tower: 290.450
Grissom Tower: 133.700
Grisson Clearance Delivery: 324.300

KGVL AWOS (Archives)
Gainesville, Georgia, United States

Feed Status: UP
Listen in your browser - HTML5 player(in browser, HTML5)
Click here to listen with your own player(launches your MP3 player)

KGVL 270819Z AUTO 00000KT 2SM BR OVC003 17/16 A3019 RMK AO2 T01720161

KGVL Airport Info (Airnav.com)

KGVL Flight Activity (Flightaware)

Listeners: 0 out of 820 total

Gainesville AWOS: 126.475

KGVL CTAF/Clearance (Archives)
Gainesville, Georgia, United States

Feed Status: UP
Listen in your browser - HTML5 player(in browser, HTML5)
Click here to listen with your own player(launches your MP3 player)

KGVL 270819Z AUTO 00000KT 2SM BR OVC003 17/16 A3019 RMK AO2 T01720161

KGVL Airport Info (Airnav.com)

KGVL Flight Activity (Flightaware)

Listeners: 0 out of 820 total

Gainesville Clearance (Atlanta Center or TRACON): 134.800
Gainesville CTAF: 123.075

KGWS CTAF/Guard (Archives)
Glenwood Springs, Colorado, United States

Feed Status: UP
Listen in your browser - HTML5 player(in browser, HTML5)
Click here to listen with your own player(launches your MP3 player)

KGWS Airport Info (Airnav.com)

KGWS Flight Activity (Flightaware)

Listeners: 0 out of 820 total

Emergency/Guard: 121.500
Glenwood Springs CTAF: 123.000

KGXY CTAF (Archives)
Greeley, Colorado, United States

Feed Status: UP
Listen in your browser - HTML5 player(in browser, HTML5)
Click here to listen with your own player(launches your MP3 player)

KGXY 270826Z AUTO 33003KT 6SM BR OVC001 M23/M26 A3021 RMK AO2 FZRANO

KGXY Airport Info (Airnav.com)

KGXY Flight Activity (Flightaware)

Listeners: 0 out of 820 total

Greeley CTAF: 122.800

KGXY RCO (Denver Radio) (Archives)
Greeley, Colorado, United States

Feed Status: UP
Listen in your browser - HTML5 player(in browser, HTML5)
Click here to listen with your own player(launches your MP3 player)

KGXY 270826Z AUTO 33003KT 6SM BR OVC001 M23/M26 A3021 RMK AO2 FZRANO

KGXY Airport Info (Airnav.com)

KGXY Flight Activity (Flightaware)

Listeners: 1 out of 820 total

Greeley RCO (Denver Radio): 122.650

KGYH Tower (Archives)
Greenville, South Carolina, United States

Feed Status: UP
Listen in your browser - HTML5 player(in browser, HTML5)
Click here to listen with your own player(launches your MP3 player)

KGMU 270753Z AUTO 30003KT 9SM CLR 16/14 A3018 RMK AO2 SLP212 T01610144

KGMU Airport Info (Airnav.com)

KGMU Flight Activity (Flightaware)

Listeners: 0 out of 820 total

Donaldson Tower: 133.325

KGYI ATIS (Archives)
Sherman/Denison, Texas, United States

Feed Status: UP
Listen in your browser - HTML5 player(in browser, HTML5)
Click here to listen with your own player(launches your MP3 player)

KGYI 270815Z AUTO 02012G18KT 4SM -RA OVC006 03/02 A3018 RMK AO2 LTG DSNT NE T00260017

KGYI Airport Info (Airnav.com)

KGYI Flight Activity (Flightaware)

Listeners: 0 out of 820 total

North Texas ATIS: 118.775

KGYI Ground/Tower (Archives)
Sherman/Denison, Texas, United States

Feed Status: UP
Listen in your browser - HTML5 player(in browser, HTML5)
Click here to listen with your own player(launches your MP3 player)

KGYI 270815Z AUTO 02012G18KT 4SM -RA OVC006 03/02 A3018 RMK AO2 LTG DSNT NE T00260017

KGYI Airport Info (Airnav.com)

KGYI Flight Activity (Flightaware)

Listeners: 0 out of 820 total

North Texas Ground: 124.125
North Texas Tower: 120.575

KGYR Ground (Archives)
Goodyear, Arizona, United States

Feed Status: UP
Listen in your browser - HTML5 player(in browser, HTML5)
Click here to listen with your own player(launches your MP3 player)

KGYR 270347Z 03020G29KT 10SM SCT120 14/M11 A2989 RMK LAST

KGYR Airport Info (Airnav.com)

KGYR Flight Activity (Flightaware)

Listeners: 0 out of 820 total

Goodyear Ground: 121.700

KGYR Ground/Tower (Archives)
Goodyear, Arizona, United States

Feed Status: UP
Listen in your browser - HTML5 player(in browser, HTML5)
Click here to listen with your own player(launches your MP3 player)

KGYR 270347Z 03020G29KT 10SM SCT120 14/M11 A2989 RMK LAST

KGYR Airport Info (Airnav.com)

KGYR Flight Activity (Flightaware)

Listeners: 0 out of 820 total

Goodyear Ground: 121.700
Goodyear Tower: 120.100

KGYR Tower (Archives)
Goodyear, Arizona, United States

Feed Status: UP
Listen in your browser - HTML5 player(in browser, HTML5)
Click here to listen with your own player(launches your MP3 player)

KGYR 270347Z 03020G29KT 10SM SCT120 14/M11 A2989 RMK LAST

KGYR Airport Info (Airnav.com)

KGYR Flight Activity (Flightaware)

Listeners: 0 out of 820 total

Goodyear Tower: 120.100

KHBG CTAF (Air Race Classic)
Hattiesburg, Mississippi, United States

Feed Status: DOWN
Offline since: 2019-07-19 17:38:22 UTC

Hattiesburg CTAF: 122.800

KHBZ CTAF (Archives)
Heber Springs, Arkansas, United States

Feed Status: UP
Listen in your browser - HTML5 player(in browser, HTML5)
Click here to listen with your own player(launches your MP3 player)

KHBZ Airport Info (Airnav.com)

KHBZ Flight Activity (Flightaware)

Listeners: 0 out of 820 total

Heber Springs CTAF/UNICOM: 122.700

KHDC De/Gnd/Twr/App/ZHU (Archives)
Hammond, Louisiana, United States

Feed Status: UP
Listen in your browser - HTML5 player(in browser, HTML5)
Click here to listen with your own player(launches your MP3 player)

KHDC 270815Z AUTO 02005KT 10SM SCT038 BKN047 18/17 A3001 RMK AO2

KHDC Airport Info (Airnav.com)

KHDC Flight Activity (Flightaware)

Listeners: 0 out of 820 total

Hammond CTAF: 122.700
Hammond Ground: 119.850
Hammond Tower: 120.575
Houston Center (Low): 126.350
New Orleans Approach (West): 125.500
New Orleans Clearance/Approach: 119.300

KHEF Del/Gnd/Twr (Archives)
Manassas, Virginia, United States

Feed Status: UP
Listen in your browser - HTML5 player(in browser, HTML5)
Click here to listen with your own player(launches your MP3 player)

KHEF 270818Z AUTO 00000KT 1 3/4SM BR OVC003 14/13 A3015 RMK AO2

KHEF Airport Info (Airnav.com)

KHEF Flight Activity (Flightaware)

Listeners: 0 out of 820 total

Manassas Clearance Delivery (after Tower closes): 120.200
Manassas Ground: 121.800
Manassas Tower: 133.100

KHFD Ground/Tower (Archives)
Hartford, Connecticut, United States

Feed Status: UP
Listen in your browser - HTML5 player(in browser, HTML5)
Click here to listen with your own player(launches your MP3 player)

KHFD 270812Z AUTO 00000KT 5SM BR BKN004 OVC016 11/09 A3008 RMK AO2 T01060094

KHFD Airport Info (Airnav.com)

KHFD Flight Activity (Flightaware)

Listeners: 0 out of 820 total

Brainard Ground: 121.600
Brainard Tower: 119.600

KHGR Tower (Archives)
Hagerstown, Maryland, United States

Feed Status: UP
Listen in your browser - HTML5 player(in browser, HTML5)
Click here to listen with your own player(launches your MP3 player)

KMRB 270753Z AUTO 01003KT 9SM SCT021 BKN036 OVC080 12/11 A3015 RMK AO2 SLP208 T01170106

KMRB Airport Info (Airnav.com)

KMRB Flight Activity (Flightaware)

Listeners: 0 out of 820 total

Hagerstown Tower: 120.300

KHHR Ground/Tower
Hawthorne, California, United States

Feed Status: DOWN
Offline since: 2020-10-02 19:33:05 UTC

KHHR 270753Z AUTO VRB03KT 10SM CLR 15/M09 A3005 RMK AO2 SLP174 T01501089 402170139

KHHR Airport Info (Airnav.com)

Hawthorne Ground: 125.100
Hawthorne Tower: 121.100

KHIO Ground (Archives)
Portland, Oregon, United States

Feed Status: UP
Listen in your browser - HTML5 player(in browser, HTML5)
Click here to listen with your own player(launches your MP3 player)

KHIO 270753Z AUTO 00000KT 7SM CLR M01/M02 A3044 RMK AO2 SLP311 T10061017 401331044

KHIO Airport Info (Airnav.com)

KHIO Flight Activity (Flightaware)

Listeners: 0 out of 820 total

Hillsboro Ground: 121.700

KHIO Tower (Both) (Archives)
Portland, Oregon, United States

Feed Status: UP
Listen in your browser - HTML5 player(in browser, HTML5)
Click here to listen with your own player(launches your MP3 player)

KHIO 270753Z AUTO 00000KT 7SM CLR M01/M02 A3044 RMK AO2 SLP311 T10061017 401331044

KHIO Airport Info (Airnav.com)

KHIO Flight Activity (Flightaware)

Listeners: 0 out of 820 total

Hillsboro Tower: 119.300
Hillsboro Tower: 132.800

KHIO Tower (Primary) (Archives)
Portland, Oregon, United States

Feed Status: UP
Listen in your browser - HTML5 player(in browser, HTML5)
Click here to listen with your own player(launches your MP3 player)

KHIO 270753Z AUTO 00000KT 7SM CLR M01/M02 A3044 RMK AO2 SLP311 T10061017 401331044

KHIO Airport Info (Airnav.com)

KHIO Flight Activity (Flightaware)

Listeners: 0 out of 820 total

Hillsboro Tower: 119.300

KHKY ASOS (Archives)
Hickory, North Carolina, United States

Feed Status: UP
Listen in your browser - HTML5 player(in browser, HTML5)
Click here to listen with your own player(launches your MP3 player)

KHKY 270811Z AUTO 00000KT 3/4SM BR VV002 13/12 A3016 RMK AO2 VIS 1/4V3 T01280117 $

KHKY Airport Info (Airnav.com)

KHKY Flight Activity (Flightaware)

Listeners: 0 out of 820 total

Hickory ASOS: 118.325

KHKY Del/Gnd/Twr/ZTL
Hickory, North Carolina, United States

Feed Status: DOWN
Offline since: 2020-10-25 02:05:39 UTC

KHKY 270811Z AUTO 00000KT 3/4SM BR VV002 13/12 A3016 RMK AO2 VIS 1/4V3 T01280117 $

KHKY Airport Info (Airnav.com)

Altanta Center Clearance Delivery: 124.250
Atlanta Center (Sector 47 MOPED Low): 134.550
Atlanta Center (Sector 48 Wilkes Ultra Low): 125.150
Hickory Ground: 121.700
Hickory Tower: 128.150

KHKY Emergency/Guard (Archives)
Hickory, North Carolina, United States

Feed Status: UP
Listen in your browser - HTML5 player(in browser, HTML5)
Click here to listen with your own player(launches your MP3 player)

KHKY 270811Z AUTO 00000KT 3/4SM BR VV002 13/12 A3016 RMK AO2 VIS 1/4V3 T01280117 $

KHKY Airport Info (Airnav.com)

KHKY Flight Activity (Flightaware)

Listeners: 0 out of 820 total

Emergency/Guard: 121.500

KHKY Ground (Archives)
Hickory, North Carolina, United States

Feed Status: UP
Listen in your browser - HTML5 player(in browser, HTML5)
Click here to listen with your own player(launches your MP3 player)

KHKY 270811Z AUTO 00000KT 3/4SM BR VV002 13/12 A3016 RMK AO2 VIS 1/4V3 T01280117 $

KHKY Airport Info (Airnav.com)

KHKY Flight Activity (Flightaware)

Listeners: 0 out of 820 total

Hickory Ground: 121.700

KHKY Tower (Archives)
Hickory, North Carolina, United States

Feed Status: UP
Listen in your browser - HTML5 player(in browser, HTML5)
Click here to listen with your own player(launches your MP3 player)

KHKY 270811Z AUTO 00000KT 3/4SM BR VV002 13/12 A3016 RMK AO2 VIS 1/4V3 T01280117 $

KHKY Airport Info (Airnav.com)

KHKY Flight Activity (Flightaware)

Listeners: 0 out of 820 total

Hickory Tower: 128.150

KHMT CTAF
Hemet, California, United States

Feed Status: DOWN
Offline since: 2020-08-16 05:23:05 UTC

KHMT 270815Z AUTO 07004KT 10SM 07/M14 A3006 RMK AO2

KHMT Airport Info (Airnav.com)

Hemet CTAF: 123.000

KHND Ground/Tower (Archives)
Las Vegas, Nevada, United States

Feed Status: UP
Listen in your browser - HTML5 player(in browser, HTML5)
Click here to listen with your own player(launches your MP3 player)

KHND 270756Z AUTO 16003KT 10SM CLR 03/M16 A3016 RMK AO2 SLP237 T00331161 401330028

KHND Airport Info (Airnav.com)

KHND Flight Activity (Flightaware)

Listeners: 0 out of 820 total

Henderson Ground: 127.800
Henderson Tower: 125.100

KHPN ATIS (Archives)
White Plains, New York, United States

Feed Status: UP
Listen in your browser - HTML5 player(in browser, HTML5)
Click here to listen with your own player(launches your MP3 player)

KHPN 270756Z 27004KT 1 1/2SM BR VV002 13/13 A3007 RMK AO2 SLP183 T01330133 $

KHPN Airport Info (Airnav.com)

KHPN Flight Activity (Flightaware)

Listeners: 0 out of 820 total

Westchester County ATIS: 133.800

KHPN Del/Gnd/Tower #1 (Archives)
White Plains, New York, United States

Feed Status: UP
Listen in your browser - HTML5 player(in browser, HTML5)
Click here to listen with your own player(launches your MP3 player)

KHPN 270756Z 27004KT 1 1/2SM BR VV002 13/13 A3007 RMK AO2 SLP183 T01330133 $

KHPN Airport Info (Airnav.com)

KHPN Flight Activity (Flightaware)

Listeners: 0 out of 820 total

Westchester Clearance Delivery: 127.250
Westchester Ground: 121.825
Westchester Tower: 118.575

KHPN Del/Gnd/Tower #2 (Archives)
White Plains, New York, United States

Feed Status: UP
Listen in your browser - HTML5 player(in browser, HTML5)
Click here to listen with your own player(launches your MP3 player)

KHPN 270756Z 27004KT 1 1/2SM BR VV002 13/13 A3007 RMK AO2 SLP183 T01330133 $

KHPN Airport Info (Airnav.com)

KHPN Flight Activity (Flightaware)

Listeners: 0 out of 820 total

Westchester Clearance Delivery: 127.250
Westchester Ground: 121.825
Westchester Tower: 118.575

KHPN Delivery/Ground (Archives)
White Plains, New York, United States

Feed Status: UP
Listen in your browser - HTML5 player(in browser, HTML5)
Click here to listen with your own player(launches your MP3 player)

KHPN 270756Z 27004KT 1 1/2SM BR VV002 13/13 A3007 RMK AO2 SLP183 T01330133 $

KHPN Airport Info (Airnav.com)

KHPN Flight Activity (Flightaware)

Listeners: 0 out of 820 total

Westchester Clearance Delivery: 127.250
Westchester Ground: 121.825

KHPN Tower (Archives)
New York, New York, United States

Feed Status: UP
Listen in your browser - HTML5 player(in browser, HTML5)
Click here to listen with your own player(launches your MP3 player)

KHPN 270756Z 27004KT 1 1/2SM BR VV002 13/13 A3007 RMK AO2 SLP183 T01330133 $

KHPN Airport Info (Airnav.com)

KHPN Flight Activity (Flightaware)

Listeners: 0 out of 820 total

Westchester Tower: 118.575

KHPN Tower (Archives)
New York, New York, United States

Feed Status: UP
Listen in your browser - HTML5 player(in browser, HTML5)
Click here to listen with your own player(launches your MP3 player)

KHPN 270756Z 27004KT 1 1/2SM BR VV002 13/13 A3007 RMK AO2 SLP183 T01330133 $

KHPN Airport Info (Airnav.com)

KHPN Flight Activity (Flightaware)

Listeners: 0 out of 820 total

Westchester Tower: 118.575

NY Approach (NOBBI/NYACK/HAARP) (Archives)
New York, New York, United States

Feed Status: UP
Listen in your browser - HTML5 player(in browser, HTML5)
Click here to listen with your own player(launches your MP3 player)

KHPN 270756Z 27004KT 1 1/2SM BR VV002 13/13 A3007 RMK AO2 SLP183 T01330133 $

KHPN Airport Info (Airnav.com)

KHPN Flight Activity (Flightaware)

Listeners: 0 out of 820 total

New York Approach (HAARP Sector): 135.350
New York Approach (HAARP Sector): 120.800
New York Approach (NOBBI Sector): 126.400
New York Approach (NYACK Sector): 120.550

KHQZ Tower (Archives)
Mesquite, Texas, United States

Feed Status: UP
Listen in your browser - HTML5 player(in browser, HTML5)
Click here to listen with your own player(launches your MP3 player)

KHQZ 270815Z AUTO 36010KT 3SM OVC006 04/04 A3013 RMK AO1 T00420042

KHQZ Airport Info (Airnav.com)

KHQZ Flight Activity (Flightaware)

Listeners: 0 out of 820 total

Mesquite Tower: 120.300

KHRL Gnd/Twr/App (Archives)
Harlingen, Texas, United States

Feed Status: UP
Listen in your browser - HTML5 player(in browser, HTML5)
Click here to listen with your own player(launches your MP3 player)

KHRL 270752Z AUTO 11004KT 10SM CLR 21/21 A2987 RMK AO2 SLP115 T02110206

KHRL Airport Info (Airnav.com)

KHRL Flight Activity (Flightaware)

Listeners: 0 out of 820 total

Harlingen Clearance/Ground: 121.700
Harlingen Tower: 119.300
Valley Approach: 120.700

KHRL Tower/CTAF
Harlingen, Texas, United States

Feed Status: DOWN
Offline since: 2020-09-14 14:56:39 UTC

KHRL 270752Z AUTO 11004KT 10SM CLR 21/21 A2987 RMK AO2 SLP115 T02110206

KHRL Airport Info (Airnav.com)

Harlingen Tower: 119.300

KHRO CTAF/ZME/Misc (Archives)
Harrison, Arkansas, United States

Feed Status: UP
Listen in your browser - HTML5 player(in browser, HTML5)
Click here to listen with your own player(launches your MP3 player)

KHRO 270753Z AUTO 35004KT 5SM RA BR OVC004 01/01 A3021 RMK AO2 SLP238 P0006 T00110006

KHRO Airport Info (Airnav.com)

KHRO Flight Activity (Flightaware)

Listeners: 1 out of 820 total

Boone County CTAF: 123.000
Jonesboro FSS: 122.450
Jonesboro FSS: 255.400
KBBG Tower (aircraft only): 128.150
Memphis Center (Low): 126.850
Memphis Center (Low): 281.550
Memphis Center (Ultra-High): 133.025
Memphis Center (Ultra-High): 284.750
Springfield Approach (aircraft only): 126.350

KHUF App/Dep
Terre Haute, Indiana, United States

Feed Status: DOWN
Offline since: 2020-10-15 02:33:05 UTC

KHUF 270753Z AUTO 36004KT 3SM BR OVC007 07/04 A3028 RMK AO2 SLP255 T00670044

KHUF Airport Info (Airnav.com)

Hulman Approach: 125.450

KHUF Emergency/Guard
Terre Haute, Indiana, United States

Feed Status: DOWN
Offline since: 2020-10-15 02:33:22 UTC

KHUF 270753Z AUTO 36004KT 3SM BR OVC007 07/04 A3028 RMK AO2 SLP255 T00670044

KHUF Airport Info (Airnav.com)

Emergency/Guard: 121.500

KHUF Gnd/Twr
Terre Haute, Indiana, United States

Feed Status: DOWN
Offline since: 2020-10-15 02:33:22 UTC

KHUF 270753Z AUTO 36004KT 3SM BR OVC007 07/04 A3028 RMK AO2 SLP255 T00670044

KHUF Airport Info (Airnav.com)

Hulman Ground/Clearance: 121.600
Hulman Tower: 134.725

KHUF Gnd/Twr/App
Terre Haute, Indiana, United States

Feed Status: DOWN
Offline since: 2020-10-15 02:33:22 UTC

KHUF 270753Z AUTO 36004KT 3SM BR OVC007 07/04 A3028 RMK AO2 SLP255 T00670044

KHUF Airport Info (Airnav.com)

Hulman Approach: 125.450
Hulman Ground/Clearance: 121.600
Hulman Tower: 134.725
Indianapolis Center (Sector 35 Terre Haute Low): 132.200
Indianapolis Center (Sector 80 King High): 134.175

KHUF Ground
Terre Haute, Indiana, United States

Feed Status: DOWN
Offline since: 2020-10-15 02:33:22 UTC

KHUF 270753Z AUTO 36004KT 3SM BR OVC007 07/04 A3028 RMK AO2 SLP255 T00670044

KHUF Airport Info (Airnav.com)

Hulman Ground/Clearance: 121.600

KHUF Tower
Terre Haute, Indiana, United States

Feed Status: DOWN
Offline since: 2020-10-15 02:33:22 UTC

KHUF 270753Z AUTO 36004KT 3SM BR OVC007 07/04 A3028 RMK AO2 SLP255 T00670044

KHUF Airport Info (Airnav.com)

Hulman Tower: 134.725

KHUL ASOS (Archives)
Houlton, Maine, United States

Feed Status: UP
Listen in your browser - HTML5 player(in browser, HTML5)
Click here to listen with your own player(launches your MP3 player)

KHUL 270753Z AUTO 25004KT 10SM -RA BKN050 OVC070 04/03 A2999 RMK AO2 SLP161 P0001 T00440033

KHUL Airport Info (Airnav.com)

KHUL Flight Activity (Flightaware)

Listeners: 0 out of 820 total

Houlton ASOS: 132.025

KHUL/KPQI/ZBW01/15 (Archives)
Houlton, Maine, United States

Feed Status: UP
Listen in your browser - HTML5 player(in browser, HTML5)
Click here to listen with your own player(launches your MP3 player)

KHUL 270753Z AUTO 25004KT 10SM -RA BKN050 OVC070 04/03 A2999 RMK AO2 SLP161 P0001 T00440033

KHUL Airport Info (Airnav.com)

KHUL Flight Activity (Flightaware)

Listeners: 0 out of 820 total

Boston Center (Sector 01 Millinocket High Sector): 128.050
Boston Center (Sector 01 Millinocket High Sector): 319.100
Boston Center (Surry 15 Low Sector): 120.250
Boston Center (Surry 15 Low Sector): 346.400
Boston Center (Surry 15 Low Sector): 124.750
Emergency/Guard: 121.500
Houlton CTAF/UNICOM: 122.800
Presque Isle CTAF/UNICOM: 122.800

KHUT Ground/Twr (Archives)
Hutchinson, Kansas, United States

Feed Status: UP
Listen in your browser - HTML5 player(in browser, HTML5)
Click here to listen with your own player(launches your MP3 player)

KHUT 270752Z AUTO 36007KT 10SM OVC039 M03/M08 A3036 RMK AO2 SLP290 T10281078

KHUT Airport Info (Airnav.com)

KHUT Flight Activity (Flightaware)

Listeners: 1 out of 820 total

Emergency/Guard: 121.500
Hutchinson Ground: 121.900
Hutchinson Tower: 118.500

KHVN Ground/Tower (Archives)
New Haven, Connecticut, United States

Feed Status: UP
Listen in your browser - HTML5 player(in browser, HTML5)
Click here to listen with your own player(launches your MP3 player)

KHVN 270753Z AUTO 00000KT 1 1/2SM BR OVC004 14/14 A3007 RMK AO2 SLP182 T01440144

KHVN Airport Info (Airnav.com)

KHVN Flight Activity (Flightaware)

Listeners: 0 out of 820 total

New Haven Ground: 121.700
New Haven Tower: 124.800

KHWD Ground/Tower (Archives)
Hayward, California, United States

Feed Status: UP
Listen in your browser - HTML5 player(in browser, HTML5)
Click here to listen with your own player(launches your MP3 player)

KHWD 270754Z AUTO 00000KT 10SM CLR 13/M07 A3010 RMK AO2 SLP202 T01331072 402560128

KHWD Airport Info (Airnav.com)

KHWD Flight Activity (Flightaware)

Listeners: 0 out of 820 total

Hayward Ground: 121.400
Hayward Tower: 118.900
Hayward Tower: 120.200

KHWO ATIS (Archives)
Hollywood, Florida, United States

Feed Status: UP
Listen in your browser - HTML5 player(in browser, HTML5)
Click here to listen with your own player(launches your MP3 player)

KHWO 270753Z AUTO 09005KT 10SM CLR 27/25 A3002 RMK AO2 SLP165 T02670250

KHWO Airport Info (Airnav.com)

KHWO Flight Activity (Flightaware)

Listeners: 0 out of 820 total

North Perry ATIS: 135.475

KHWO Ground (Archives)
Hollywood, Florida, United States

Feed Status: UP
Listen in your browser - HTML5 player(in browser, HTML5)
Click here to listen with your own player(launches your MP3 player)

KHWO 270753Z AUTO 09005KT 10SM CLR 27/25 A3002 RMK AO2 SLP165 T02670250

KHWO Airport Info (Airnav.com)

KHWO Flight Activity (Flightaware)

Listeners: 0 out of 820 total

North Perry Ground: 120.450

KHWO Tower (Both) (Archives)
Hollywood, Florida, United States

Feed Status: UP
Listen in your browser - HTML5 player(in browser, HTML5)
Click here to listen with your own player(launches your MP3 player)

KHWO 270753Z AUTO 09005KT 10SM CLR 27/25 A3002 RMK AO2 SLP165 T02670250

KHWO Airport Info (Airnav.com)

KHWO Flight Activity (Flightaware)

Listeners: 0 out of 820 total

North Perry Tower (Primary): 132.100
North Perry Tower (Secondary): 134.300

KHWO Tower (Primary)
Hollywood, Florida, United States

Feed Status: DOWN
Offline since: 2019-12-30 16:50:05 UTC

KHWO 270753Z AUTO 09005KT 10SM CLR 27/25 A3002 RMK AO2 SLP165 T02670250

KHWO Airport Info (Airnav.com)

North Perry Tower (Primary): 132.100

KHWO Tower (Secondary) (Archives)
Hollywood, Florida, United States

Feed Status: UP
Listen in your browser - HTML5 player(in browser, HTML5)
Click here to listen with your own player(launches your MP3 player)

KHWO 270753Z AUTO 09005KT 10SM CLR 27/25 A3002 RMK AO2 SLP165 T02670250

KHWO Airport Info (Airnav.com)

KHWO Flight Activity (Flightaware)

Listeners: 0 out of 820 total

North Perry Tower (Secondary): 134.300

KHWV CTAF (Archives)
Shirley, New York, United States

Feed Status: UP
Listen in your browser - HTML5 player(in browser, HTML5)
Click here to listen with your own player(launches your MP3 player)

KHWV 270756Z AUTO 23003KT 1/4SM FG VV002 16/14 A3008 RMK AO2 SLP184 T01560139

KHWV Airport Info (Airnav.com)

KHWV Flight Activity (Flightaware)

Listeners: 0 out of 820 total

Brookhaven CTAF: 122.800
Emergency/Guard: 121.500

KHXD Ground/Tower (Archives)
Hilton Head Island, South Carolina, United States

Feed Status: UP
Listen in your browser - HTML5 player(in browser, HTML5)
Click here to listen with your own player(launches your MP3 player)

KHXD 270815Z AUTO 00000KT 9SM OVC017 20/19 A3015 RMK AO2

KHXD Airport Info (Airnav.com)

KHXD Flight Activity (Flightaware)

Listeners: 0 out of 820 total

Hilton Head Ground: 121.100
Hilton Head Tower: 118.975

ARINC Oceanic (Archives)
Hyannis, Massachusetts, United States

Feed Status: UP
Listen in your browser - HTML5 player(in browser, HTML5)
Click here to listen with your own player(launches your MP3 player)

KHYA 270756Z AUTO 25005KT 1/2SM FG VV002 15/15 A3003 RMK AO2 SLP169 T01500150

KHYA Airport Info (Airnav.com)

KHYA Flight Activity (Flightaware)

Listeners: 0 out of 820 total

ARINC Oceanic: 129.900

Boston Approach (Cape North) (Archives)
Hyannis, Massachusetts, United States

Feed Status: UP
Listen in your browser - HTML5 player(in browser, HTML5)
Click here to listen with your own player(launches your MP3 player)

KFMH 270745Z 20005KT <1/4SM FG OVC002 15/15 A3004

KFMH Airport Info (Airnav.com)

KFMH Flight Activity (Flightaware)

Listeners: 0 out of 820 total

Boston Approach (Cape North Arrival): 118.200

KHYA ATIS (Archives)
Hyannis, Massachusetts, United States

Feed Status: UP
Listen in your browser - HTML5 player(in browser, HTML5)
Click here to listen with your own player(launches your MP3 player)

KHYA 270756Z AUTO 25005KT 1/2SM FG VV002 15/15 A3003 RMK AO2 SLP169 T01500150

KHYA Airport Info (Airnav.com)

KHYA Flight Activity (Flightaware)

Listeners: 0 out of 820 total

Hyannis ATIS: 123.800

KHYA Del/Gnd (Archives)
Hyannis, Massachusetts, United States

Feed Status: UP
Listen in your browser - HTML5 player(in browser, HTML5)
Click here to listen with your own player(launches your MP3 player)

KHYA 270756Z AUTO 25005KT 1/2SM FG VV002 15/15 A3003 RMK AO2 SLP169 T01500150

KHYA Airport Info (Airnav.com)

KHYA Flight Activity (Flightaware)

Listeners: 0 out of 820 total

Hyannis Clearance Delivery: 125.150
Hyannis Ground: 118.450

KHYA Del/Gnd/Twr (Archives)
Hyannis, Massachusetts, United States

Feed Status: UP
Listen in your browser - HTML5 player(in browser, HTML5)
Click here to listen with your own player(launches your MP3 player)

KHYA 270756Z AUTO 25005KT 1/2SM FG VV002 15/15 A3003 RMK AO2 SLP169 T01500150

KHYA Airport Info (Airnav.com)

KHYA Flight Activity (Flightaware)

Listeners: 0 out of 820 total

Hyannis Clearance Delivery: 125.150
Hyannis Ground: 118.450
Hyannis Tower: 119.500

KHYA Emergency/Guard (Archives)
Hyannis, Massachusetts, United States

Feed Status: UP
Listen in your browser - HTML5 player(in browser, HTML5)
Click here to listen with your own player(launches your MP3 player)

KHYA 270756Z AUTO 25005KT 1/2SM FG VV002 15/15 A3003 RMK AO2 SLP169 T01500150

KHYA Airport Info (Airnav.com)

KHYA Flight Activity (Flightaware)

Listeners: 0 out of 820 total

Emergency/Guard: 121.500

KHYA Tower (Archives)
Hyannis, Massachusetts, United States

Feed Status: UP
Listen in your browser - HTML5 player(in browser, HTML5)
Click here to listen with your own player(launches your MP3 player)

KHYA 270756Z AUTO 25005KT 1/2SM FG VV002 15/15 A3003 RMK AO2 SLP169 T01500150

KHYA Airport Info (Airnav.com)

KHYA Flight Activity (Flightaware)

Listeners: 0 out of 820 total

Hyannis Tower: 119.500

KHYI Gnd/Twr/Misc (Archives)
Austin, Texas, United States

Feed Status: UP
Listen in your browser - HTML5 player(in browser, HTML5)
Click here to listen with your own player(launches your MP3 player)

KHYI 270756Z AUTO 02013KT 10SM OVC006 06/06 A3006 RMK AO2 SLP176 T00610056

KHYI Airport Info (Airnav.com)

KHYI Flight Activity (Flightaware)

Listeners: 0 out of 820 total

Redbird FBO ASRI: 130.850
San Marcos Ground: 120.125
San Marcos Tower: 126.825

KHYS CTAF (Archives)
Hays, Kansas, United States

Feed Status: UP
Listen in your browser - HTML5 player(in browser, HTML5)
Click here to listen with your own player(launches your MP3 player)

KHYS 270756Z AUTO 26004KT 10SM CLR M07/M11 A3039 RMK AO2 SLP320 T10721106 FZRANO

KHYS Airport Info (Airnav.com)

KHYS Flight Activity (Flightaware)

Listeners: 0 out of 820 total

Hays CTAF: 122.800

KIAG Del/Gnd/Twr (Archives)
Niagara Falls, New York, United States

Feed Status: UP
Listen in your browser - HTML5 player(in browser, HTML5)
Click here to listen with your own player(launches your MP3 player)

KIAG 270753Z AUTO 33005KT 10SM FEW038 SCT049 BKN110 06/03 A3022 RMK AO2 SLP243 T00560033

KIAG Airport Info (Airnav.com)

KIAG Flight Activity (Flightaware)

Listeners: 1 out of 820 total

Niagara Clearance Delivery: 119.250
Niagara Emergency/Guard: 121.500
Niagara Ground: 121.700
Niagara Tower: 118.500
Niagara UNICOM: 122.950

KIKV Del/CTAF (Archives)
Ankeny, Iowa, United States

Feed Status: UP
Listen in your browser - HTML5 player(in browser, HTML5)
Click here to listen with your own player(launches your MP3 player)

KIKV 270815Z AUTO 00000KT 10SM OVC100 M03/M07 A3038 RMK AO2

KIKV Airport Info (Airnav.com)

KIKV Flight Activity (Flightaware)

Listeners: 0 out of 820 total

Ankeny Clearance Delivery (Des Moines via RCO): 126.650
Ankeny CTAF: 122.900

KILM Gnd/Twr/App (Archives)
Wilmington, North Carolina, United States

Feed Status: UP
Listen in your browser - HTML5 player(in browser, HTML5)
Click here to listen with your own player(launches your MP3 player)

KILM 270753Z AUTO 00000KT 10SM OVC022 18/17 A3015 RMK AO2 SLP210 T01830172

KILM Airport Info (Airnav.com)

KILM Flight Activity (Flightaware)

Listeners: 0 out of 820 total

Emergency/Guard: 121.500
Wilmington Approach: 118.250
Wilmington Approach: 135.750
Wilmington Approach: 317.425
Wilmington Approach: 284.650
Wilmington Ground: 121.900
Wilmington Ground: 348.600
Wilmington Tower: 119.900
Wilmington Tower: 239.300

KILM Gnd/Twr/App/ZDC (Archives)
Wilmington, North Carolina, United States

Feed Status: UP
Listen in your browser - HTML5 player(in browser, HTML5)
Click here to listen with your own player(launches your MP3 player)

KILM 270753Z AUTO 00000KT 10SM OVC022 18/17 A3015 RMK AO2 SLP210 T01830172

KILM Airport Info (Airnav.com)

KILM Flight Activity (Flightaware)

Listeners: 0 out of 820 total

Emergency/Guard: 121.500
Washington Center (Sector 35 Wilmington High): 269.150
Washington Center (Sector 35 Wilmington High): 124.025
Wilmington Approach: 317.425
Wilmington Approach: 284.650
Wilmington Approach: 135.750
Wilmington Approach: 118.250
Wilmington Ground: 121.900
Wilmington Ground: 348.600
Wilmington Tower: 239.300
Wilmington Tower: 119.900

KINF CTAF (Archives)
Inverness, Florida, United States

Feed Status: UP
Listen in your browser - HTML5 player(in browser, HTML5)
Click here to listen with your own player(launches your MP3 player)

KINF 270835Z AUTO 00000KT 7SM SCT019 BKN028 OVC036 24/24 A3006 RMK AO2

KINF Airport Info (Airnav.com)

KINF Flight Activity (Flightaware)

Listeners: 0 out of 820 total

Inverness CTAF: 122.725

KINT Ground/Tower (Archives)
Winston Salem, North Carolina, United States

Feed Status: UP
Listen in your browser - HTML5 player(in browser, HTML5)
Click here to listen with your own player(launches your MP3 player)

KINT 270820Z AUTO 00000KT 1SM BR VV001 12/12 A3017 RMK AO2 T01220122

KINT Airport Info (Airnav.com)

KINT Flight Activity (Flightaware)

Listeners: 0 out of 820 total

Winston-Salem Ground: 128.250
Winston-Salem Tower: 123.750

KCID Gnd/Twr/App/KIOW (Archives)
Iowa City, Iowa, United States

Feed Status: UP
Listen in your browser - HTML5 player(in browser, HTML5)
Click here to listen with your own player(launches your MP3 player)

KCID 270752Z AUTO 34010KT 10SM OVC095 M03/M07 A3036 RMK AO2 SLP292 T10281072

KCID Airport Info (Airnav.com)

KCID Flight Activity (Flightaware)

Listeners: 0 out of 820 total

Cedar Rapids Approach (091-269): 119.700
Cedar Rapids Approach (270-090): 134.050
Cedar Rapids Clearance Delivery: 125.450
Cedar Rapids Ground (0500-2330): 121.600
Cedar Rapids Tower (0500-2330): 118.700
UNICOM C17 (Marion) and surrounding area: 122.700
UNICOM IA24 Green Castle: 122.900
UNICOM KIOW (Iowa City) and surrounding area: 122.800

KIPJ CTAF/Del (Archives)
Lincolnton, North Carolina, United States

Feed Status: UP
Listen in your browser - HTML5 player(in browser, HTML5)
Click here to listen with your own player(launches your MP3 player)

KIPJ 270835Z AUTO 00000KT 1/4SM FG OVC001 11/11 A3016 RMK AO2 T01100110

KIPJ Airport Info (Airnav.com)

KIPJ Flight Activity (Flightaware)

Listeners: 0 out of 820 total

Lincolnton Clearance Delivery: 124.900
Lincolnton CTAF: 123.050

KISM Del/Gnd (Archives)
Orlando, Florida, United States

Feed Status: UP
Listen in your browser - HTML5 player(in browser, HTML5)
Click here to listen with your own player(launches your MP3 player)

KJSM Airport Info (Airnav.com)

KJSM Flight Activity (Flightaware)

Listeners: 0 out of 820 total

Emergency/Guard: 121.500
Kissimmee Ground/Clearance Delivery: 121.700

KISM Del/Gnd/Twr (Archives)
Orlando, Florida, United States

Feed Status: UP
Listen in your browser - HTML5 player(in browser, HTML5)
Click here to listen with your own player(launches your MP3 player)

KJSM Airport Info (Airnav.com)

KJSM Flight Activity (Flightaware)

Listeners: 0 out of 820 total

Emergency/Guard: 121.500
Kissimmee Ground/Clearance Delivery: 121.700
Kissimmee Tower/CTAF: 124.450

KISM Tower (Archives)
Orlando, Florida, United States

Feed Status: UP
Listen in your browser - HTML5 player(in browser, HTML5)
Click here to listen with your own player(launches your MP3 player)

KJSM Airport Info (Airnav.com)

KJSM Flight Activity (Flightaware)

Listeners: 0 out of 820 total

Kissimmee Tower/CTAF: 124.450

KIWA ATIS (Archives)
Phoenix, Arizona, United States

Feed Status: UP
Listen in your browser - HTML5 player(in browser, HTML5)
Click here to listen with your own player(launches your MP3 player)

KIWA 270815Z AUTO 01004KT 10SM SCT120 09/M09 A2991 RMK AO2 T00941089

KIWA Airport Info (Airnav.com)

KIWA Flight Activity (Flightaware)

Listeners: 0 out of 820 total

Gateway ATIS: 133.500

KIWA Clearance Delivery (Archives)
Phoenix, Arizona, United States

Feed Status: UP
Listen in your browser - HTML5 player(in browser, HTML5)
Click here to listen with your own player(launches your MP3 player)

KIWA 270815Z AUTO 01004KT 10SM SCT120 09/M09 A2991 RMK AO2 T00941089

KIWA Airport Info (Airnav.com)

KIWA Flight Activity (Flightaware)

Listeners: 0 out of 820 total

Gateway Clearance Delivery: 135.050

KIWA Ground (Archives)
Phoenix, Arizona, United States

Feed Status: UP
Listen in your browser - HTML5 player(in browser, HTML5)
Click here to listen with your own player(launches your MP3 player)

KIWA 270815Z AUTO 01004KT 10SM SCT120 09/M09 A2991 RMK AO2 T00941089

KIWA Airport Info (Airnav.com)

KIWA Flight Activity (Flightaware)

Listeners: 0 out of 820 total

Gateway Ground: 128.250

KIWA Tower (Archives)
Phoenix, Arizona, United States

Feed Status: UP
Listen in your browser - HTML5 player(in browser, HTML5)
Click here to listen with your own player(launches your MP3 player)

KIWA 270815Z AUTO 01004KT 10SM SCT120 09/M09 A2991 RMK AO2 T00941089

KIWA Airport Info (Airnav.com)

KIWA Flight Activity (Flightaware)

Listeners: 0 out of 820 total

Gateway Tower (East): 124.750
Gateway Tower (West): 120.600

KIXD ASOS/ATIS (Archives)
Olathe, Kansas, United States

Feed Status: UP
Listen in your browser - HTML5 player(in browser, HTML5)
Click here to listen with your own player(launches your MP3 player)

KIXD 270753Z AUTO 01010KT 10SM OVC035 M02/M06 A3037 RMK AO2 SLP293 T10171056

KIXD Airport Info (Airnav.com)

KIXD Flight Activity (Flightaware)

Listeners: 0 out of 820 total

New Century ATIS/ASOS: 135.325

KIXD Ground/Tower/K34 (Archives)
Olathe, Kansas, United States

Feed Status: UP
Listen in your browser - HTML5 player(in browser, HTML5)
Click here to listen with your own player(launches your MP3 player)

KIXD 270753Z AUTO 01010KT 10SM OVC035 M02/M06 A3037 RMK AO2 SLP293 T10171056

KIXD Airport Info (Airnav.com)

KIXD Flight Activity (Flightaware)

Listeners: 0 out of 820 total

K34 CTAF: 122.800
New Century Ground: 124.300
New Century Tower: 133.000

KJCA CTAF (Archives)
Jefferson, Georgia, United States

Feed Status: UP
Listen in your browser - HTML5 player(in browser, HTML5)
Click here to listen with your own player(launches your MP3 player)

KJCA 270815Z AUTO 00000KT 4SM BR OVC005 17/17 A3018 RMK AO2 T01740173

KJCA Airport Info (Airnav.com)

KJCA Flight Activity (Flightaware)

Listeners: 0 out of 820 total

Jefferson CTAF: 122.800

KJFX CTAF
Jasper, Alabama, United States

Feed Status: DOWN
Offline since: 2019-12-15 18:54:39 UTC

KJFX 270815Z AUTO 00000KT 7SM OVC005 16/16 A3013 RMK AO2 PWINO

KJFX Airport Info (Airnav.com)

Walker County CTAF: 122.700

KJLN ATIS (Archives)
Joplin, Missouri, United States

Feed Status: UP
Listen in your browser - HTML5 player(in browser, HTML5)
Click here to listen with your own player(launches your MP3 player)

KJLN 270753Z AUTO 02011KT 9SM -FZRA OVC008 00/M01 A3030 RMK AO2 UPB14E23FZRAE0659B23 SLP269 P0002 I1001 T00001011

KJLN Airport Info (Airnav.com)

KJLN Flight Activity (Flightaware)

Listeners: 0 out of 820 total

Joplin ATIS: 120.850

KJLN Ground (Archives)
Joplin, Missouri, United States

Feed Status: UP
Listen in your browser - HTML5 player(in browser, HTML5)
Click here to listen with your own player(launches your MP3 player)

KJLN 270753Z AUTO 02011KT 9SM -FZRA OVC008 00/M01 A3030 RMK AO2 UPB14E23FZRAE0659B23 SLP269 P0002 I1001 T00001011

KJLN Airport Info (Airnav.com)

KJLN Flight Activity (Flightaware)

Listeners: 0 out of 820 total

Joplin Ground: 121.600

KJLN Ground/Tower (Archives)
Joplin, Missouri, United States

Feed Status: UP
Listen in your browser - HTML5 player(in browser, HTML5)
Click here to listen with your own player(launches your MP3 player)

KJLN 270753Z AUTO 02011KT 9SM -FZRA OVC008 00/M01 A3030 RMK AO2 UPB14E23FZRAE0659B23 SLP269 P0002 I1001 T00001011

KJLN Airport Info (Airnav.com)

KJLN Flight Activity (Flightaware)

Listeners: 0 out of 820 total

Joplin Ground: 121.600
Joplin Tower: 119.800

KJLN Tower (Archives)
Joplin, Missouri, United States

Feed Status: UP
Listen in your browser - HTML5 player(in browser, HTML5)
Click here to listen with your own player(launches your MP3 player)

KJLN 270753Z AUTO 02011KT 9SM -FZRA OVC008 00/M01 A3030 RMK AO2 UPB14E23FZRAE0659B23 SLP269 P0002 I1001 T00001011

KJLN Airport Info (Airnav.com)

KJLN Flight Activity (Flightaware)

Listeners: 0 out of 820 total

Joplin Tower: 119.800

KJNX AWOS (Archives)
Smithfield, North Carolina, United States

Feed Status: UP
Listen in your browser - HTML5 player(in browser, HTML5)
Click here to listen with your own player(launches your MP3 player)

KJNX 260315Z AUTO 01005KT 10SM OVC006 12/11 A3008 RMK AO2

KJNX Airport Info (Airnav.com)

KJNX Flight Activity (Flightaware)

Listeners: 0 out of 820 total

Johnston AWOS: 120.225

KJNX CTAF (Archives)
Smithfield, North Carolina, United States

Feed Status: UP
Listen in your browser - HTML5 player(in browser, HTML5)
Click here to listen with your own player(launches your MP3 player)

KJNX 260315Z AUTO 01005KT 10SM OVC006 12/11 A3008 RMK AO2

KJNX Airport Info (Airnav.com)

KJNX Flight Activity (Flightaware)

Listeners: 0 out of 820 total

Johnston CTAF: 122.725

KJQF Ground/Tower (Archives)
Concord, North Carolina, United States

Feed Status: UP
Listen in your browser - HTML5 player(in browser, HTML5)
Click here to listen with your own player(launches your MP3 player)

KJQF 270835Z AUTO 00000KT 1SM BR OVC002 12/12 A3018 RMK AO2

KJQF Airport Info (Airnav.com)

KJQF Flight Activity (Flightaware)

Listeners: 0 out of 820 total

Concord Ground: 121.850
Concord Tower: 134.650

KJWY/2TS6 CTAF/Unicom (Archives)
Midlothian/Waxahachie, Texas, United States

Feed Status: UP
Listen in your browser - HTML5 player(in browser, HTML5)
Click here to listen with your own player(launches your MP3 player)

KJWY 270815Z AUTO 36011KT 5SM BR OVC008 03/03 A3014 RMK AO2 T00340034

KJWY Airport Info (Airnav.com)

KJWY Flight Activity (Flightaware)

Listeners: 0 out of 820 total

Mid-Way CTAF/UNICOM: 122.975

Regional Approach (South/RBD)
Midlothian/Waxahachie, Texas, United States

Feed Status: DOWN
Offline since: 2020-03-29 19:10:05 UTC

KRBD 261953Z 20011KT 10SM FEW045 30/18 A2985 RMK AO2 SLP099 T03000183

KRBD Airport Info (Airnav.com)

Regional Approach (South): 125.200

KJYO AWOS (Archives)
Leesburg, Virginia, United States

Feed Status: UP
Listen in your browser - HTML5 player(in browser, HTML5)
Click here to listen with your own player(launches your MP3 player)

KJYO 270815Z AUTO 00000KT 10SM OVC050 09/09 A3015 RMK AO2

KJYO Airport Info (Airnav.com)

KJYO Flight Activity (Flightaware)

Listeners: 0 out of 820 total

Leesburg AWOS: 125.225

KJYO CTAF/Tower (Archives)
Leesburg, Virginia, United States

Feed Status: UP
Listen in your browser - HTML5 player(in browser, HTML5)
Click here to listen with your own player(launches your MP3 player)

KJYO 270815Z AUTO 00000KT 10SM OVC050 09/09 A3015 RMK AO2

KJYO Airport Info (Airnav.com)

KJYO Flight Activity (Flightaware)

Listeners: 0 out of 820 total

Leesburg CTAF: 122.975
Leesburg Tower: 127.500

KJYO Del/Gnd (Archives)
Leesburg, Virginia, United States

Feed Status: UP
Listen in your browser - HTML5 player(in browser, HTML5)
Click here to listen with your own player(launches your MP3 player)

KJYO 270815Z AUTO 00000KT 10SM OVC050 09/09 A3015 RMK AO2

KJYO Airport Info (Airnav.com)

KJYO Flight Activity (Flightaware)

Listeners: 0 out of 820 total

Leesburg Clearance Delivery (Potomac TRACON): 118.550
Leesburg Ground: 120.500

ZDC Sectors 12/04 (Archives)
Leesburg, Virginia, United States

Feed Status: UP
Listen in your browser - HTML5 player(in browser, HTML5)
Click here to listen with your own player(launches your MP3 player)

KIAD 270752Z 00000KT 10SM BKN050 OVC065 13/13 A3014 RMK AO2 SLP206 T01330128

KIAD Airport Info (Airnav.com)

KIAD Flight Activity (Flightaware)

Listeners: 0 out of 820 total

Washington Center (Sector 04 Pinion High): 133.975
Washington Center (Sector 12 Brooke High): 126.875
Washington Center (ZDC Guard Dog Low (Shared w/Potomac TRACON): 135.525

KLAF App/Dep (Archives)
Lafayette, Indiana, United States

Feed Status: UP
Listen in your browser - HTML5 player(in browser, HTML5)
Click here to listen with your own player(launches your MP3 player)

KLAF 270754Z AUTO 36005KT 10SM OVC033 06/03 A3030 RMK AO2 SLP261 T00610033

KLAF Airport Info (Airnav.com)

KLAF Flight Activity (Flightaware)

Listeners: 0 out of 820 total

Grissom Approach: 123.850

KLAF ATIS (Archives)
Lafayette, Indiana, United States

Feed Status: UP
Listen in your browser - HTML5 player(in browser, HTML5)
Click here to listen with your own player(launches your MP3 player)

KLAF 270754Z AUTO 36005KT 10SM OVC033 06/03 A3030 RMK AO2 SLP261 T00610033

KLAF Airport Info (Airnav.com)

KLAF Flight Activity (Flightaware)

Listeners: 0 out of 820 total

Lafayette ATIS: 127.750

KLAF Ground (Archives)
Lafayette, Indiana, United States

Feed Status: UP
Listen in your browser - HTML5 player(in browser, HTML5)
Click here to listen with your own player(launches your MP3 player)

KLAF 270754Z AUTO 36005KT 10SM OVC033 06/03 A3030 RMK AO2 SLP261 T00610033

KLAF Airport Info (Airnav.com)

KLAF Flight Activity (Flightaware)

Listeners: 0 out of 820 total

Lafayette Ground: 121.900

KLAF Tower (Archives)
Lafayette, Indiana, United States

Feed Status: UP
Listen in your browser - HTML5 player(in browser, HTML5)
Click here to listen with your own player(launches your MP3 player)

KLAF 270754Z AUTO 36005KT 10SM OVC033 06/03 A3030 RMK AO2 SLP261 T00610033

KLAF Airport Info (Airnav.com)

KLAF Flight Activity (Flightaware)

Listeners: 0 out of 820 total

Lafayette Tower: 119.600

KLAL Approach/Departure (Archives)
Lakeland, Florida, United States

Feed Status: UP
Listen in your browser - HTML5 player(in browser, HTML5)
Click here to listen with your own player(launches your MP3 player)

KLAL 270815Z AUTO 11005KT 10SM BKN034 25/23 A3005 RMK AO2 PNO

KLAL Airport Info (Airnav.com)

KLAL Flight Activity (Flightaware)

Listeners: 0 out of 820 total

Emergency/Guard: 121.500
Tampa Approach: 119.900
Tampa Approach (KLAL IFR Arrivals Cancelling): 120.650

KLAL ATIS (Archives)
Lakeland, Florida, United States

Feed Status: UP
Listen in your browser - HTML5 player(in browser, HTML5)
Click here to listen with your own player(launches your MP3 player)

KLAL 270815Z AUTO 11005KT 10SM BKN034 25/23 A3005 RMK AO2 PNO

KLAL Airport Info (Airnav.com)

KLAL Flight Activity (Flightaware)

Listeners: 0 out of 820 total

Lakeland ATIS: 118.025

KLAL Ground/Advisory (Archives)
Lakeland, Florida, United States

Feed Status: UP
Listen in your browser - HTML5 player(in browser, HTML5)
Click here to listen with your own player(launches your MP3 player)

KLAL 270815Z AUTO 11005KT 10SM BKN034 25/23 A3005 RMK AO2 PNO

KLAL Airport Info (Airnav.com)

KLAL Flight Activity (Flightaware)

Listeners: 0 out of 820 total

Lakeland Ground: 121.400
Lakeland Helicopter: 123.025
Lakeland IFR Ground Control: 127.100
Paradise City Advisory: 123.625
Sun 'n Fun Ground Advisory: 126.075
Warbird Parking Advisory: 125.025

KLAL Tower (Archives)
Lakeland, Florida, United States

Feed Status: UP
Listen in your browser - HTML5 player(in browser, HTML5)
Click here to listen with your own player(launches your MP3 player)

KLAL 270815Z AUTO 11005KT 10SM BKN034 25/23 A3005 RMK AO2 PNO

KLAL Airport Info (Airnav.com)

KLAL Flight Activity (Flightaware)

Listeners: 0 out of 820 total

Lakeland Tower: 124.500

KLBE Ground/Tower (Archives)
Latrobe, Pennsylvania, United States

Feed Status: UP
Listen in your browser - HTML5 player(in browser, HTML5)
Click here to listen with your own player(launches your MP3 player)

KLBE 270815Z AUTO 32005KT 10SM BKN013 OVC019 08/07 A3023 RMK AO2

KLBE Airport Info (Airnav.com)

KLBE Flight Activity (Flightaware)

Listeners: 0 out of 820 total

Latrobe Ground: 121.800
Latrobe Tower: 125.000

KLBX CTAF
Angleton/Lake Jackson, Texas, United States

Feed Status: DOWN
Offline since: 2020-10-21 16:56:39 UTC

KLBX 270753Z AUTO 35008KT 10SM BKN012 OVC019 18/16 A2997 RMK AO2 SLP149 T01830156

KLBX Airport Info (Airnav.com)

KLBX CTAF: 123.000

KLCI AWOS (Archives)
Laconia, New Hampshire, United States

Feed Status: UP
Listen in your browser - HTML5 player(in browser, HTML5)
Click here to listen with your own player(launches your MP3 player)

KLCI 270756Z AUTO 29006KT 10SM -RA OVC018 08/07 A3007 RMK AO2 RAB48 SLP185 P0000 T00830067

KLCI Airport Info (Airnav.com)

KLCI Flight Activity (Flightaware)

Listeners: 0 out of 820 total

Laconia AWOS: 133.525

KLCI Del/CTAF (Archives)
Laconia, New Hampshire, United States

Feed Status: UP
Listen in your browser - HTML5 player(in browser, HTML5)
Click here to listen with your own player(launches your MP3 player)

KLCI 270756Z AUTO 29006KT 10SM -RA OVC018 08/07 A3007 RMK AO2 RAB48 SLP185 P0000 T00830067

KLCI Airport Info (Airnav.com)

KLCI Flight Activity (Flightaware)

Listeners: 0 out of 820 total

Laconia Clearance Delivery (Boston Approach): 119.850
Laconia CTAF: 123.000

KLEE App/Dep (Archives)
Leesburg, Florida, United States

Feed Status: UP
Listen in your browser - HTML5 player(in browser, HTML5)
Click here to listen with your own player(launches your MP3 player)

KLEE 270753Z AUTO 07006KT 10SM FEW018 BKN042 24/23 A3006 RMK AO2 SLP179 T02440233

KLEE Airport Info (Airnav.com)

KLEE Flight Activity (Flightaware)

Listeners: 0 out of 820 total

Orlando Approach: 135.300
Orlando Approach: 120.225

KLEE ASOS (Archives)
Leesburg, Florida, United States

Feed Status: UP
Listen in your browser - HTML5 player(in browser, HTML5)
Click here to listen with your own player(launches your MP3 player)

KLEE 270753Z AUTO 07006KT 10SM FEW018 BKN042 24/23 A3006 RMK AO2 SLP179 T02440233

KLEE Airport Info (Airnav.com)

KLEE Flight Activity (Flightaware)

Listeners: 0 out of 820 total

Leesburg ASOS: 134.325

KLEE Ground (Archives)
Leesburg, Florida, United States

Feed Status: UP
Listen in your browser - HTML5 player(in browser, HTML5)
Click here to listen with your own player(launches your MP3 player)

KLEE 270753Z AUTO 07006KT 10SM FEW018 BKN042 24/23 A3006 RMK AO2 SLP179 T02440233

KLEE Airport Info (Airnav.com)

KLEE Flight Activity (Flightaware)

Listeners: 0 out of 820 total

Leesburg Ground: 121.725

KLEE Tower (Archives)
Leesburg, Florida, United States

Feed Status: UP
Listen in your browser - HTML5 player(in browser, HTML5)
Click here to listen with your own player(launches your MP3 player)

KLEE 270753Z AUTO 07006KT 10SM FEW018 BKN042 24/23 A3006 RMK AO2 SLP179 T02440233

KLEE Airport Info (Airnav.com)

KLEE Flight Activity (Flightaware)

Listeners: 0 out of 820 total

Leesburg Tower: 119.350

KLFI Del/Gnd/Twr (Archives)
Hampton, Virginia, United States

Feed Status: UP
Listen in your browser - HTML5 player(in browser, HTML5)
Click here to listen with your own player(launches your MP3 player)

KLFI 270821Z AUTO 26005KT 1SM R08/5000VP6000FT BR OVC002 15/15 A3016 RMK AO2 VIS 1V1 5/8 VIS 3/8 RWY26 CIG 001 RWY26 SLP220 $

KLFI Airport Info (Airnav.com)

KLFI Flight Activity (Flightaware)

Listeners: 0 out of 820 total

Langley Clearance Delivery: 257.625
Langley Ground: 275.800
Langley Tower: 253.500
Langley Tower: 236.600

KLGB Clearance Delivery (Archives)
Long Beach, California, United States

Feed Status: UP
Listen in your browser - HTML5 player(in browser, HTML5)
Click here to listen with your own player(launches your MP3 player)

KLGB 270753Z AUTO 00000KT 7SM OVC028 12/M02 A3004 RMK AO2 SLP173 T01221022 402280117

KLGB Airport Info (Airnav.com)

KLGB Flight Activity (Flightaware)

Listeners: 0 out of 820 total

Long Beach Clearance Delivery: 118.150

KLGB Ground (Archives)
Long Beach, California, United States

Feed Status: UP
Listen in your browser - HTML5 player(in browser, HTML5)
Click here to listen with your own player(launches your MP3 player)

KLGB 270753Z AUTO 00000KT 7SM OVC028 12/M02 A3004 RMK AO2 SLP173 T01221022 402280117

KLGB Airport Info (Airnav.com)

KLGB Flight Activity (Flightaware)

Listeners: 0 out of 820 total

Long Beach Ground: 133.000

KLGB Tower (Archives)
Long Beach, California, United States

Feed Status: UP
Listen in your browser - HTML5 player(in browser, HTML5)
Click here to listen with your own player(launches your MP3 player)

KLGB 270753Z AUTO 00000KT 7SM OVC028 12/M02 A3004 RMK AO2 SLP173 T01221022 402280117

KLGB Airport Info (Airnav.com)

KLGB Flight Activity (Flightaware)

Listeners: 0 out of 820 total

Long Beach Tower: 119.400

KCTJ/KLGC CTAF (Archives)
LaGrange, Georgia, United States

Feed Status: UP
Listen in your browser - HTML5 player(in browser, HTML5)
Click here to listen with your own player(launches your MP3 player)

KCCO 270815Z AUTO 09004KT 1SM BR OVC003 20/18 A3015 RMK AO2 T01950180

KCCO Airport Info (Airnav.com)

KCCO Flight Activity (Flightaware)

Listeners: 0 out of 820 total

KCTJ/KLGC CTAF: 122.975

KLGC CTAF (Air Race Classic)
LaGrange, Georgia, United States

Feed Status: DOWN
Offline since: 2020-04-29 17:54:05 UTC

LaGrange CTAF: 122.975

KLHZ CTAF (Archives)
Louisburg, North Carolina, United States

Feed Status: UP
Listen in your browser - HTML5 player(in browser, HTML5)
Click here to listen with your own player(launches your MP3 player)

KLHZ 270815Z AUTO 00000KT 1/2SM FG OVC001 11/11 A3019 RMK AO2

KLHZ Airport Info (Airnav.com)

KLHZ Flight Activity (Flightaware)

Listeners: 0 out of 820 total

Louisburg CTAF/UNICOM: 123.000
Louisburg GCO: 135.075
Raleigh Approach (East): 125.300

KFTG/KEIK/KBDU/KLMO/Misc (Archives)
Longmont, Colorado, United States

Feed Status: UP
Listen in your browser - HTML5 player(in browser, HTML5)
Click here to listen with your own player(launches your MP3 player)

KDEN 270753Z 21010KT 10SM CLR M12/M17 A3016 RMK AO2 SLP275 T11221172

KDEN Airport Info (Airnav.com)

KDEN Flight Activity (Flightaware)

Listeners: 0 out of 820 total

Air-to-Air Fixed Wing: 122.750
Air-to-Air Informal: 123.450
Boulder CTAF: 122.725
Erie CTAF: 123.000
Front Range Tower: 120.200
KBKF Tower: 121.000
Longmont CTAF: 122.975
MULTICOM: 122.900
UNICOM: 122.950

KLMO CTAF (Archives)
Longmont, Colorado, United States

Feed Status: UP
Listen in your browser - HTML5 player(in browser, HTML5)
Click here to listen with your own player(launches your MP3 player)

KLMO 270815Z AUTO 21003KT 10SM CLR M16/M19 A3019 RMK AO2 T11621189

KLMO Airport Info (Airnav.com)

KLMO Flight Activity (Flightaware)

Listeners: 0 out of 820 total

Fort Collins CTAF: 122.700
Longmont CTAF: 122.975

KLNS Ground/Tower (Archives)
Lancaster, Pennsylvania, United States

Feed Status: UP
Listen in your browser - HTML5 player(in browser, HTML5)
Click here to listen with your own player(launches your MP3 player)

KLNS 270753Z AUTO 27006KT 6SM BR OVC060 12/11 A3013 RMK AO2 SLP204 T01170106

KLNS Airport Info (Airnav.com)

KLNS Flight Activity (Flightaware)

Listeners: 1 out of 820 total

Lancaster Ground: 121.800
Lancaster Tower: 120.900

KLNS Tower (Archives)
Lancaster, Pennsylvania, United States

Feed Status: UP
Listen in your browser - HTML5 player(in browser, HTML5)
Click here to listen with your own player(launches your MP3 player)

KLNS 270753Z AUTO 27006KT 6SM BR OVC060 12/11 A3013 RMK AO2 SLP204 T01170106

KLNS Airport Info (Airnav.com)

KLNS Flight Activity (Flightaware)

Listeners: 1 out of 820 total

Lancaster Tower: 120.900

KLOU ATIS (Archives)
Louisville, Kentucky, United States

Feed Status: UP
Listen in your browser - HTML5 player(in browser, HTML5)
Click here to listen with your own player(launches your MP3 player)

KLOU 270753Z AUTO 04005KT 10SM SCT110 09/07 A3022 RMK AO2 SLP235 T00890067

KLOU Airport Info (Airnav.com)

KLOU Flight Activity (Flightaware)

Listeners: 0 out of 820 total

Bowman ATIS: 120.025

KLOU Del/Gnd (Archives)
Louisville, Kentucky, United States

Feed Status: UP
Listen in your browser - HTML5 player(in browser, HTML5)
Click here to listen with your own player(launches your MP3 player)

KLOU 270753Z AUTO 04005KT 10SM SCT110 09/07 A3022 RMK AO2 SLP235 T00890067

KLOU Airport Info (Airnav.com)

KLOU Flight Activity (Flightaware)

Listeners: 0 out of 820 total

Bowman Clearance Delivery: 118.900
Bowman Ground: 121.800

KLOU Del/Gnd/Twr (Archives)
Louisville, Kentucky, United States

Feed Status: UP
Listen in your browser - HTML5 player(in browser, HTML5)
Click here to listen with your own player(launches your MP3 player)

KLOU 270753Z AUTO 04005KT 10SM SCT110 09/07 A3022 RMK AO2 SLP235 T00890067

KLOU Airport Info (Airnav.com)

KLOU Flight Activity (Flightaware)

Listeners: 0 out of 820 total

Bowman Clearance Delivery: 118.900
Bowman Ground: 121.800
Bowman Tower: 119.500

KLOU Tower (Archives)
Louisville, Kentucky, United States

Feed Status: UP
Listen in your browser - HTML5 player(in browser, HTML5)
Click here to listen with your own player(launches your MP3 player)

KLOU 270753Z AUTO 04005KT 10SM SCT110 09/07 A3022 RMK AO2 SLP235 T00890067

KLOU Airport Info (Airnav.com)

KLOU Flight Activity (Flightaware)

Listeners: 0 out of 820 total

Bowman Tower: 119.500

KLRD Ground/Tower (Archives)
Laredo, Texas, United States

Feed Status: UP
Listen in your browser - HTML5 player(in browser, HTML5)
Click here to listen with your own player(launches your MP3 player)

KLRD 270756Z AUTO 34009G16KT 10SM BKN007 OVC012 11/09 A2999 RMK AO2 RAE56 CIG 006V010 SLP153 P0000 T01060094

KLRD Airport Info (Airnav.com)

KLRD Flight Activity (Flightaware)

Listeners: 0 out of 820 total

Laredo Ground: 121.800
Laredo Tower: 120.100
Laredo UNICOM: 122.950

KLUK Twr/App/Dep (Archives)
Cincinnati, Ohio, United States

Feed Status: UP
Listen in your browser - HTML5 player(in browser, HTML5)
Click here to listen with your own player(launches your MP3 player)

KLUK 270753Z AUTO 05003KT 8SM SCT014 OVC070 08/07 A3027 RMK AO2 SLP251 T00830067

KLUK Airport Info (Airnav.com)

KLUK Flight Activity (Flightaware)

Listeners: 0 out of 820 total

Cincinnati Approach: 121.000
Cincinnati Departure: 128.700
Lunken Tower: 118.700

KLWM Ground/Tower (Archives)
Lawrence, Massachusetts, United States

Feed Status: UP
Listen in your browser - HTML5 player(in browser, HTML5)
Click here to listen with your own player(launches your MP3 player)

KLWM 270754Z AUTO 00000KT 7SM FEW005 SCT017 OVC031 09/08 A3007 RMK AO2 SLP185 T00890083

KLWM Airport Info (Airnav.com)

KLWM Flight Activity (Flightaware)

Listeners: 0 out of 820 total

Eagle East Jet Service: 122.850
Emergency/Guard: 121.500
Four Star Aviation Jet Center: 123.300
Lawrence Clearance (after hours, Boston Approach): 126.150
Lawrence Ground: 124.300
Lawrence Tower: 119.250
Northeast Executive Jet: 130.600

KLXT CTAF (Air Race Classic)
Lee's Summit, Missouri, United States

Feed Status: DOWN
Offline since: 2019-06-27 20:24:02 UTC

Lee's Summit CTAF: 122.800

KLXT/3GV CTAF (Archives)
Lee's Summit, Missouri, United States

Feed Status: UP
Listen in your browser - HTML5 player(in browser, HTML5)
Click here to listen with your own player(launches your MP3 player)

KOJC 270753Z AUTO 36006KT 10SM OVC034 M01/M04 A3036 RMK AO2 SLP294 T10111039

KOJC Airport Info (Airnav.com)

KOJC Flight Activity (Flightaware)

Listeners: 0 out of 820 total

Lee's Summit/Grain Valley CTAF: 122.800

KLXT/KMKC Area Helicopters (Archives)
Lee's Summit, Missouri, United States

Feed Status: UP
Listen in your browser - HTML5 player(in browser, HTML5)
Click here to listen with your own player(launches your MP3 player)

KOJC 270753Z AUTO 36006KT 10SM OVC034 M01/M04 A3036 RMK AO2 SLP294 T10111039

KOJC Airport Info (Airnav.com)

KOJC Flight Activity (Flightaware)

Listeners: 0 out of 820 total

Helicopter Air to Air: 123.025

KLXV CTAF (Archives)
Leadville, Colorado, United States

Feed Status: UP
Listen in your browser - HTML5 player(in browser, HTML5)
Click here to listen with your own player(launches your MP3 player)

KLXV 270753Z AUTO 00000KT 10SM CLR M18/M22 A3007 RMK AO2 SLP248 T11831217

KLXV Airport Info (Airnav.com)

KLXV Flight Activity (Flightaware)

Listeners: 0 out of 820 total

Leadville CTAF: 122.800

KLYH Ground (Archives)
Lynchburg, Virginia, United States

Feed Status: UP
Listen in your browser - HTML5 player(in browser, HTML5)
Click here to listen with your own player(launches your MP3 player)

KLYH 270826Z AUTO 00000KT 1/4SM R04/1400V1800FT FG VV001 12/11 A3014 RMK AO2 T01170106

KLYH Airport Info (Airnav.com)

KLYH Flight Activity (Flightaware)

Listeners: 0 out of 820 total

Lynchburg Ground: 121.900

KLYH Tower (Archives)
Lynchburg, Virginia, United States

Feed Status: UP
Listen in your browser - HTML5 player(in browser, HTML5)
Click here to listen with your own player(launches your MP3 player)

KLYH 270826Z AUTO 00000KT 1/4SM R04/1400V1800FT FG VV001 12/11 A3014 RMK AO2 T01170106

KLYH Airport Info (Airnav.com)

KLYH Flight Activity (Flightaware)

Listeners: 0 out of 820 total

Lynchburg Tower: 127.650

Atlanta App/Dep (SAT-P) (Archives)
Lawrenceville, Georgia, United States

Feed Status: UP
Listen in your browser - HTML5 player(in browser, HTML5)
Click here to listen with your own player(launches your MP3 player)

KLZU 270819Z AUTO 00000KT 2 1/2SM BR OVC003 17/17 A3018 RMK AO2

KLZU Airport Info (Airnav.com)

KLZU Flight Activity (Flightaware)

Listeners: 0 out of 820 total

Atlanta Approach/Departure (SAT-P): 126.975

KLZU Tower (Archives)
Lawrenceville, Georgia, United States

Feed Status: UP
Listen in your browser - HTML5 player(in browser, HTML5)
Click here to listen with your own player(launches your MP3 player)

KLZU 270819Z AUTO 00000KT 2 1/2SM BR OVC003 17/17 A3018 RMK AO2

KLZU Airport Info (Airnav.com)

KLZU Flight Activity (Flightaware)

Listeners: 0 out of 820 total

Gwinnett Tower: 124.100

KMAN/KEUL CTAF (Archives)
Nampa, Idaho, United States

Feed Status: UP
Listen in your browser - HTML5 player(in browser, HTML5)
Click here to listen with your own player(launches your MP3 player)

KMAN 270815Z AUTO 00000KT 10SM M01/M09 A3035 RMK A01

KMAN Airport Info (Airnav.com)

KMAN Flight Activity (Flightaware)

Listeners: 0 out of 820 total

Nampa/Caldwell CTAF/UNICOM: 122.700

KMCC CTAF/Del/Gnd/Twr (Archives)
Sacramento, California, United States

Feed Status: UP
Listen in your browser - HTML5 player(in browser, HTML5)
Click here to listen with your own player(launches your MP3 player)

KMCC 270815Z AUTO 36005KT 10SM CLR 15/M18 A3009 RMK AO2

KMCC Airport Info (Airnav.com)

KMCC Flight Activity (Flightaware)

Listeners: 0 out of 820 total

McClellan Clearance Delivery: 119.825
McClellan CTAF: 122.975
McClellan Ground (temp): 118.650
McClellan Tower (temp): 119.300

KMCO App (North Satellite) (Archives)
Orlando, Florida, United States

Feed Status: UP
Listen in your browser - HTML5 player(in browser, HTML5)
Click here to listen with your own player(launches your MP3 player)

KORL 270753Z AUTO 07007KT 10SM SCT012 SCT019 25/24 A3005 RMK AO2 SLP178 T02500239

KORL Airport Info (Airnav.com)

KORL Flight Activity (Flightaware)

Listeners: 0 out of 820 total

Orlando Approach (North Satellite): 121.100
Orlando Approach (North Satellite): 135.300

KMDD ASOS (Archives)
Midland, Texas, United States

Feed Status: UP
Listen in your browser - HTML5 player(in browser, HTML5)
Click here to listen with your own player(launches your MP3 player)

KMAF 270817Z AUTO 02012KT 9SM BKN009 OVC019 M03/M04 A3013 RMK AO2 LTG DSNT NE T10281039

KMAF Airport Info (Airnav.com)

KMAF Flight Activity (Flightaware)

Listeners: 0 out of 820 total

Midland Airpark ASOS: 118.125

KMDD Clearance Delivery (Archives)
Midland, Texas, United States

Feed Status: UP
Listen in your browser - HTML5 player(in browser, HTML5)
Click here to listen with your own player(launches your MP3 player)

KMAF 270817Z AUTO 02012KT 9SM BKN009 OVC019 M03/M04 A3013 RMK AO2 LTG DSNT NE T10281039

KMAF Airport Info (Airnav.com)

KMAF Flight Activity (Flightaware)

Listeners: 0 out of 820 total

Midland Airpark Clearance Delivery: 121.800

KMDD CTAF (Archives)
Midland, Texas, United States

Feed Status: UP
Listen in your browser - HTML5 player(in browser, HTML5)
Click here to listen with your own player(launches your MP3 player)

KMAF 270817Z AUTO 02012KT 9SM BKN009 OVC019 M03/M04 A3013 RMK AO2 LTG DSNT NE T10281039

KMAF Airport Info (Airnav.com)

KMAF Flight Activity (Flightaware)

Listeners: 0 out of 820 total

Midland Airpark CTAF: 122.700

KMDH Ground/Tower
Carbondale/Murphysboro, Illinois, United States

Feed Status: DOWN
Offline since: 2020-10-22 00:37:22 UTC

KMDH 270752Z AUTO 36008KT 5SM -RA BR OVC006 06/04 A3026 RMK AO2 SLP249 P0003 T00560039

KMDH Airport Info (Airnav.com)

Carbondale Ground: 121.800
Carbondale Tower: 126.250
Carbondale Tower: 125.350

KMDQ CTAF
Huntsville, Alabama, United States

Feed Status: DOWN
Offline since: 2020-04-06 12:25:06 UTC

Huntsville Executive CTAF: 123.000

KMDT App/Dep (East) (Archives)
Harrisburg, Pennsylvania, United States

Feed Status: UP
Listen in your browser - HTML5 player(in browser, HTML5)
Click here to listen with your own player(launches your MP3 player)

KMDT 270756Z 32004KT 6SM BR BKN065 OVC085 12/11 A3014 RMK AO2 SLP206 T01220106

KMDT Airport Info (Airnav.com)

KMDT Flight Activity (Flightaware)

Listeners: 0 out of 820 total

Harrisburg App/Dep (East): 126.450

KMDT App/Dep (East/West) (Archives)
Harrisburg, Pennsylvania, United States

Feed Status: UP
Listen in your browser - HTML5 player(in browser, HTML5)
Click here to listen with your own player(launches your MP3 player)

KMDT 270756Z 32004KT 6SM BR BKN065 OVC085 12/11 A3014 RMK AO2 SLP206 T01220106

KMDT Airport Info (Airnav.com)

KMDT Flight Activity (Flightaware)

Listeners: 0 out of 820 total

Harrisburg App/Dep (East): 126.450
Harrisburg App/Dep (North): 118.250
Harrisburg App/Dep (West): 124.100

KMDT App/Dep (North) (Archives)
Harrisburg, Pennsylvania, United States

Feed Status: UP
Listen in your browser - HTML5 player(in browser, HTML5)
Click here to listen with your own player(launches your MP3 player)

KMDT 270756Z 32004KT 6SM BR BKN065 OVC085 12/11 A3014 RMK AO2 SLP206 T01220106

KMDT Airport Info (Airnav.com)

KMDT Flight Activity (Flightaware)

Listeners: 0 out of 820 total

Harrisburg App/Dep (North): 118.250

KMDT App/Dep (West) (Archives)
Harrisburg, Pennsylvania, United States

Feed Status: UP
Listen in your browser - HTML5 player(in browser, HTML5)
Click here to listen with your own player(launches your MP3 player)

KMDT 270756Z 32004KT 6SM BR BKN065 OVC085 12/11 A3014 RMK AO2 SLP206 T01220106

KMDT Airport Info (Airnav.com)

KMDT Flight Activity (Flightaware)

Listeners: 0 out of 820 total

Harrisburg App/Dep (West): 124.100

KMDT ATIS (Archives)
Harrisburg, Pennsylvania, United States

Feed Status: UP
Listen in your browser - HTML5 player(in browser, HTML5)
Click here to listen with your own player(launches your MP3 player)

KMDT 270756Z 32004KT 6SM BR BKN065 OVC085 12/11 A3014 RMK AO2 SLP206 T01220106

KMDT Airport Info (Airnav.com)

KMDT Flight Activity (Flightaware)

Listeners: 0 out of 820 total

Harrisburg ATIS: 118.800

KMDT Emergency/Ground (Archives)
Harrisburg, Pennsylvania, United States

Feed Status: UP
Listen in your browser - HTML5 player(in browser, HTML5)
Click here to listen with your own player(launches your MP3 player)

KMDT 270756Z 32004KT 6SM BR BKN065 OVC085 12/11 A3014 RMK AO2 SLP206 T01220106

KMDT Airport Info (Airnav.com)

KMDT Flight Activity (Flightaware)

Listeners: 0 out of 820 total

Emergency/Guard: 121.500

KMDT Ground (Archives)
Harrisburg, Pennsylvania, United States

Feed Status: UP
Listen in your browser - HTML5 player(in browser, HTML5)
Click here to listen with your own player(launches your MP3 player)

KMDT 270756Z 32004KT 6SM BR BKN065 OVC085 12/11 A3014 RMK AO2 SLP206 T01220106

KMDT Airport Info (Airnav.com)

KMDT Flight Activity (Flightaware)

Listeners: 0 out of 820 total

Harrisburg Ground: 121.700

KMDT Tower (Archives)
Harrisburg, Pennsylvania, United States

Feed Status: UP
Listen in your browser - HTML5 player(in browser, HTML5)
Click here to listen with your own player(launches your MP3 player)

KMDT 270756Z 32004KT 6SM BR BKN065 OVC085 12/11 A3014 RMK AO2 SLP206 T01220106

KMDT Airport Info (Airnav.com)

KMDT Flight Activity (Flightaware)

Listeners: 1 out of 820 total

Harrisburg Tower: 124.800

KMEV CTAF/Unicom (Archives)
Minden, Nevada, United States

Feed Status: UP
Listen in your browser - HTML5 player(in browser, HTML5)
Click here to listen with your own player(launches your MP3 player)

KMEV 270815Z AUTO 11005KT 10SM CLR M07/M23 A3037 RMK AO2

KMEV Airport Info (Airnav.com)

KMEV Flight Activity (Flightaware)

Listeners: 0 out of 820 total

Minden CTAF/UNICOM: 123.050

KMFD ATIS (Archives)
Mansfield, Ohio, United States

Feed Status: UP
Listen in your browser - HTML5 player(in browser, HTML5)
Click here to listen with your own player(launches your MP3 player)

KMFD 270752Z AUTO 35003KT 6SM BR FEW024 OVC070 06/06 A3024 RMK AO2 SLP247 T00610056

KMFD Airport Info (Airnav.com)

KMFD Flight Activity (Flightaware)

Listeners: 0 out of 820 total

Mansfield ATIS: 125.300

KMFE App/Dep (Archives)
Mc Allen, Texas, United States

Feed Status: UP
Listen in your browser - HTML5 player(in browser, HTML5)
Click here to listen with your own player(launches your MP3 player)

KMFE 270753Z AUTO 09006KT 10SM BKN047 28/20 A2988 RMK AO2 SLP117 T02780200

KMFE Airport Info (Airnav.com)

KMFE Flight Activity (Flightaware)

Listeners: 0 out of 820 total

Valley Approach: 121.000
Valley Departure: 120.700

KMFE Gnd/Twr (Archives)
Mc Allen, Texas, United States

Feed Status: UP
Listen in your browser - HTML5 player(in browser, HTML5)
Click here to listen with your own player(launches your MP3 player)

KMFE 270753Z AUTO 09006KT 10SM BKN047 28/20 A2988 RMK AO2 SLP117 T02780200

KMFE Airport Info (Airnav.com)

KMFE Flight Activity (Flightaware)

Listeners: 0 out of 820 total

Mc Allen Ground: 121.800
Mc Allen Tower: 118.500
San Angelo Radio: 122.200

KMFR App/Dep (Archives)
Medford, Oregon, United States

Feed Status: UP
Listen in your browser - HTML5 player(in browser, HTML5)
Click here to listen with your own player(launches your MP3 player)

KMFR 270753Z AUTO 00000KT 10SM CLR 06/M07 A3037 RMK AO2 SLP286 T00611067 402001011

KMFR Airport Info (Airnav.com)

KMFR Flight Activity (Flightaware)

Listeners: 0 out of 820 total

Cascade Approach/Departure: 124.300

KMFR Emergency/Guard (Archives)
Medford, Oregon, United States

Feed Status: UP
Listen in your browser - HTML5 player(in browser, HTML5)
Click here to listen with your own player(launches your MP3 player)

KMFR 270753Z AUTO 00000KT 10SM CLR 06/M07 A3037 RMK AO2 SLP286 T00611067 402001011

KMFR Airport Info (Airnav.com)

KMFR Flight Activity (Flightaware)

Listeners: 0 out of 820 total

Emergency/Guard: 121.500

KMFR Ground (Archives)
Medford, Oregon, United States

Feed Status: UP
Listen in your browser - HTML5 player(in browser, HTML5)
Click here to listen with your own player(launches your MP3 player)

KMFR 270753Z AUTO 00000KT 10SM CLR 06/M07 A3037 RMK AO2 SLP286 T00611067 402001011

KMFR Airport Info (Airnav.com)

KMFR Flight Activity (Flightaware)

Listeners: 0 out of 820 total

Medford Ground: 121.800

KMFR Ground/Tower (Archives)
Medford, Oregon, United States

Feed Status: UP
Listen in your browser - HTML5 player(in browser, HTML5)
Click here to listen with your own player(launches your MP3 player)

KMFR 270753Z AUTO 00000KT 10SM CLR 06/M07 A3037 RMK AO2 SLP286 T00611067 402001011

KMFR Airport Info (Airnav.com)

KMFR Flight Activity (Flightaware)

Listeners: 0 out of 820 total

Medford Ground: 121.800
Medford Tower: 119.400

Atlanta Approach (N. Sat) (Archives)
Marietta, Georgia, United States

Feed Status: UP
Listen in your browser - HTML5 player(in browser, HTML5)
Click here to listen with your own player(launches your MP3 player)

KRYY 270750Z AUTO 10006KT 10SM OVC004 18/17 A3017 RMK AO2 SLP936 T01780172 $

KRYY Airport Info (Airnav.com)

KRYY Flight Activity (Flightaware)

Listeners: 0 out of 820 total

Atlanta Approach (North Satellite): 121.000

KMGE Ground (Archives)
Marietta, Georgia, United States

Feed Status: UP
Listen in your browser - HTML5 player(in browser, HTML5)
Click here to listen with your own player(launches your MP3 player)

KRYY 270750Z AUTO 10006KT 10SM OVC004 18/17 A3017 RMK AO2 SLP936 T01780172 $

KRYY Airport Info (Airnav.com)

KRYY Flight Activity (Flightaware)

Listeners: 0 out of 820 total

Dobbins Ground: 125.300

KMGE Tower (Archives)
Marietta, Georgia, United States

Feed Status: UP
Listen in your browser - HTML5 player(in browser, HTML5)
Click here to listen with your own player(launches your MP3 player)

KRYY 270750Z AUTO 10006KT 10SM OVC004 18/17 A3017 RMK AO2 SLP936 T01780172 $

KRYY Airport Info (Airnav.com)

KRYY Flight Activity (Flightaware)

Listeners: 0 out of 820 total

Dobbins Tower: 120.750

KMGW Ground/Tower (Archives)
Morgantown, West Virginia, United States

Feed Status: UP
Listen in your browser - HTML5 player(in browser, HTML5)
Click here to listen with your own player(launches your MP3 player)

KMGW 270817Z AUTO 36007KT 3SM BR OVC004 09/07 A3022 RMK AO2 CIG 002V006 T00890072

KMGW Airport Info (Airnav.com)

KMGW Flight Activity (Flightaware)

Listeners: 0 out of 820 total

Morgantown Ground: 121.700
Morgantown Tower: 125.100

KMGY Air to Air (Archives)
Dayton, Ohio, United States

Feed Status: UP
Listen in your browser - HTML5 player(in browser, HTML5)
Click here to listen with your own player(launches your MP3 player)

KMGY 270806Z AUTO 06005KT 8SM FEW010 SCT018 OVC070 07/06 A3025 RMK AO2 T00720056

KMGY Airport Info (Airnav.com)

KMGY Flight Activity (Flightaware)

Listeners: 0 out of 820 total

Air to Air: 123.450

KMGY App/Dep (Archives)
Dayton, Ohio, United States

Feed Status: UP
Listen in your browser - HTML5 player(in browser, HTML5)
Click here to listen with your own player(launches your MP3 player)

KMGY 270806Z AUTO 06005KT 8SM FEW010 SCT018 OVC070 07/06 A3025 RMK AO2 T00720056

KMGY Airport Info (Airnav.com)

KMGY Flight Activity (Flightaware)

Listeners: 0 out of 820 total

Dayton Approach/Departure: 118.850

KMGY AWOS (Archives)
Dayton, Ohio, United States

Feed Status: UP
Listen in your browser - HTML5 player(in browser, HTML5)
Click here to listen with your own player(launches your MP3 player)

KMGY 270806Z AUTO 06005KT 8SM FEW010 SCT018 OVC070 07/06 A3025 RMK AO2 T00720056

KMGY Airport Info (Airnav.com)

KMGY Flight Activity (Flightaware)

Listeners: 0 out of 820 total

Dayton-Wright Brothers AWOS: 118.375

KMGY Clearance Delivery (Archives)
Dayton, Ohio, United States

Feed Status: UP
Listen in your browser - HTML5 player(in browser, HTML5)
Click here to listen with your own player(launches your MP3 player)

KMGY 270806Z AUTO 06005KT 8SM FEW010 SCT018 OVC070 07/06 A3025 RMK AO2 T00720056

KMGY Airport Info (Airnav.com)

KMGY Flight Activity (Flightaware)

Listeners: 0 out of 820 total

Dayton Clearance Delivery (KMGY): 119.400

KMGY CTAF (Archives)
Dayton, Ohio, United States

Feed Status: UP
Listen in your browser - HTML5 player(in browser, HTML5)
Click here to listen with your own player(launches your MP3 player)

KMGY 270806Z AUTO 06005KT 8SM FEW010 SCT018 OVC070 07/06 A3025 RMK AO2 T00720056

KMGY Airport Info (Airnav.com)

KMGY Flight Activity (Flightaware)

Listeners: 0 out of 820 total

Dayton-Wright Brothers CTAF: 122.800

KMGY Emergency/Guard (Archives)
Dayton, Ohio, United States

Feed Status: UP
Listen in your browser - HTML5 player(in browser, HTML5)
Click here to listen with your own player(launches your MP3 player)

KMGY 270806Z AUTO 06005KT 8SM FEW010 SCT018 OVC070 07/06 A3025 RMK AO2 T00720056

KMGY Airport Info (Airnav.com)

KMGY Flight Activity (Flightaware)

Listeners: 0 out of 820 total

Emergency/Guard: 121.500

KMHR Ground/Tower (Archives)
Sacramento, California, United States

Feed Status: UP
Listen in your browser - HTML5 player(in browser, HTML5)
Click here to listen with your own player(launches your MP3 player)

KMHR 270630Z 36007KT 10SM SKC 17/M18 A3009

KMHR Airport Info (Airnav.com)

KMHR Flight Activity (Flightaware)

Listeners: 0 out of 820 total

Mather Ground: 121.850
Mather Tower: 120.650

NORCAL App (EXPO/127.4) (Archives)
Sacramento, California, United States

Feed Status: UP
Listen in your browser - HTML5 player(in browser, HTML5)
Click here to listen with your own player(launches your MP3 player)

KMHR 270630Z 36007KT 10SM SKC 17/M18 A3009

KMHR Airport Info (Airnav.com)

KMHR Flight Activity (Flightaware)

Listeners: 0 out of 820 total

NORCAL Approach (EXPO Sector): 127.400

KMIC Tower/CTAF (Archives)
Minneapolis, Minnesota, United States

Feed Status: UP
Listen in your browser - HTML5 player(in browser, HTML5)
Click here to listen with your own player(launches your MP3 player)

KMIC 270753Z AUTO 23004KT 10SM CLR M07/M11 A3033 RMK AO2 SLP285 T10671106

KMIC Airport Info (Airnav.com)

KMIC Flight Activity (Flightaware)

Listeners: 0 out of 820 total

Crystal Tower/CTAF: 120.700

KBLM/N12/3N6/KMJX (Archives)
Toms River, New Jersey, United States

Feed Status: UP
Listen in your browser - HTML5 player(in browser, HTML5)
Click here to listen with your own player(launches your MP3 player)

KBLM 270756Z AUTO 27004KT 10SM OVC005 16/16 A3010 RMK AO2 CIG 003V007 SLP194 T01560156

KBLM Airport Info (Airnav.com)

KBLM Flight Activity (Flightaware)

Listeners: 0 out of 820 total

3N6 Old Bridge CTAF: 123.075
Emergency/Guard: 121.500
Monmouth Clearance: 120.950
Monmouth Clearance: 126.150
Monmouth CTAF: 123.000
N12 Lakewood CTAF: 122.800
Ocean County KMJX CTAF: 122.700

KMJX CTAF (Archives)
Toms River, New Jersey, United States

Feed Status: UP
Listen in your browser - HTML5 player(in browser, HTML5)
Click here to listen with your own player(launches your MP3 player)

KMJX 270756Z AUTO 28006KT 4SM BR OVC005 16/16 A3010 RMK AO2 CIG 003V007 SLP198 T01610156

KMJX Airport Info (Airnav.com)

KMJX Flight Activity (Flightaware)

Listeners: 0 out of 820 total

Toms River CTAF: 122.700

KLXT/KMKC Area Helicopters (Archives)
Kansas City, Missouri, United States

Feed Status: UP
Listen in your browser - HTML5 player(in browser, HTML5)
Click here to listen with your own player(launches your MP3 player)

KOJC 270753Z AUTO 36006KT 10SM OVC034 M01/M04 A3036 RMK AO2 SLP294 T10111039

KOJC Airport Info (Airnav.com)

KOJC Flight Activity (Flightaware)

Listeners: 0 out of 820 total

Helicopter Air to Air: 123.025

KMKC ATIS (Archives)
Kansas City, Missouri, United States

Feed Status: UP
Listen in your browser - HTML5 player(in browser, HTML5)
Click here to listen with your own player(launches your MP3 player)

KMKC 270754Z 02004KT 10SM OVC041 M01/M05 A3038 RMK AO2 SLP295 T10061050

KMKC Airport Info (Airnav.com)

KMKC Flight Activity (Flightaware)

Listeners: 0 out of 820 total

Downtown ATIS: 120.750

KMKC Ground (Archives)
Kansas City, Missouri, United States

Feed Status: UP
Listen in your browser - HTML5 player(in browser, HTML5)
Click here to listen with your own player(launches your MP3 player)

KMKC 270754Z 02004KT 10SM OVC041 M01/M05 A3038 RMK AO2 SLP295 T10061050

KMKC Airport Info (Airnav.com)

KMKC Flight Activity (Flightaware)

Listeners: 0 out of 820 total

Downtown Ground: 121.900

KMKC Tower (Archives)
Kansas City, Missouri, United States

Feed Status: UP
Listen in your browser - HTML5 player(in browser, HTML5)
Click here to listen with your own player(launches your MP3 player)

KMKC 270754Z 02004KT 10SM OVC041 M01/M05 A3038 RMK AO2 SLP295 T10061050

KMKC Airport Info (Airnav.com)

KMKC Flight Activity (Flightaware)

Listeners: 0 out of 820 total

Downtown Tower: 133.300

KMKL Tower (Air Race Classic Start)
Jackson, Tennessee, United States

Feed Status: DOWN
Offline since: 2019-06-20 14:39:02 UTC

Jackson Tower: 127.150

KMLB Twr/App (Archives)
Melbourne, Florida, United States

Feed Status: UP
Listen in your browser - HTML5 player(in browser, HTML5)
Click here to listen with your own player(launches your MP3 player)

KMLB 270753Z AUTO 10003KT 10SM CLR 26/25 A3004 RMK AO2 SLP171 T02560250

KMLB Airport Info (Airnav.com)

KMLB Flight Activity (Flightaware)

Listeners: 0 out of 820 total

Melbourne Tower: 118.200
Orlando Approach: 132.650

KMMU ATIS (Archives)
Morristown, New Jersey, United States

Feed Status: UP
Listen in your browser - HTML5 player(in browser, HTML5)
Click here to listen with your own player(launches your MP3 player)

KMMU 270815Z AUTO 00000KT 1/4SM FG OVC003 13/13 A3010 RMK AO2

KMMU Airport Info (Airnav.com)

KMMU Flight Activity (Flightaware)

Listeners: 0 out of 820 total

Morristown ATIS: 124.250

KMMU Clearance Delivery (Archives)
Morristown, New Jersey, United States

Feed Status: UP
Listen in your browser - HTML5 player(in browser, HTML5)
Click here to listen with your own player(launches your MP3 player)

KMMU 270815Z AUTO 00000KT 1/4SM FG OVC003 13/13 A3010 RMK AO2

KMMU Airport Info (Airnav.com)

KMMU Flight Activity (Flightaware)

Listeners: 0 out of 820 total

Morristown Clearance Delivery: 128.600

KMMU Ground (Archives)
Morristown, New Jersey, United States

Feed Status: UP
Listen in your browser - HTML5 player(in browser, HTML5)
Click here to listen with your own player(launches your MP3 player)

KMMU 270815Z AUTO 00000KT 1/4SM FG OVC003 13/13 A3010 RMK AO2

KMMU Airport Info (Airnav.com)

KMMU Flight Activity (Flightaware)

Listeners: 0 out of 820 total

Morristown Ground: 134.200

KMMU Tower #1 (Archives)
Morristown, New Jersey, United States

Feed Status: UP
Listen in your browser - HTML5 player(in browser, HTML5)
Click here to listen with your own player(launches your MP3 player)

KMMU 270815Z AUTO 00000KT 1/4SM FG OVC003 13/13 A3010 RMK AO2

KMMU Airport Info (Airnav.com)

KMMU Flight Activity (Flightaware)

Listeners: 0 out of 820 total

Morristown Tower: 118.100

KMMU Tower #2 (Archives)
Morristown, New Jersey, United States

Feed Status: UP
Listen in your browser - HTML5 player(in browser, HTML5)
Click here to listen with your own player(launches your MP3 player)

KMMU 270815Z AUTO 00000KT 1/4SM FG OVC003 13/13 A3010 RMK AO2

KMMU Airport Info (Airnav.com)

KMMU Flight Activity (Flightaware)

Listeners: 0 out of 820 total

Morristown Tower: 118.100

KMMV CTAF (Archives)
Mc Minnville, Oregon, United States

Feed Status: UP
Listen in your browser - HTML5 player(in browser, HTML5)
Click here to listen with your own player(launches your MP3 player)

KMMV 270753Z AUTO 00000KT 10SM CLR 01/M01 A3045 RMK AO2 SLP310 T00111006 401331039

KMMV Airport Info (Airnav.com)

KMMV Flight Activity (Flightaware)

Listeners: 0 out of 820 total

Mc Minnville CTAF: 123.000

KMOD App/Dep 120.95
Modesto, California, United States

Feed Status: DOWN
Offline since: 2020-08-17 08:09:39 UTC

KMOD 270753Z AUTO 11004KT 10SM CLR 08/01 A3009 RMK AO2 SLP190 T00830011 402220078 $

KMOD Airport Info (Airnav.com)

NORCAL Approach: 120.950

KMOD App/Dep 125.1
Modesto, California, United States

Feed Status: DOWN
Offline since: 2020-08-17 08:09:39 UTC

KMOD 270753Z AUTO 11004KT 10SM CLR 08/01 A3009 RMK AO2 SLP190 T00830011 402220078 $

KMOD Airport Info (Airnav.com)

NORCAL Approach: 125.100

KMOD ATIS
Modesto, California, United States

Feed Status: DOWN
Offline since: 2020-08-17 08:09:39 UTC

KMOD 270753Z AUTO 11004KT 10SM CLR 08/01 A3009 RMK AO2 SLP190 T00830011 402220078 $

KMOD Airport Info (Airnav.com)

Modesto ATIS: 127.700

KMOD Emergency/Guard
Modesto, California, United States

Feed Status: DOWN
Offline since: 2020-08-17 08:09:39 UTC

KMOD 270753Z AUTO 11004KT 10SM CLR 08/01 A3009 RMK AO2 SLP190 T00830011 402220078 $

KMOD Airport Info (Airnav.com)

Emergency/Guard: 121.500

KMOD Ground
Modesto, California, United States

Feed Status: DOWN
Offline since: 2020-08-17 08:09:39 UTC

KMOD 270753Z AUTO 11004KT 10SM CLR 08/01 A3009 RMK AO2 SLP190 T00830011 402220078 $

KMOD Airport Info (Airnav.com)

Modesto Ground: 121.700

KMOD Tower
Modesto, California, United States

Feed Status: DOWN
Offline since: 2020-08-17 08:09:39 UTC

KMOD 270753Z AUTO 11004KT 10SM CLR 08/01 A3009 RMK AO2 SLP190 T00830011 402220078 $

KMOD Airport Info (Airnav.com)

Modesto Tower: 125.300

KMOD UNICOM
Modesto, California, United States

Feed Status: DOWN
Offline since: 2020-08-17 08:09:39 UTC

KMOD 270753Z AUTO 11004KT 10SM CLR 08/01 A3009 RMK AO2 SLP190 T00830011 402220078 $

KMOD Airport Info (Airnav.com)

Modesto UNICOM: 122.950

KMOR AWOS (Archives)
Morristown, Tennessee, United States

Feed Status: UP
Listen in your browser - HTML5 player(in browser, HTML5)
Click here to listen with your own player(launches your MP3 player)

KMOR 270815Z AUTO 00000KT 10SM OVC065 15/15 A3016 RMK A01

KMOR Airport Info (Airnav.com)

KMOR Flight Activity (Flightaware)

Listeners: 0 out of 820 total

Morristown AWOS: 126.725

KMOR Clearance Delivery (Archives)
Morristown, Tennessee, United States

Feed Status: UP
Listen in your browser - HTML5 player(in browser, HTML5)
Click here to listen with your own player(launches your MP3 player)

KMOR 270815Z AUTO 00000KT 10SM OVC065 15/15 A3016 RMK A01

KMOR Airport Info (Airnav.com)

KMOR Flight Activity (Flightaware)

Listeners: 0 out of 820 total

Morristown Clearance Delivery (RCO): 132.800

KMOR CTAF (Archives)
Morristown, Tennessee, United States

Feed Status: UP
Listen in your browser - HTML5 player(in browser, HTML5)
Click here to listen with your own player(launches your MP3 player)

KMOR 270815Z AUTO 00000KT 10SM OVC065 15/15 A3016 RMK A01

KMOR Airport Info (Airnav.com)

KMOR Flight Activity (Flightaware)

Listeners: 0 out of 820 total

Morristown CTAF: 122.800

KMQJ CTAF
Indianapolis, Indiana, United States

Feed Status: DOWN
Offline since: 2020-10-22 14:12:22 UTC

KMQJ 270815Z AUTO 01003KT 7SM OVC044 06/06 A3027 RMK AO1

KMQJ Airport Info (Airnav.com)

Executive CTAF: 122.975

KMQJ Del/App
Indianapolis, Indiana, United States

Feed Status: DOWN
Offline since: 2020-10-22 14:12:22 UTC

KMQJ 270815Z AUTO 01003KT 7SM OVC044 06/06 A3027 RMK AO1

KMQJ Airport Info (Airnav.com)

Executive Clearance Delivery: 119.250
Indianapolis Approach/Departure: 127.150

KMQY Clearance Delivery (Archives)
Smyrna, Tennessee, United States

Feed Status: UP
Listen in your browser - HTML5 player(in browser, HTML5)
Click here to listen with your own player(launches your MP3 player)

KMQY 270812Z AUTO 13004KT 10SM OVC009 13/12 A3016 RMK AO2 PNO $

KMQY Airport Info (Airnav.com)

KMQY Flight Activity (Flightaware)

Listeners: 0 out of 820 total

Smyrna Clearance Delivery (after Tower closes): 121.700

KMQY Emergency/Guard (Archives)
Smyrna, Tennessee, United States

Feed Status: UP
Listen in your browser - HTML5 player(in browser, HTML5)
Click here to listen with your own player(launches your MP3 player)

KMQY 270812Z AUTO 13004KT 10SM OVC009 13/12 A3016 RMK AO2 PNO $

KMQY Airport Info (Airnav.com)

KMQY Flight Activity (Flightaware)

Listeners: 0 out of 820 total

Emergency/Guard: 121.500

KMQY Ground (Archives)
Smyrna, Tennessee, United States

Feed Status: UP
Listen in your browser - HTML5 player(in browser, HTML5)
Click here to listen with your own player(launches your MP3 player)

KMQY 270812Z AUTO 13004KT 10SM OVC009 13/12 A3016 RMK AO2 PNO $

KMQY Airport Info (Airnav.com)

KMQY Flight Activity (Flightaware)

Listeners: 0 out of 820 total

Smyrna Ground: 121.400

KMQY Ground/Tower (Archives)
Smyrna, Tennessee, United States

Feed Status: UP
Listen in your browser - HTML5 player(in browser, HTML5)
Click here to listen with your own player(launches your MP3 player)

KMQY 270812Z AUTO 13004KT 10SM OVC009 13/12 A3016 RMK AO2 PNO $

KMQY Airport Info (Airnav.com)

KMQY Flight Activity (Flightaware)

Listeners: 0 out of 820 total

Smyrna Ground: 121.400
Smyrna Tower: 233.100
Smyrna Tower: 118.500

KMQY Tower (Archives)
Smyrna, Tennessee, United States

Feed Status: UP
Listen in your browser - HTML5 player(in browser, HTML5)
Click here to listen with your own player(launches your MP3 player)

KMQY 270812Z AUTO 13004KT 10SM OVC009 13/12 A3016 RMK AO2 PNO $

KMQY Airport Info (Airnav.com)

KMQY Flight Activity (Flightaware)

Listeners: 0 out of 820 total

Smyrna Tower: 118.500
Smyrna Tower: 233.100

KMRB ATIS (Archives)
Martinsburg, West Virginia, United States

Feed Status: UP
Listen in your browser - HTML5 player(in browser, HTML5)
Click here to listen with your own player(launches your MP3 player)

KMRB 270753Z AUTO 01003KT 9SM SCT021 BKN036 OVC080 12/11 A3015 RMK AO2 SLP208 T01170106

KMRB Airport Info (Airnav.com)

KMRB Flight Activity (Flightaware)

Listeners: 0 out of 820 total

Martinsburg ATIS/AWOS: 119.925

KMRB Del/Gnd (Archives)
Martinsburg, West Virginia, United States

Feed Status: UP
Listen in your browser - HTML5 player(in browser, HTML5)
Click here to listen with your own player(launches your MP3 player)

KMRB 270753Z AUTO 01003KT 9SM SCT021 BKN036 OVC080 12/11 A3015 RMK AO2 SLP208 T01170106

KMRB Airport Info (Airnav.com)

KMRB Flight Activity (Flightaware)

Listeners: 0 out of 820 total

Martinsburg Clearance Delivery (after hours via Potomac TRACON): 132.075
Martinsburg Ground: 121.800

KMRB Emergency/Guard (Archives)
Martinsburg, West Virginia, United States

Feed Status: UP
Listen in your browser - HTML5 player(in browser, HTML5)
Click here to listen with your own player(launches your MP3 player)

KMRB 270753Z AUTO 01003KT 9SM SCT021 BKN036 OVC080 12/11 A3015 RMK AO2 SLP208 T01170106

KMRB Airport Info (Airnav.com)

KMRB Flight Activity (Flightaware)

Listeners: 0 out of 820 total

Emergency/Guard: 121.500

KMRB Tower/CTAF (Archives)
Martinsburg, West Virginia, United States

Feed Status: UP
Listen in your browser - HTML5 player(in browser, HTML5)
Click here to listen with your own player(launches your MP3 player)

KMRB 270753Z AUTO 01003KT 9SM SCT021 BKN036 OVC080 12/11 A3015 RMK AO2 SLP208 T01170106

KMRB Airport Info (Airnav.com)

KMRB Flight Activity (Flightaware)

Listeners: 0 out of 820 total

Martinsburg Tower: 124.300

KMRN CTAF (Archives)
Morganton, North Carolina, United States

Feed Status: UP
Listen in your browser - HTML5 player(in browser, HTML5)
Click here to listen with your own player(launches your MP3 player)

KHKY 270811Z AUTO 00000KT 3/4SM BR VV002 13/12 A3016 RMK AO2 VIS 1/4V3 T01280117 $

KHKY Airport Info (Airnav.com)

KHKY Flight Activity (Flightaware)

Listeners: 0 out of 820 total

Foothills CTAF: 122.700

KMSO Gnd/Twr/App/ZLC/ZSE (Archives)
Missoula, Montana, United States

Feed Status: UP
Listen in your browser - HTML5 player(in browser, HTML5)
Click here to listen with your own player(launches your MP3 player)

KMSO 270753Z AUTO 26003KT 10SM OVC041 M08/M12 A3036 RMK AO2 SLP338 T10781117

KMSO Airport Info (Airnav.com)

KMSO Flight Activity (Flightaware)

Listeners: 1 out of 820 total

Emergency/Guard: 121.500
Great Falls Radio Miller Peak RCO: 122.450
Minuteman Jet Center Unicom: 122.950
Missoula Ground/Clearance Delivery: 121.900
Missoula International Airport Operations: 155.820
Missoula International Airport Operations: 154.965
Missoula Tower: 118.400
Northstar Unicom: 123.300
Salt Lake Center: 132.400
Salt Lake City Center: 133.400
Seattle Center (Mullan Pass RCAG): 128.450
Spokane Approach/Departure: 124.900

KMTC App/Dep (Archives)
Mount Clemens, Michigan, United States

Feed Status: UP
Listen in your browser - HTML5 player(in browser, HTML5)
Click here to listen with your own player(launches your MP3 player)

KMTC 270756Z AUTO 30003KT 10SM OVC100 04/03 A3026 RMK AO2 SLP256 T00440034 $

KMTC Airport Info (Airnav.com)

KMTC Flight Activity (Flightaware)

Listeners: 0 out of 820 total

Selfridge Approach: 119.600
Selfridge Approach: 318.200
Selfridge Approach: 391.900

KMTC Ground/Tower (Archives)
Mount Clemens, Michigan, United States

Feed Status: UP
Listen in your browser - HTML5 player(in browser, HTML5)
Click here to listen with your own player(launches your MP3 player)

KMTC 270756Z AUTO 30003KT 10SM OVC100 04/03 A3026 RMK AO2 SLP256 T00440034 $

KMTC Airport Info (Airnav.com)

KMTC Flight Activity (Flightaware)

Listeners: 0 out of 820 total

Selfridge Ground: 128.300
Selfridge Ground: 275.800
Selfridge Tower: 120.150
Selfridge Tower: 225.400

KMTJ CTAF/ZDV/Guard (Archives)
Montrose, Colorado, United States

Feed Status: UP
Listen in your browser - HTML5 player(in browser, HTML5)
Click here to listen with your own player(launches your MP3 player)

KMTJ 270753Z AUTO 15005KT 10SM CLR M14/M18 A3026 RMK AO2 SLP304 T11441178

KMTJ Airport Info (Airnav.com)

KMTJ Flight Activity (Flightaware)

Listeners: 1 out of 820 total

Denver Center (Sector 12 Gunnison Low): 125.350
Emergency/Guard: 121.500
Montrose CTAF: 122.800

KMTN Ground/Misc (Archives)
Baltimore, Maryland, United States

Feed Status: UP
Listen in your browser - HTML5 player(in browser, HTML5)
Click here to listen with your own player(launches your MP3 player)

KMTN 270815Z AUTO 00000KT 7SM OVC050 13/13 A3015 RMK AO2

KMTN Airport Info (Airnav.com)

KMTN Flight Activity (Flightaware)

Listeners: 0 out of 820 total

Helo Air to Air: 123.025
Martin Ground/Clearance: 121.800
Martin Ground/Clearance: 253.400

KMTN Tower (Archives)
Baltimore, Maryland, United States

Feed Status: UP
Listen in your browser - HTML5 player(in browser, HTML5)
Click here to listen with your own player(launches your MP3 player)

KMTN 270815Z AUTO 00000KT 7SM OVC050 13/13 A3015 RMK AO2

KMTN Airport Info (Airnav.com)

KMTN Flight Activity (Flightaware)

Listeners: 0 out of 820 total

Martin Tower: 121.300
Martin Tower: 254.425

KMTW CTAF (Archives)
Manitowoc, Wisconsin, United States

Feed Status: UP
Listen in your browser - HTML5 player(in browser, HTML5)
Click here to listen with your own player(launches your MP3 player)

KMTW 270756Z AUTO 30005KT 10SM BKN120 M02/M06 A3032 RMK AO2 SLP276 T10221056 FZRANO

KMTW Airport Info (Airnav.com)

KMTW Flight Activity (Flightaware)

Listeners: 0 out of 820 total

Manitowoc CTAF: 122.800

KMWA Gnd/Twr/CTAF (Archives)
Marion, Illinois, United States

Feed Status: UP
Listen in your browser - HTML5 player(in browser, HTML5)
Click here to listen with your own player(launches your MP3 player)

KMWA 270815Z AUTO 34005KT 7SM RA OVC006 05/05 A3028 RMK AO2 T00500050

KMWA Airport Info (Airnav.com)

KMWA Flight Activity (Flightaware)

Listeners: 0 out of 820 total

Marion Ground: 121.700
Marion Tower/CTAF: 128.400

KMWC Gnd/Twr (Archives)
Milwaukee, Wisconsin, United States

Feed Status: UP
Listen in your browser - HTML5 player(in browser, HTML5)
Click here to listen with your own player(launches your MP3 player)

KMKE 270752Z 31005KT 10SM OVC095 01/M06 A3032 RMK AO2 SLP276 T00111061 $

KMKE Airport Info (Airnav.com)

KMKE Flight Activity (Flightaware)

Listeners: 0 out of 820 total

Timmerman Ground: 121.700
Timmerman Tower: 120.500

KMYF ATIS (Archives)
San Diego, California, United States

Feed Status: UP
Listen in your browser - HTML5 player(in browser, HTML5)
Click here to listen with your own player(launches your MP3 player)

KSAN 270751Z 00000KT 10SM CLR 14/M07 A3006 RMK AO2 SLP178 T01441072 402280144

KSAN Airport Info (Airnav.com)

KSAN Flight Activity (Flightaware)

Listeners: 0 out of 820 total

Montgomery ATIS: 126.900

KMYF Del/Gnd/Twr (Archives)
San Diego, California, United States

Feed Status: UP
Listen in your browser - HTML5 player(in browser, HTML5)
Click here to listen with your own player(launches your MP3 player)

KMYF 270753Z AUTO 00000KT 10SM CLR 12/M12 A3005 RMK AO2 SLP173 T01171117 402280100

KMYF Airport Info (Airnav.com)

KMYF Flight Activity (Flightaware)

Listeners: 0 out of 820 total

Air to Air: 122.750
Montgomery Clearance Delivery: 123.725
Montgomery Ground: 118.225
Montgomery Tower: 125.700
Montgomery Tower/CTAF: 119.200
San Diego VFR Corridor: 126.050

KMYF Ground #2 (Archives)
San Diego, California, United States

Feed Status: UP
Listen in your browser - HTML5 player(in browser, HTML5)
Click here to listen with your own player(launches your MP3 player)

KSAN 270751Z 00000KT 10SM CLR 14/M07 A3006 RMK AO2 SLP178 T01441072 402280144

KSAN Airport Info (Airnav.com)

KSAN Flight Activity (Flightaware)

Listeners: 0 out of 820 total

Montgomery Ground: 118.225

KMYF Tower (Primary) (Archives)
San Diego, California, United States

Feed Status: UP
Listen in your browser - HTML5 player(in browser, HTML5)
Click here to listen with your own player(launches your MP3 player)

KSAN 270751Z 00000KT 10SM CLR 14/M07 A3006 RMK AO2 SLP178 T01441072 402280144

KSAN Airport Info (Airnav.com)

KSAN Flight Activity (Flightaware)

Listeners: 1 out of 820 total

Montgomery Tower (Primary): 119.200

KNEL/KWRI/ZNY (Archives)
Lakehurst, New Jersey, United States

Feed Status: UP
Listen in your browser - HTML5 player(in browser, HTML5)
Click here to listen with your own player(launches your MP3 player)

KBLM 270756Z AUTO 27004KT 10SM OVC005 16/16 A3010 RMK AO2 CIG 003V007 SLP194 T01560156

KBLM Airport Info (Airnav.com)

KBLM Flight Activity (Flightaware)

Listeners: 0 out of 820 total

Emergency/Guard: 121.500
Lakehurst Ground: 307.050
Lakehurst Ground: 118.375
Lakehurst Tower: 340.200
Lakehurst Tower: 360.200
Lakehurst Tower: 127.775
McGuire Approach: 126.475
McGuire Approach: 124.150
McGuire Arrival: 120.250
McGuire Tower: 257.800
McGuire Tower: 255.600
McGuire Tower: 118.650
NEL Army Ops: 255.700
New York Center (DIXIE Sector Low): 118.975
New York Center (DIXIE Sector Low): 307.800
New York Center (Kennedy Sector High): 282.300
New York Center (Kennedy Sector High): 125.325
WRI 108 ANG Command Post: 251.200
WRI 108 ANG Command Post: 321.000
WRI Army Ops: 139.300
WRI Army Ops: 265.600
WRI Army Ops: 41.350
WRI Army Ops Command Post: 319.400
WRI Army Ops Command Post (backup): 349.400
WRI Pilot to Dispatch: 134.100
WRI Pilot to Dispatch: 372.200
WRI USMC HMH 772 Ops: 283.000
WRI USMC HMLA 773 Ops: 264.200

KNEW Del/Gnd (Archives)
New Orleans, Louisiana, United States

Feed Status: UP
Listen in your browser - HTML5 player(in browser, HTML5)
Click here to listen with your own player(launches your MP3 player)

KNEW 270753Z AUTO 04011KT 10SM BKN032 24/19 A3000 RMK AO2 SLP151 T02390194

KNEW Airport Info (Airnav.com)

KNEW Flight Activity (Flightaware)

Listeners: 0 out of 820 total

Lakefront Clearance Delivery: 127.400
Lakefront Ground: 121.700

KNEW Tower (Archives)
New Orleans, Louisiana, United States

Feed Status: UP
Listen in your browser - HTML5 player(in browser, HTML5)
Click here to listen with your own player(launches your MP3 player)

KNEW 270753Z AUTO 04011KT 10SM BKN032 24/19 A3000 RMK AO2 SLP151 T02390194

KNEW Airport Info (Airnav.com)

KNEW Flight Activity (Flightaware)

Listeners: 0 out of 820 total

Lakefront Tower: 119.900

KNGU Del/Gnd/Twr (Archives)
Norfolk, Virginia, United States

Feed Status: UP
Listen in your browser - HTML5 player(in browser, HTML5)
Click here to listen with your own player(launches your MP3 player)

KNGU 270759Z VRB03KT 1/2SM FG VV002 16/14 A3016 RMK AO2 SLP213 T01560144 $

KNGU Airport Info (Airnav.com)

KNGU Flight Activity (Flightaware)

Listeners: 1 out of 820 total

AMC/ATOC: 349.500
AMC/ATOC: 130.650
Chambers Clearance Delivery: 339.800
Chambers Clearance Delivery: 120.700
Chambers Ground: 370.850
Chambers Ground: 121.800
Chambers Ground (Helicopters): 298.950
Chambers Tower: 257.975
Chambers Tower: 126.375
Chambers Tower (Helicopters): 279.600
Metro: 271.600
Norfolk Approach/Departure: 335.625
Norfolk Departure: 363.125
Radar: 279.525
Radar: 335.800
Radar: 322.525

KNKX Del/Gnd/Twr (Archives)
San Diego, California, United States

Feed Status: UP
Listen in your browser - HTML5 player(in browser, HTML5)
Click here to listen with your own player(launches your MP3 player)

KNKX 270755Z 09004KT 10SM CLR 07/M12 A3004 RMK AO2 SLP169 T00671122 402280061 $

KNKX Airport Info (Airnav.com)

KNKX Flight Activity (Flightaware)

Listeners: 0 out of 820 total

Miramar Clearance Delivery: 125.975
Miramar Clearance Delivery: 254.325
Miramar Ground: 128.625
Miramar Ground: 307.325
Miramar Tower: 135.200
Miramar Tower: 298.925
Miramar Tower: 340.200

KNTU Giant Killer (Archives)
Virginia Beach, Virginia, United States

Feed Status: UP
Listen in your browser - HTML5 player(in browser, HTML5)
Click here to listen with your own player(launches your MP3 player)

KORF 270758Z 29003KT 1SM R05/4000VP6000FT BR VV002 16/16 A3014 RMK AO2 T01610156

KORF Airport Info (Airnav.com)

KORF Flight Activity (Flightaware)

Listeners: 0 out of 820 total

Giant Killer: 118.125
Giant Killer: 125.375
Giant Killer: 233.700
Giant Killer: 271.500
Giant Killer: 127.650
Giant Killer: 238.100
Giant Killer: 350.000
Giant Killer W-107: 255.000

KNTU Gnd/Twr/App/Radar (Archives)
Virginia Beach, Virginia, United States

Feed Status: UP
Listen in your browser - HTML5 player(in browser, HTML5)
Click here to listen with your own player(launches your MP3 player)

KNTU 270756Z 29003KT 1SM BR VV002 17/16 A3014 RMK AO2 SLP207 T01670156

KNTU Airport Info (Airnav.com)

KNTU Flight Activity (Flightaware)

Listeners: 0 out of 820 total

Base Ops: 289.400
Emergency/Guard: 121.500
Emergency/Guard: 243.000
Oceana Approach: 123.900
Oceana Approach: 266.800
Oceana Clearance Delivery: 254.400
Oceana Departure: 119.600
Oceana Departure: 288.300
Oceana Ground: 336.400
Oceana Metro: 387.400
Oceana Radar: 363.600
Oceana Radar: 134.100
Oceana Radar: 310.800
Oceana Radar: 322.000
Oceana Radar: 325.200
Oceana Radar: 346.000
Oceana Tower: 127.075
Oceana Tower: 360.200
PMSV Metro: 287.400
SFA: 328.400
SFA: 346.400
SFA: 348.750
SFA: 352.100
SFA: 363.100

KNUQ Gnd/Twr (Archives)
Mountain View, California, United States

Feed Status: UP
Listen in your browser - HTML5 player(in browser, HTML5)
Click here to listen with your own player(launches your MP3 player)

KNUQ 270810Z AUTO 00000KT 10SM 12/M02 A3010 RMK AO2

KNUQ Airport Info (Airnav.com)

KNUQ Flight Activity (Flightaware)

Listeners: 0 out of 820 total

Golden Gate Traffic: 124.300
Moffett Ground: 121.850
Moffett Ground: 336.400
Moffett Tower: 119.550
Moffett Tower: 346.250
Stanford University Hospital Heliport: 130.050

KOAJ Gnd/Twr (Archives)
Jacksonville, North Carolina, United States

Feed Status: UP
Listen in your browser - HTML5 player(in browser, HTML5)
Click here to listen with your own player(launches your MP3 player)

KOAJ 270821Z AUTO 00000KT 3/4SM BR BKN001 OVC031 14/14 A3016 RMK AO2

KOAJ Airport Info (Airnav.com)

KOAJ Flight Activity (Flightaware)

Listeners: 0 out of 820 total

Ellis Ground: 125.400
Ellis Tower: 132.650

KOCF Gnd/Twr/App (Archives)
Ocala, Florida, United States

Feed Status: UP
Listen in your browser - HTML5 player(in browser, HTML5)
Click here to listen with your own player(launches your MP3 player)

KOCF 270751Z AUTO 08005KT 10SM CLR 23/23 A3007 RMK AO2 SLP181 T02330228

KOCF Airport Info (Airnav.com)

KOCF Flight Activity (Flightaware)

Listeners: 0 out of 820 total

Jacksonville Approach (OCF RCO): 118.600
Ocala Ground: 121.400
Ocala Tower: 119.250
UNICOM: 123.000

KOFP CTAF (Archives)
Richmond/Ashland, Virginia, United States

Feed Status: UP
Listen in your browser - HTML5 player(in browser, HTML5)
Click here to listen with your own player(launches your MP3 player)

KOFP 270754Z AUTO 23003KT 1/2SM FG VV002 14/13 A3016 RMK AO2 SLP212 T01390133 $

KOFP Airport Info (Airnav.com)

KOFP Flight Activity (Flightaware)

Listeners: 0 out of 820 total

Hanover County CTAF: 122.700

KOGB CTAF (Archives)
Orangeburg, South Carolina, United States

Feed Status: UP
Listen in your browser - HTML5 player(in browser, HTML5)
Click here to listen with your own player(launches your MP3 player)

KOGB 270753Z AUTO 12003KT 9SM BKN060 16/16 A3016 RMK AO2 SLP211 T01560156

KOGB Airport Info (Airnav.com)

KOGB Flight Activity (Flightaware)

Listeners: 0 out of 820 total

Orangeburg CTAF: 122.700

KOGD Ogden Ground/Tower (Archives)
Ogden, Utah, United States

Feed Status: UP
Listen in your browser - HTML5 player(in browser, HTML5)
Click here to listen with your own player(launches your MP3 player)

KOGD 270753Z AUTO 17006KT 10SM CLR M02/M14 A3025 RMK AO2 SLP258 T10221144

KOGD Airport Info (Airnav.com)

KOGD Flight Activity (Flightaware)

Listeners: 0 out of 820 total

Ogden Ground: 121.700
Ogden Tower: 118.700

KOJC App/Dep (Archives)
Olathe, Kansas, United States

Feed Status: UP
Listen in your browser - HTML5 player(in browser, HTML5)
Click here to listen with your own player(launches your MP3 player)

KOJC 270753Z AUTO 36006KT 10SM OVC034 M01/M04 A3036 RMK AO2 SLP294 T10111039

KOJC Airport Info (Airnav.com)

KOJC Flight Activity (Flightaware)

Listeners: 0 out of 820 total

Kansas City Approach/Departure: 118.900

KOJC ATIS (Archives)
Olathe, Kansas, United States

Feed Status: UP
Listen in your browser - HTML5 player(in browser, HTML5)
Click here to listen with your own player(launches your MP3 player)

KOJC 270753Z AUTO 36006KT 10SM OVC034 M01/M04 A3036 RMK AO2 SLP294 T10111039

KOJC Airport Info (Airnav.com)

KOJC Flight Activity (Flightaware)

Listeners: 0 out of 820 total

Executive ATIS: 119.350

KOJC Gnd/Twr (Archives)
Olathe, Kansas, United States

Feed Status: UP
Listen in your browser - HTML5 player(in browser, HTML5)
Click here to listen with your own player(launches your MP3 player)

KOJC 270753Z AUTO 36006KT 10SM OVC034 M01/M04 A3036 RMK AO2 SLP294 T10111039

KOJC Airport Info (Airnav.com)

KOJC Flight Activity (Flightaware)

Listeners: 0 out of 820 total

Executive Ground: 121.600
Executive Tower: 126.000

KGDM/KORE CTAF (Archives)
Orange, Massachusetts, United States

Feed Status: UP
Listen in your browser - HTML5 player(in browser, HTML5)
Click here to listen with your own player(launches your MP3 player)

KGDM Airport Info (Airnav.com)

KGDM Flight Activity (Flightaware)

Listeners: 0 out of 820 total

Gardner CTAF: 122.800

MA/NH CTAF 122.8 (Archives)
Orange, Massachusetts, United States

Feed Status: UP
Listen in your browser - HTML5 player(in browser, HTML5)
Click here to listen with your own player(launches your MP3 player)

KMHT 270753Z 00000KT 10SM SCT032 BKN042 OVC075 08/07 A3005 RMK AO2 SLP190 T00830067

KMHT Airport Info (Airnav.com)

KMHT Flight Activity (Flightaware)

Listeners: 0 out of 820 total

MA/NH Area CTAF: 122.800

MA/NH/RI/CT Area CTAF (Archives)
Orange, Massachusetts, United States

Feed Status: UP
Listen in your browser - HTML5 player(in browser, HTML5)
Click here to listen with your own player(launches your MP3 player)

KBOS 270754Z 29007KT 6SM BR SCT005 BKN019 OVC025 11/09 A3007 RMK AO2 CIG 005 E SLP180 T01060094

KBOS Airport Info (Airnav.com)

KBOS Flight Activity (Flightaware)

Listeners: 0 out of 820 total

Air-to-Air: 122.750
Bridgeport Flight Service: 122.200
CTAF: 122.700
CTAF: 122.800
CTAF: 122.900
CTAF: 123.000
Emergency/Guard: 121.500

MA/NH/RI/CT Area CTAF (Archives)
Orange, Massachusetts, United States

Feed Status: UP
Listen in your browser - HTML5 player(in browser, HTML5)
Click here to listen with your own player(launches your MP3 player)

KBOS 270754Z 29007KT 6SM BR SCT005 BKN019 OVC025 11/09 A3007 RMK AO2 CIG 005 E SLP180 T01060094

KBOS Airport Info (Airnav.com)

KBOS Flight Activity (Flightaware)

Listeners: 0 out of 820 total

Air-to-Air: 122.750
Bridgeport Flight Service: 122.200
CTAF: 122.700
CTAF: 122.800
CTAF: 122.900
CTAF: 123.000
Emergency/Guard: 121.500

MA/NH/RI/CT Area CTAF (Archives)
Orange, Massachusetts, United States

Feed Status: UP
Listen in your browser - HTML5 player(in browser, HTML5)
Click here to listen with your own player(launches your MP3 player)

KBOS 270754Z 29007KT 6SM BR SCT005 BKN019 OVC025 11/09 A3007 RMK AO2 CIG 005 E SLP180 T01060094

KBOS Airport Info (Airnav.com)

KBOS Flight Activity (Flightaware)

Listeners: 0 out of 820 total

Air-to-Air: 122.750
Bridgeport Flight Service: 122.200
CTAF: 122.700
CTAF: 122.800
CTAF: 122.900
CTAF: 123.000
Emergency/Guard: 121.500

FSS (Central MA) (Archives)
Worcester, Massachusetts, United States

Feed Status: UP
Listen in your browser - HTML5 player(in browser, HTML5)
Click here to listen with your own player(launches your MP3 player)

KORH 270754Z AUTO 27007KT 10SM OVC003 10/09 A3006 RMK AO2 SLP184 T01000094

KORH Airport Info (Airnav.com)

KORH Flight Activity (Flightaware)

Listeners: 0 out of 820 total

Flight Service: 122.200

KORH ATIS (Archives)
Worcester, Massachusetts, United States

Feed Status: UP
Listen in your browser - HTML5 player(in browser, HTML5)
Click here to listen with your own player(launches your MP3 player)

KORH 270754Z AUTO 27007KT 10SM OVC003 10/09 A3006 RMK AO2 SLP184 T01000094

KORH Airport Info (Airnav.com)

KORH Flight Activity (Flightaware)

Listeners: 0 out of 820 total

Worcester ATIS: 126.550

KORH Bradley App/Dep (Archives)
Worcester, Massachusetts, United States

Feed Status: UP
Listen in your browser - HTML5 player(in browser, HTML5)
Click here to listen with your own player(launches your MP3 player)

KORH 270754Z AUTO 27007KT 10SM OVC003 10/09 A3